Date StartTime U_cm/s V_cm/s W_cm/s Ustd_cm/s Vstd_cm/s Wstd_cm/s Uvar_(cm/s)^2 Vvar_(cm/s)^2 Wvar_(cm/s)^2 KE_(m/s)^2 TurbulentKE_(m/s)^2 HorizWindSpeed_cm/s FrictionSpeec_cm/s DragCoef SpeedOfSound_m/s SonicTemperature_C Pressure_mb 
08/02/2014  00:00:00     -146.813      -34.681      -13.103       75.257       62.525       43.523     5663.567     3909.337     1894.279        1.720        0.573      150.854       46.927        0.097      346.675       25.091      863.042
08/02/2014  00:01:00     -206.837       -7.378      -17.764       84.190       72.189       42.148     7087.914     5211.194     1776.472        2.861        0.704      206.968       38.649        0.035      346.750       25.220      863.057
08/02/2014  00:02:00     -171.036      -92.623       -2.740       81.812       58.273       34.458     6693.133     3395.739     1187.383        2.456        0.564      194.505       39.001        0.040      346.749       25.218      863.079
08/02/2014  00:03:00     -182.118     -101.553       -3.617       64.036       49.152       42.304     4100.572     2415.933     1789.612        2.590        0.415      208.519       40.798        0.038      346.802       25.308      863.089
08/02/2014  00:04:00      -78.623      -44.941       12.346       77.693       54.077       41.938     6036.213     2924.283     1758.784        0.953        0.536       90.561       46.967        0.269      346.750       25.221      863.096
08/02/2014  00:05:00      -78.018        5.822      -11.757       56.593       49.654       23.466     3202.713     2465.545      550.651        0.624        0.311       78.235       16.193        0.043      346.895       25.472      863.090
08/02/2014  00:06:00       -5.071       25.185       21.962       66.728       28.209       23.291     4452.598      795.759      542.455        0.347        0.290       25.690       29.665        1.333      346.615       24.990      863.097
08/02/2014  00:07:00      -85.912       11.393        5.278       37.523       50.640       22.237     1407.990     2564.429      494.486        0.600        0.223       86.664       16.592        0.037      346.893       25.466      863.085
08/02/2014  00:08:00      -41.491      -28.065        6.942       49.423       47.587       24.925     2442.612     2264.529      621.241        0.394        0.266       50.091       15.869        0.100      346.759       25.237      863.091
08/02/2014  00:09:00      -50.883      -36.843       13.950       72.039       31.890       26.045     5189.560     1016.980      678.345        0.551        0.344       62.822       36.855        0.344      346.721       25.171      863.088
08/02/2014  00:10:00      -34.102       34.861       15.060       41.458       38.063       33.271     1718.742     1448.788     1106.963        0.344        0.214       48.767       27.860        0.326      346.744       25.212      863.070
08/02/2014  00:11:00       -5.119      -59.118       16.471       59.890       35.651       31.610     3586.861     1270.961      999.220        0.482        0.293       59.339       33.289        0.315      346.929       25.531      863.061
08/02/2014  00:12:00      -46.453      -22.968       16.836       75.779       37.411       33.054     5742.413     1399.578     1092.592        0.560        0.412       51.821       28.502        0.303      346.728       25.183      863.081
08/02/2014  00:13:00        2.436      -78.183       18.435       29.935       31.402       24.629      896.103      986.108      606.566        0.447        0.124       78.221       21.260        0.074      346.784       25.281      863.096
08/02/2014  00:14:00        9.598     -130.527        7.505       75.241       60.790       38.976     5661.221     3695.384     1519.116        1.403        0.544      130.879       28.562        0.048      346.846       25.386      863.106
08/02/2014  00:15:00       -7.259      -45.721       23.392       46.948       83.861       29.195     2204.094     7032.661      852.337        0.639        0.504       46.294       32.992        0.508      346.684       25.107      863.109
08/02/2014  00:16:00       52.227      100.939       -6.416       35.641       34.298       42.323     1270.250     1176.358     1791.232        0.860        0.212      113.650       34.460        0.092      346.354       24.541      863.069
08/02/2014  00:17:00      -14.033       75.935      -15.204      103.877       55.419       28.839    10790.357     3071.290      831.700        1.044        0.735       77.221       27.417        0.126      346.328       24.496      863.071
08/02/2014  00:18:00     -219.371       49.651      -18.778       72.242       74.941       35.584     5218.908     5616.120     1266.219        3.152        0.605      224.920       27.123        0.015      346.893       25.466      863.125
08/02/2014  00:19:00     -112.171      -81.770        0.590       71.569       60.583       31.942     5122.161     3670.277     1020.272        1.454        0.491      138.811       39.204        0.080      346.759       25.235      863.135
08/02/2014  00:20:00     -113.371      -30.461        7.269       84.309       52.014       31.426     7107.966     2705.411      987.566        1.232        0.540      117.391       37.223        0.101      346.796       25.300      863.172
08/02/2014  00:21:00      -34.587     -170.442        5.386       30.497       45.081       24.090      930.063     2032.269      580.325        1.691        0.177      173.916       19.378        0.012      346.837       25.371      863.190
08/02/2014  00:22:00      -52.119        1.247        9.477       76.602       49.139       33.663     5867.821     2414.657     1133.195        0.611        0.471       52.134       42.134        0.653      346.588       24.942      863.176
08/02/2014  00:23:00       71.039       39.455       32.200       23.318       27.404       26.648      543.730      750.998      710.141        0.482        0.100       81.260       18.711        0.053      346.361       24.553      863.157
08/02/2014  00:24:00      -18.473     -136.881        3.912       49.127       66.648       26.745     2413.498     4441.915      715.307        1.333        0.379      138.122       21.130        0.023      346.564       24.901      863.178
08/02/2014  00:25:00       11.014     -127.361       -4.438       74.786       50.599       37.139     5593.009     2560.272     1379.284        1.295        0.477      127.836       35.685        0.078      346.434       24.678      863.187
08/02/2014  00:26:00      -17.771      -54.873        8.507       40.205       30.347       21.452     1616.445      920.922      460.180        0.320        0.150       57.679       10.250        0.032      346.334       24.508      863.189
08/02/2014  00:27:00      -24.901      -32.384        9.141       20.760       44.911       19.760      430.994     2017.040      390.454        0.229        0.142       40.850        8.398        0.042      346.313       24.471      863.178
08/02/2014  00:28:00       34.983      -31.424        7.801       38.064       55.339       39.328     1448.854     3062.446     1546.653        0.416        0.303       47.025       40.029        0.725      346.222       24.315      863.158
08/02/2014  00:29:00      -36.873      -62.256        0.590       56.956       34.243       24.893     3244.024     1172.566      619.644        0.514        0.252       72.356       17.224        0.057      346.288       24.426      863.189
08/02/2014  00:30:00     -128.594      -73.115        0.419       57.895       49.535       28.892     3351.809     2453.674      834.750        1.426        0.332      147.926       29.759        0.040      346.266       24.389      863.201
08/02/2014  00:31:00     -149.561      -34.403       -0.193       62.235       54.735       30.198     3873.172     2995.964      911.903        1.566        0.389      153.467       31.128        0.041      346.269       24.393      863.192
08/02/2014  00:32:00      -98.297       -7.915       -4.443       49.604       38.793       17.500     2460.574     1504.880      306.265        0.701        0.214       98.615       16.812        0.029      346.225       24.320      863.188
08/02/2014  00:33:00      -62.723       47.596       -2.513       31.587       29.056       19.772      997.744      844.270      390.920        0.422        0.112       78.737       19.861        0.064      346.237       24.341      863.171
08/02/2014  00:34:00      -94.297        3.815       -4.240       34.122       32.786       21.165     1164.316     1074.922      447.960        0.581        0.134       94.374       19.838        0.044      346.340       24.518      863.170
08/02/2014  00:35:00      -71.979       -7.620        0.575       32.011       32.029       19.743     1024.688     1025.874      389.788        0.384        0.122       72.381       18.448        0.065      346.133       24.163      863.180
08/02/2014  00:36:00      -90.019        4.357       -2.037       27.758       21.260       12.479      770.529      451.995      155.731        0.475        0.069       90.124       12.701        0.020      346.159       24.205      863.181
08/02/2014  00:37:00     -101.321       40.989       -7.903       37.461       23.537       19.656     1403.360      554.005      386.356        0.718        0.117      109.298       18.062        0.027      346.186       24.252      863.184
08/02/2014  00:38:00      -76.464       26.961        1.443       30.502       18.651       19.025      930.372      347.857      361.968        0.411        0.082       81.078       13.326        0.027      346.160       24.208      863.180
08/02/2014  00:39:00      -37.770      -34.158       -3.490       29.071       31.168        9.720      845.118      971.451       94.478        0.226        0.096       50.925        9.631        0.036      346.182       24.246      863.175
08/02/2014  00:40:00       17.989      -36.425        1.296       21.056       20.907       10.285      443.354      437.111      105.779        0.132        0.049       40.625        4.749        0.014      346.146       24.183      863.168
08/02/2014  00:41:00        8.158      -27.650       -6.091       15.086       39.565       11.904      227.601     1565.366      141.709        0.140        0.097       28.828       11.429        0.157      345.998       23.930      863.149
08/02/2014  00:42:00      -19.910      -94.730       -8.497       34.194       52.962       16.516     1169.247     2805.006      272.769        0.684        0.212       96.799       17.507        0.033      346.114       24.127      863.155
08/02/2014  00:43:00        0.262      -60.892       -1.950       23.988       53.544       16.510      575.429     2866.977      272.592        0.371        0.186       60.892        9.341        0.024      346.085       24.080      863.175
08/02/2014  00:44:00       10.119      -16.858       17.773       10.560       15.665        6.530      111.518      245.404       42.639        0.055        0.020       19.661        2.025        0.011      345.984       23.906      863.165
08/02/2014  00:45:00      -15.499      -23.094        2.825       12.525       18.866       12.508      156.864      355.942      156.449        0.073        0.033       27.813        9.083        0.107      345.892       23.746      863.158
08/02/2014  00:46:00      -47.521      -30.427       -0.058       32.281       17.434        8.626     1042.041      303.949       74.402        0.230        0.071       56.427        8.165        0.021      345.893       23.749      863.170
08/02/2014  00:47:00       29.357      -15.526        4.414       36.059       46.918       14.801     1300.232     2201.328      219.071        0.242        0.186       33.210       19.003        0.327      346.039       24.001      863.151
08/02/2014  00:48:00      -13.283      -36.422        8.564       31.537       47.746       30.250      994.593     2279.659      915.085        0.288        0.209       38.768       29.812        0.591      345.871       23.712      863.140
08/02/2014  00:49:00      -36.602      -92.055       -2.791       32.811       42.279       19.660     1076.581     1787.483      386.525        0.654        0.163       99.065       18.390        0.034      346.235       24.338      863.148
08/02/2014  00:50:00      -28.704      -26.569        4.054       17.370       18.030       11.756      301.714      325.074      138.196        0.116        0.038       39.113        7.345        0.035      346.100       24.105      863.140
08/02/2014  00:51:00      -24.899       -3.923        7.420       15.797       16.880       12.638      249.537      284.929      159.721        0.069        0.035       25.206        9.161        0.132      345.917       23.791      863.145
08/02/2014  00:52:00      -41.803       15.132       -4.747       11.681       13.191        8.611      136.440      173.989       74.142        0.119        0.019       44.457        5.551        0.016      345.803       23.595      863.151
08/02/2014  00:53:00       -6.658        6.040        2.296       17.390        6.265        9.671      302.424       39.247       93.528        0.026        0.022        8.989       11.029        1.505      345.714       23.443      863.149
08/02/2014  00:54:00        1.879       -0.216        0.055        6.445        2.782        3.995       41.540        7.740       15.960        0.003        0.003        1.892        2.358        1.554      345.573       23.199      863.156
08/02/2014  00:55:00      -18.268        1.042       -0.454       13.924        8.421        4.665      193.882       70.914       21.759        0.031        0.014       18.297        4.099        0.050      345.667       23.360      863.170
08/02/2014  00:56:00        8.296       13.360        6.808       22.408        7.614        8.975      502.122       57.974       80.558        0.047        0.032       15.726       13.015        0.685      345.719       23.450      863.190
08/02/2014  00:57:00       29.509       10.391       12.408       18.551       12.670        6.116      344.130      160.535       37.405        0.084        0.027       31.285        4.261        0.019      345.648       23.329      863.175
08/02/2014  00:58:00       12.131      -21.173        4.244       15.328       11.936       15.398      234.938      142.464      237.089        0.061        0.031       24.402       10.067        0.170      345.505       23.082      863.180
08/02/2014  00:59:00        9.336       -6.532        6.593       21.268       13.661       13.124      452.342      186.636      172.249        0.049        0.041       11.394        9.887        0.753      345.491       23.060      863.176
08/02/2014  01:00:00      -32.580      -61.384       -5.507       33.810       26.092       22.617     1143.139      680.797      511.518        0.360        0.117       69.494       19.630        0.080      345.664       23.357      863.176
08/02/2014  01:01:00      -42.473      -71.662       -0.891       29.232       24.857       17.398      854.490      617.859      302.680        0.436        0.089       83.304       17.154        0.042      345.910       23.779      863.180
08/02/2014  01:02:00      -50.983      -49.599       -0.813       26.050       20.249       11.971      678.593      410.018      143.294        0.315        0.062       71.129        2.582        0.001      345.858       23.690      863.174
08/02/2014  01:03:00      -65.414      -15.817       -7.388       21.625       17.645       13.969      467.653      311.341      195.123        0.278        0.049       67.299       10.793        0.026      345.901       23.762      863.179
08/02/2014  01:04:00      -45.807      -24.869       -4.467       16.026       15.822        9.215      256.824      250.350       84.919        0.166        0.030       52.122        6.115        0.014      345.860       23.694      863.188
08/02/2014  01:05:00      -32.832       -1.001        2.136       13.088       11.946        6.431      171.286      142.719       41.358        0.072        0.018       32.847        2.714        0.007      345.716       23.447      863.193
08/02/2014  01:06:00      -46.006       15.961        3.285       24.233       22.712       12.744      587.243      515.842      162.422        0.182        0.063       48.696       11.501        0.056      345.350       22.818      863.195
08/02/2014  01:07:00      -76.881       30.593       -6.551       24.423       14.461       12.392      596.498      209.131      153.568        0.392        0.048       82.744        6.972        0.007      345.255       22.655      863.190
08/02/2014  01:08:00       -3.946       35.732        2.283       30.475       24.478       13.807      928.727      599.164      190.631        0.151        0.086       35.949       14.197        0.156      345.340       22.800      863.177
08/02/2014  01:09:00       15.574       19.093        1.193       45.739       23.500        9.652     2092.076      552.239       93.159        0.167        0.137       24.640       19.043        0.597      345.409       22.919      863.158
08/02/2014  01:10:00      -82.791      -52.020       -3.121       39.348       26.981       21.469     1548.269      727.960      460.897        0.615        0.137       97.777        7.556        0.006      345.362       22.839      863.179
08/02/2014  01:11:00      -84.329      -29.657       -1.201       22.391       27.698       13.711      501.359      767.203      187.989        0.472        0.073       89.392        8.126        0.008      345.258       22.659      863.187
08/02/2014  01:12:00      -31.164       -2.481       -2.639       14.980       13.374       12.817      224.404      178.861      164.265        0.078        0.028       31.263        6.606        0.045      345.382       22.871      863.180
08/02/2014  01:13:00       -4.305      -11.969        5.567       18.872        7.514        6.591      356.137       56.459       43.441        0.032        0.023       12.720        8.999        0.501      345.654       23.338      863.174
08/02/2014  01:14:00      -17.390      -16.290       -0.498       21.557        9.133        9.311      464.708       83.415       86.696        0.060        0.032       23.828       13.265        0.310      345.525       23.116      863.174
08/02/2014  01:15:00      -62.149      -10.456       -8.401       12.950        9.635        7.354      167.701       92.834       54.080        0.218        0.016       63.022        3.992        0.004      345.252       22.647      863.196
08/02/2014  01:16:00      -28.309        4.603        0.018       12.836       14.205        7.455      164.774      201.776       55.584        0.062        0.021       28.681        7.804        0.074      345.300       22.729      863.205
08/02/2014  01:17:00      -49.728       10.665       -6.432       13.780       19.232        7.992      189.883      369.865       63.878        0.163        0.031       50.858        7.000        0.019      345.543       23.149      863.212
08/02/2014  01:18:00      -72.639      -46.485       -0.079       51.555       37.318       25.383     2657.878     1392.610      644.292        0.607        0.235       86.239       21.672        0.063      345.115       22.414      863.242
08/02/2014  01:19:00      -30.456      -12.356        5.928       53.980       34.846       16.397     2913.882     1214.226      268.868        0.276        0.220       32.867       27.905        0.721      345.102       22.392      863.265
08/02/2014  01:20:00       61.282       68.163       22.049       18.406       15.634       14.341      338.780      244.429      205.678        0.484        0.039       91.661       10.299        0.013      345.471       23.026      863.255
08/02/2014  01:21:00       16.454       66.339       -7.618       24.135       18.915       16.520      582.475      357.770      272.908        0.297        0.061       68.349       11.381        0.028      345.411       22.922      863.272
08/02/2014  01:22:00        7.604       51.406       -3.598       23.198       35.966       13.417      538.124     1293.530      180.024        0.236        0.101       51.965       16.803        0.105      345.573       23.199      863.296
08/02/2014  01:23:00      -33.244       32.520      -12.665       35.035       33.695       10.864     1227.423     1135.378      118.034        0.240        0.124       46.505       10.643        0.052      345.398       22.900      863.317
08/02/2014  01:24:00      -49.072       11.026       -6.930       26.264       17.042       18.936      689.786      290.440      358.572        0.196        0.067       50.295       19.055        0.144      344.981       22.185      863.333
08/02/2014  01:25:00      -10.159        0.102        0.800       18.419       12.367        9.959      339.260      152.936       99.181        0.035        0.030       10.160        8.213        0.654      345.037       22.282      863.336
08/02/2014  01:26:00      -33.616      -11.325       -2.604       14.018        8.552        7.465      196.509       73.141       55.728        0.080        0.016       35.473        6.507        0.034      345.188       22.540      863.342
08/02/2014  01:27:00      -31.245      -22.406       -1.844       13.471        9.541        4.701      181.469       91.034       22.102        0.089        0.015       38.448        2.891        0.006      345.360       22.833      863.348
08/02/2014  01:28:00      -24.286      -18.446       -6.821       14.098       10.548        7.418      198.764      111.265       55.024        0.067        0.018       30.497        9.228        0.092      345.370       22.847      863.342
08/02/2014  01:29:00      -22.458      -18.329       -3.214       15.693       11.585       12.891      246.286      134.218      166.188        0.070        0.027       28.988       10.951        0.143      345.486       23.050      863.326
08/02/2014  01:30:00      -27.464       -8.833        1.630       18.464       12.478        7.374      340.905      155.712       54.369        0.069        0.028       28.849        4.747        0.027      345.296       22.726      863.310
08/02/2014  01:31:00      -54.551      -27.494       -9.923       11.066       10.708        5.708      122.457      114.665       32.587        0.205        0.013       61.088        4.934        0.007      345.151       22.476      863.306
08/02/2014  01:32:00      -84.195      -43.169       -6.645       26.443       11.528        8.148      699.230      132.886       66.390        0.495        0.045       94.617        7.461        0.006      345.105       22.400      863.296
08/02/2014  01:33:00      -95.544      -46.430       -7.885       16.669       14.773        8.621      277.852      218.252       74.313        0.596        0.029      106.228        7.555        0.005      345.040       22.286      863.280
08/02/2014  01:34:00      -77.976      -41.825       -3.276       25.374       20.787       13.778      643.822      432.082      189.843        0.455        0.063       88.485       11.765        0.018      344.976       22.177      863.267
08/02/2014  01:35:00      -89.749      -18.372      -10.192       19.819       20.787       10.852      392.805      432.117      117.763        0.472        0.047       91.610        8.866        0.009      344.989       22.200      863.261
08/02/2014  01:36:00     -104.248      -46.133      -10.661        9.709       10.595        7.163       94.255      112.258       51.306        0.668        0.013      114.000        4.510        0.002      345.091       22.376      863.252
08/02/2014  01:37:00      -97.529      -16.251       -7.858       27.913       20.346       17.183      779.149      413.953      295.245        0.566        0.074       98.873       15.655        0.025      344.907       22.057      863.227
08/02/2014  01:38:00     -101.819      -48.393        2.110       31.844       18.881       16.990     1014.037      356.480      288.658        0.719        0.083      112.734       13.637        0.015      344.940       22.117      863.206
08/02/2014  01:39:00      -81.477      -35.690        0.360       28.960       22.104       13.251      838.680      488.609      175.598        0.471        0.075       88.951       13.135        0.022      344.892       22.033      863.187
08/02/2014  01:40:00     -126.321        6.100      -10.589       65.764       38.857       28.428     4324.880     1509.835      808.137        1.137        0.332      126.469       37.209        0.087      344.856       21.972      863.169
08/02/2014  01:41:00     -161.573       15.103      -15.390       27.732       26.508       15.525      769.063      702.677      241.026        1.414        0.086      162.277       12.481        0.006      345.025       22.261      863.157
08/02/2014  01:42:00     -156.425       28.326       -7.211       15.575       16.509       13.029      242.569      272.558      169.753        1.300        0.034      158.969        6.055        0.001      345.082       22.359      863.140
08/02/2014  01:43:00     -120.224       48.637       -8.843       38.071       23.487       22.750     1449.376      551.639      517.541        0.971        0.126      129.690       19.735        0.023      345.098       22.387      863.137
08/02/2014  01:44:00     -122.382       54.337       -4.543       38.189       27.759       24.940     1458.418      770.568      621.982        1.040        0.143      133.903       18.187        0.018      345.051       22.305      863.125
08/02/2014  01:45:00     -152.453       64.154      -14.834       32.483       27.891       22.705     1055.162      777.885      515.507        1.496        0.117      165.402       16.791        0.010      344.998       22.215      863.117
08/02/2014  01:46:00     -135.873       72.411      -17.536       43.440       30.092       23.984     1887.015      905.557      575.245        1.369        0.168      153.964       23.222        0.023      345.000       22.219      863.114
08/02/2014  01:47:00     -154.217       40.697      -11.947       24.207       27.729       22.988      585.973      768.875      528.441        1.373        0.094      159.496       15.212        0.009      345.041       22.288      863.132
08/02/2014  01:48:00     -114.376       10.425       -8.433       52.684       33.226       29.582     2775.614     1103.951      875.111        0.901        0.238      114.850       30.619        0.071      344.978       22.181      863.141
08/02/2014  01:49:00     -133.802        2.938      -12.896       46.216       32.501       16.963     2135.883     1056.326      287.737        1.078        0.174      133.834       11.838        0.008      345.120       22.424      863.136
08/02/2014  01:50:00      -38.026        4.755        0.469       46.499       20.283       16.282     2162.185      411.407      265.091        0.215        0.142       38.322       19.620        0.262      345.005       22.227      863.152
08/02/2014  01:51:00      -28.425        6.837        0.798       30.371       24.513       13.005      922.396      600.866      169.142        0.127        0.085       29.236        8.026        0.075      344.984       22.191      863.155
08/02/2014  01:52:00      -16.690      -23.555        6.846       27.172       25.530       12.759      738.316      651.797      162.793        0.122        0.078       28.869       17.577        0.371      345.009       22.234      863.153
08/02/2014  01:53:00      -18.138      -18.027        0.900       16.023       10.629        9.217      256.740      112.969       84.944        0.055        0.023       25.573        7.680        0.090      344.972       22.172      863.160
08/02/2014  01:54:00      -10.755      -16.612       -2.301       15.986       16.358       10.620      255.556      267.598      112.791        0.052        0.032       19.789       10.740        0.295      345.009       22.234      863.160
08/02/2014  01:55:00      -63.238      -45.041       -2.669       32.513       20.727       14.370     1057.084      429.596      206.510        0.386        0.085       77.639        9.663        0.015      344.879       22.011      863.153
08/02/2014  01:56:00      -70.773      -53.525       -4.553       28.958       27.006       14.483      838.557      729.316      209.772        0.484        0.089       88.734        7.009        0.006      344.893       22.035      863.151
08/02/2014  01:57:00     -101.628      -54.682       -1.585       26.712       21.185       12.827      713.519      448.796      164.526        0.732        0.066      115.405       12.713        0.012      344.885       22.020      863.137
08/02/2014  01:58:00      -53.116      -42.685        1.201       41.984       25.666       19.328     1762.641      658.768      373.558        0.372        0.140       68.142       17.657        0.067      344.737       21.769      863.132
08/02/2014  01:59:00      -72.637      -51.004       -0.542       48.533       32.395       21.721     2355.434     1049.422      471.781        0.588        0.194       88.756       22.310        0.063      344.744       21.780      863.130
08/02/2014  02:00:00      -83.170      -57.157        0.438       47.211       31.446       19.797     2228.841      988.827      391.915        0.690        0.180      100.917       16.134        0.026      344.720       21.738      863.116
08/02/2014  02:01:00      -67.585      -71.602        4.644       46.338       34.455       23.336     2147.219     1187.162      544.565        0.680        0.194       98.461       19.363        0.039      344.799       21.873      863.113
08/02/2014  02:02:00     -112.114      -92.529        4.553       40.174       40.641       28.179     1613.925     1651.718      794.078        1.260        0.203      145.365       22.848        0.025      344.824       21.916      863.121
08/02/2014  02:03:00      -88.075      -81.769        0.717       38.978       29.495       20.928     1519.258      869.972      437.968        0.863        0.141      120.180       19.315        0.026      344.837       21.939      863.112
08/02/2014  02:04:00      -94.682      -60.176        3.726       46.071       29.958       23.281     2122.561      897.478      542.014        0.808        0.178      112.186       23.207        0.043      344.819       21.908      863.107
08/02/2014  02:05:00     -132.832      -67.980       -0.870       47.882       31.064       20.685     2292.729      964.974      427.851        1.298        0.184      149.216       18.285        0.015      344.771       21.826      863.129
08/02/2014  02:06:00      -70.857      -71.743        3.255       40.997       44.465       22.753     1680.733     1977.135      517.699        0.718        0.209      100.836       19.501        0.037      344.732       21.758      863.137
08/02/2014  02:07:00     -103.851      -73.578        0.225       41.537       29.946       21.742     1725.314      896.790      472.705        0.965        0.155      127.274       19.225        0.023      344.771       21.826      863.146
08/02/2014  02:08:00     -104.030      -85.471       -1.630       50.051       32.393       25.189     2505.110     1049.337      634.503        1.116        0.209      134.639       24.807        0.034      344.760       21.806      863.154
08/02/2014  02:09:00     -107.836      -53.034        0.115       39.187       29.882       24.334     1535.615      892.917      592.122        0.873        0.151      120.172       22.662        0.036      344.737       21.768      863.162
08/02/2014  02:10:00      -99.794      -48.539        3.058       41.790       26.737       21.035     1746.432      714.886      442.452        0.761        0.145      110.973       17.856        0.026      344.641       21.603      863.152
08/02/2014  02:11:00     -120.591      -74.807       -2.077       42.592       29.231       23.002     1814.118      854.435      529.080        1.167        0.160      141.910       25.184        0.031      344.627       21.581      863.149
08/02/2014  02:12:00     -112.606      -87.411        2.811       55.455       39.295       25.572     3075.224     1544.134      653.947        1.280        0.264      142.551       27.538        0.037      344.675       21.662      863.152
08/02/2014  02:13:00     -122.360      -93.548       -2.324       23.923       27.151       14.195      572.294      737.172      201.497        1.262        0.076      154.024        9.624        0.004      344.686       21.680      863.133
08/02/2014  02:14:00     -124.254      -89.479       -4.536       42.517       43.176       25.531     1807.690     1864.206      651.816        1.389        0.216      153.119       22.965        0.022      344.655       21.627      863.122
08/02/2014  02:15:00     -137.750      -69.500       -4.999       42.010       34.142       24.496     1764.860     1165.687      600.056        1.368        0.177      154.290       19.991        0.017      344.623       21.574      863.112
08/02/2014  02:16:00     -116.168      -67.556       -0.971       28.423       28.246       19.795      807.876      797.838      391.855        1.003        0.100      134.383       15.230        0.013      344.604       21.542      863.096
08/02/2014  02:17:00     -121.824      -33.721       -7.084       26.076       28.782       20.138      679.936      828.425      405.539        0.897        0.096      126.405       14.603        0.013      344.583       21.506      863.102
08/02/2014  02:18:00     -119.016      -33.018       -0.965       32.509       28.316       18.906     1056.846      801.807      357.436        0.874        0.111      123.511       18.040        0.021      344.367       21.136      863.098
08/02/2014  02:19:00      -92.956      -14.181        4.833       49.311       36.639       23.095     2431.548     1342.385      533.367        0.659        0.215       94.032       21.398        0.052      344.220       20.882      863.089
08/02/2014  02:20:00     -143.514       -0.573       -4.083       53.559       29.791       24.093     2868.561      887.484      580.479        1.247        0.217      143.515       30.817        0.046      344.240       20.918      863.086
08/02/2014  02:21:00     -143.584      -14.488       -8.789       59.270       28.533       25.114     3512.986      814.156      630.707        1.293        0.248      144.313       31.321        0.047      344.217       20.877      863.100
08/02/2014  02:22:00     -106.173      -42.196       -3.129       42.782       32.080       19.633     1830.260     1029.112      385.473        0.815        0.162      114.250       22.519        0.039      344.229       20.898      863.109
08/02/2014  02:23:00     -112.503      -33.697      -14.205       17.274       15.860       12.883      298.404      251.528      165.980        0.735        0.036      117.441        7.613        0.004      344.302       21.024      863.107
08/02/2014  02:24:00      -62.497       -5.927       -4.961       24.472       17.561       13.128      598.863      308.397      172.346        0.252        0.054       62.777       12.271        0.038      344.217       20.877      863.127
08/02/2014  02:25:00      -88.496      -25.035      -11.214       19.771       25.326       15.462      390.886      641.430      239.075        0.493        0.064       91.969       11.559        0.016      344.194       20.839      863.150
08/02/2014  02:26:00      -51.041      -52.171       -4.089       24.001       20.696       12.087      576.042      428.333      146.094        0.325        0.058       72.987        8.405        0.013      344.197       20.845      863.157
08/02/2014  02:27:00      -82.135      -41.475       -2.017       23.044       16.697       12.419      531.016      278.784      154.220        0.472        0.048       92.013        8.888        0.009      344.284       20.996      863.166
08/02/2014  02:28:00      -31.519      -36.354        4.527       21.855       18.892       13.352      477.619      356.910      178.277        0.167        0.051       48.115        9.468        0.039      344.242       20.924      863.184
08/02/2014  02:29:00      -70.624      -20.666        0.224       26.281       17.540        9.307      690.686      307.634       86.625        0.325        0.054       73.586        9.411        0.016      344.275       20.978      863.197
08/02/2014  02:30:00      -21.953       -9.806        1.490       13.494       10.328       11.313      182.091      106.670      127.995        0.050        0.021       24.044        7.340        0.093      344.233       20.907      863.202
08/02/2014  02:31:00      -13.631        1.407       -5.270       10.914        9.665        9.249      119.125       93.420       85.543        0.026        0.015       13.704        6.976        0.259      344.231       20.903      863.214
08/02/2014  02:32:00      -10.942       -9.834        1.750       13.661       17.323        9.828      186.612      300.087       96.585        0.040        0.029       14.712        7.663        0.271      344.264       20.959      863.209
08/02/2014  02:33:00      -44.981       -9.781       -3.981       22.061       16.573        7.624      486.691      274.659       58.131        0.148        0.041       46.032        8.580        0.035      344.309       21.038      863.204
08/02/2014  02:34:00      -67.282        2.866       -6.674        4.584        8.095        4.969       21.016       65.524       24.694        0.235        0.006       67.343        3.857        0.003      344.297       21.017      863.207
08/02/2014  02:35:00      -68.723      -33.551       -6.710       17.692       14.419        9.152      313.012      207.914       83.762        0.325        0.030       76.476        3.506        0.002      344.247       20.930      863.200
08/02/2014  02:36:00      -91.343      -70.472       -2.829       31.569       24.167       19.517      996.629      584.038      380.910        0.764        0.098      115.368       12.803        0.012      344.049       20.593      863.187
08/02/2014  02:37:00      -58.797      -36.795       -1.220       24.705       18.428       12.883      610.353      339.590      165.980        0.296        0.056       69.361        5.796        0.007      344.042       20.580      863.177
08/02/2014  02:38:00      -17.099      -64.500       -4.512       23.257       27.440        9.593      540.907      752.932       92.016        0.293        0.069       66.728        8.839        0.018      344.138       20.744      863.173
08/02/2014  02:39:00      -94.987      -65.318       -5.200       55.494       24.742       17.820     3079.617      612.189      317.537        0.866        0.200      115.278       16.722        0.021      344.130       20.731      863.167
08/02/2014  02:40:00      -68.492      -59.021        0.908       43.099       34.800       20.623     1857.565     1211.051      425.294        0.583        0.175       90.414       12.753        0.020      343.970       20.458      863.175
08/02/2014  02:41:00      -89.590      -37.110       -3.546       29.446       24.516       15.189      867.054      601.041      230.693        0.556        0.085       96.972       16.527        0.029      343.920       20.371      863.194
08/02/2014  02:42:00      -43.266      -32.833       -4.053       19.846       13.992       10.454      393.844      195.777      109.295        0.183        0.035       54.313        7.794        0.021      344.011       20.528      863.198
08/02/2014  02:43:00      -69.461      -44.400        2.486       26.964       18.044       17.082      727.063      325.578      291.801        0.407        0.067       82.439       15.674        0.036      344.110       20.697      863.200
08/02/2014  02:44:00      -56.106      -35.507        0.713       32.128       17.759       12.188     1032.217      315.388      148.558        0.295        0.075       66.397        8.578        0.017      344.018       20.539      863.202
08/02/2014  02:45:00      -98.352      -43.266       -3.849       25.915       21.555       12.864      671.585      464.631      165.493        0.643        0.065      107.448       10.910        0.010      343.984       20.483      863.218
08/02/2014  02:46:00      -98.469      -55.903       -1.248       26.873       22.464       15.418      722.138      504.650      237.722        0.714        0.073      113.231       11.146        0.010      343.986       20.484      863.240
08/02/2014  02:47:00      -81.064      -60.671       -1.074       24.421       15.798       14.685      596.371      249.573      215.644        0.566        0.053      101.254       11.339        0.013      344.078       20.641      863.247
08/02/2014  02:48:00      -76.730      -56.339       -1.812       16.550       17.941       15.422      273.915      321.867      237.830        0.495        0.042       95.192       11.148        0.014      344.091       20.665      863.258
08/02/2014  02:49:00      -66.132      -46.849       -0.512       24.992       21.375       12.628      624.586      456.878      159.467        0.390        0.062       81.045       11.371        0.020      344.090       20.663      863.277
08/02/2014  02:50:00      -56.400      -39.403        1.863       32.136       18.983       13.207     1032.736      360.337      174.425        0.315        0.078       68.800       12.092        0.031      344.035       20.569      863.307
08/02/2014  02:51:00      -35.843      -48.733       -3.714       24.378       21.263       16.186      594.290      452.107      261.988        0.249        0.065       60.495        9.791        0.026      344.037       20.571      863.323
08/02/2014  02:52:00      -38.644      -18.979        1.448       36.121       22.524       13.991     1304.695      507.316      195.761        0.193        0.100       43.053       18.299        0.181      344.111       20.698      863.335
08/02/2014  02:53:00      -97.971      -58.851       -5.274       20.021       31.995       15.723      400.831     1023.683      247.207        0.738        0.084      114.288        7.189        0.004      344.248       20.933      863.346
08/02/2014  02:54:00      -65.647      -63.635       -6.101       19.171       29.985       13.607      367.517      899.078      185.139        0.492        0.073       91.428        9.415        0.011      344.121       20.716      863.365
08/02/2014  02:55:00      -64.301      -44.871       -0.396       43.859       28.363       21.841     1923.593      804.440      477.034        0.468        0.160       78.409       24.671        0.099      344.116       20.706      863.364
08/02/2014  02:56:00     -102.212      -52.239       -4.985       29.405       20.503       15.273      864.643      420.378      233.260        0.736        0.076      114.788       15.974        0.019      344.096       20.672      863.375
08/02/2014  02:57:00      -60.137      -40.468       -5.551       35.914       27.890       13.864     1289.831      777.878      192.210        0.377        0.113       72.486       14.878        0.042      344.047       20.589      863.380
08/02/2014  02:58:00      -79.504      -24.486      -12.938       39.706       28.562       17.215     1576.598      815.808      296.371        0.489        0.134       83.189       23.689        0.081      344.063       20.616      863.378
08/02/2014  02:59:00      -97.734      -29.559      -14.873       24.356       38.777       11.755      593.216     1503.622      138.187        0.644        0.112      102.106       12.370        0.015      344.002       20.513      863.366
08/02/2014  03:00:00      -64.938      -44.035       -6.946       32.898       36.003       21.438     1082.263     1296.189      459.574        0.452        0.142       78.460       20.778        0.070      344.074       20.636      863.362
08/02/2014  03:01:00     -111.400       -7.665      -13.059       37.791       20.944       20.277     1428.173      438.656      411.139        0.746        0.114      111.664       16.409        0.022      343.988       20.488      863.360
08/02/2014  03:02:00      -79.708      -37.098      -14.448       32.574       28.216       15.755     1061.082      796.131      248.229        0.502        0.105       87.918       14.540        0.027      344.187       20.827      863.347
08/02/2014  03:03:00     -111.355      -41.827       -3.948       25.174       21.060       13.020      633.755      443.543      169.518        0.771        0.062      118.951       11.566        0.009      344.093       20.668      863.337
08/02/2014  03:04:00      -70.672      -35.179        0.472       34.400       19.483       17.867     1183.360      379.575      319.240        0.406        0.094       78.943       17.273        0.048      344.016       20.535      863.345
08/02/2014  03:05:00      -88.815      -63.365       -0.301       23.489       24.114       14.459      551.751      581.493      209.053        0.662        0.067      109.102       11.698        0.011      344.072       20.632      863.352
08/02/2014  03:06:00     -101.627      -64.728       -3.043       36.270       25.113       18.976     1315.546      630.678      360.098        0.842        0.115      120.490       16.569        0.019      344.097       20.673      863.358
08/02/2014  03:07:00      -99.465      -57.866       -1.072       35.381       25.454       15.812     1251.802      647.895      250.024        0.770        0.107      115.072       15.573        0.018      344.091       20.665      863.360
08/02/2014  03:08:00      -98.864      -24.119       -3.356       43.483       22.998       16.755     1890.757      528.922      280.740        0.653        0.135      101.764       22.338        0.048      344.155       20.773      863.367
08/02/2014  03:09:00      -92.599      -37.158       -6.720       13.496       15.862       10.133      182.137      251.606      102.668        0.527        0.027       99.776        3.048        0.001      344.228       20.899      863.366
08/02/2014  03:10:00      -47.329      -24.658       -0.144       13.134       13.928        9.618      172.492      193.990       92.502        0.165        0.023       53.367        4.365        0.007      344.161       20.784      863.361
08/02/2014  03:11:00      -36.382      -28.161        0.576       24.763       10.524       11.017      613.221      110.757      121.384        0.148        0.042       46.007       13.737        0.089      344.186       20.827      863.368
08/02/2014  03:12:00      -13.758      -26.694       -1.339       14.990       11.875        9.904      224.711      141.027       98.092        0.068        0.023       30.030        8.534        0.081      344.183       20.822      863.380
08/02/2014  03:13:00      -21.256      -47.731       -5.035       11.795        9.481        6.421      139.119       89.894       41.227        0.151        0.014       52.250        5.903        0.013      344.313       21.044      863.377
08/02/2014  03:14:00      -19.571      -28.824       -1.860       29.250       14.274        9.845      855.565      203.761       96.919        0.119        0.058       34.840       12.294        0.125      344.374       21.147      863.371
08/02/2014  03:15:00      -27.655      -40.811       -2.828       14.505        7.988        8.390      210.409       63.807       70.396        0.139        0.017       49.299        6.354        0.017      344.256       20.947      863.376
08/02/2014  03:16:00      -58.626      -33.407       -1.558       22.922       15.731       10.089      525.438      247.470      101.780        0.271        0.044       67.476        9.333        0.019      344.190       20.834      863.392
08/02/2014  03:17:00      -66.266      -45.603        3.662       31.447       17.893       17.411      988.920      320.144      303.157        0.405        0.081       80.441       15.642        0.038      343.983       20.479      863.400
08/02/2014  03:18:00     -109.155      -60.415       -6.004       37.028       29.585       19.350     1371.037      875.258      374.437        0.911        0.131      124.759       19.381        0.024      343.900       20.338      863.406
08/02/2014  03:19:00     -123.794      -65.390       -4.991       48.702       26.851       23.745     2371.929      720.974      563.811        1.164        0.183      140.003       18.864        0.018      343.784       20.141      863.415
08/02/2014  03:20:00     -100.910      -69.726        0.240       54.068       35.154       26.094     2923.319     1235.824      680.903        0.994        0.242      122.656       28.408        0.054      343.741       20.068      863.421
08/02/2014  03:21:00     -124.784      -97.078        3.774       42.366       37.646       26.733     1794.888     1417.201      714.631        1.447        0.196      158.098       25.311        0.026      343.702       20.000      863.429
08/02/2014  03:22:00      -76.880      -73.921       12.088       46.508       36.940       26.880     2163.037     1364.583      722.561        0.788        0.213      106.653       24.551        0.053      343.651       19.911      863.435
08/02/2014  03:23:00     -106.203      -60.626        2.090       52.526       42.957       32.345     2759.019     1845.266     1046.209        1.030        0.283      122.289       28.809        0.055      343.734       20.054      863.438
08/02/2014  03:24:00      -95.467      -78.703       -0.260       52.486       31.958       26.217     2754.735     1021.305      687.331        0.988        0.223      123.726       18.217        0.022      343.747       20.077      863.439
08/02/2014  03:25:00     -123.462      -77.604       -1.817       33.103       29.976       21.200     1095.782      898.585      449.454        1.186        0.122      145.826       15.496        0.011      343.767       20.110      863.449
08/02/2014  03:26:00     -122.255      -66.528       -6.555       25.860       30.372       16.119      668.750      922.481      259.830        1.063        0.093      139.185        9.776        0.005      343.644       19.901      863.444
08/02/2014  03:27:00     -101.164      -43.537       -3.774       21.143       19.143       15.178      447.017      366.455      230.358        0.659        0.052      110.135       12.897        0.014      343.634       19.883      863.429
08/02/2014  03:28:00     -110.292      -28.221       -1.043       31.910       30.467       19.152     1018.221      928.239      366.793        0.764        0.116      113.845       17.395        0.023      343.734       20.054      863.427
08/02/2014  03:29:00     -111.655      -36.130       -7.416       32.179       24.977       17.031     1035.512      623.833      290.062        0.789        0.097      117.355       19.357        0.027      343.740       20.065      863.430
08/02/2014  03:30:00     -120.016      -55.930       -4.336       31.237       16.670       14.675      975.755      277.891      215.345        0.951        0.073      132.409       15.447        0.014      343.788       20.145      863.421
08/02/2014  03:31:00     -136.453      -44.518       -3.311       32.839       24.400       13.566     1078.381      595.376      184.038        1.123        0.093      143.532        8.512        0.004      343.793       20.155      863.408
08/02/2014  03:32:00     -148.292      -60.886       -6.533       31.190       25.289       16.553      972.829      639.542      274.012        1.381        0.094      160.305       14.214        0.008      343.746       20.076      863.399
08/02/2014  03:33:00     -125.672      -35.126       -5.744       37.829       31.711       20.756     1431.049     1005.586      430.806        0.996        0.143      130.488       19.143        0.022      343.661       19.928      863.403
08/02/2014  03:34:00     -106.115      -26.339       -5.004       45.806       31.011       24.297     2098.210      961.702      590.341        0.781        0.183      109.335       27.937        0.065      343.780       20.134      863.397
08/02/2014  03:35:00      -70.570      -14.872        3.469       28.909       30.929       23.578      835.745      956.598      555.909        0.378        0.117       72.120       18.150        0.063      343.799       20.166      863.389
08/02/2014  03:36:00     -106.375      -26.622      -10.827       35.390       37.454       18.183     1252.485     1402.814      330.626        0.756        0.149      109.656       19.050        0.030      343.694       19.987      863.375
08/02/2014  03:37:00     -122.290      -58.596       -6.780       25.993       26.518       16.889      675.620      703.213      285.238        1.005        0.083      135.604       13.839        0.010      343.745       20.073      863.373
08/02/2014  03:38:00     -118.059      -36.002       -2.439       49.071       31.361       22.455     2407.915      983.520      504.244        0.957        0.195      123.426       22.768        0.034      343.634       19.883      863.377
08/02/2014  03:39:00     -161.512      -60.721       -1.721       43.656       32.076       21.791     1905.837     1028.864      474.841        1.659        0.170      172.549       16.255        0.009      343.548       19.736      863.377
08/02/2014  03:40:00     -154.733      -49.872        1.903       40.545       36.914       22.062     1643.901     1362.611      486.739        1.496        0.175      162.571       22.292        0.019      343.418       19.517      863.386
08/02/2014  03:41:00     -145.086      -38.957       -1.756       59.851       37.601       29.901     3582.163     1413.829      894.053        1.423        0.295      150.225       27.685        0.034      343.287       19.290      863.389
08/02/2014  03:42:00     -198.719      -58.399       -4.737       60.263       44.966       33.208     3631.596     2021.905     1102.756        2.484        0.338      207.123       30.938        0.022      343.438       19.546      863.387
08/02/2014  03:43:00     -156.040      -51.231       -2.928       52.040       36.258       24.126     2708.111     1314.646      582.061        1.579        0.230      164.235       28.766        0.031      343.406       19.495      863.387
08/02/2014  03:44:00     -172.371      -66.003       -0.313       40.744       32.035       20.984     1660.036     1026.225      440.340        1.860        0.156      184.576       21.041        0.013      343.432       19.538      863.381
08/02/2014  03:45:00     -107.836      -47.111        6.302       61.527       37.873       26.887     3785.541     1434.331      722.906        0.991        0.297      117.678       28.296        0.058      343.441       19.555      863.390
08/02/2014  03:46:00     -106.783      -29.360       -6.081       33.646       31.379       19.435     1132.064      984.639      377.737        0.740        0.125      110.746       15.263        0.019      343.436       19.547      863.404
08/02/2014  03:47:00     -115.119      -46.083        0.533       29.371       26.787       17.075      862.648      717.519      291.553        0.862        0.094      124.000       15.677        0.016      343.371       19.435      863.405
08/02/2014  03:48:00     -121.438      -45.438       -4.007       57.509       42.377       23.748     3307.334     1795.826      563.973        1.125        0.283      129.660       18.709        0.021      343.472       19.608      863.397
08/02/2014  03:49:00      -90.597      -51.059        9.267       49.438       42.229       27.194     2444.156     1783.277      739.523        0.793        0.248      103.995       27.976        0.072      343.609       19.841      863.407
08/02/2014  03:50:00      -54.501      -44.444        8.969       45.269       34.182       20.781     2049.278     1168.435      431.847        0.434        0.182       70.325       14.065        0.040      343.599       19.824      863.415
08/02/2014  03:51:00      -50.399      -40.011        3.018       44.824       36.681       27.610     2009.163     1345.514      762.296        0.413        0.206       64.350       27.689        0.185      343.527       19.701      863.425
08/02/2014  03:52:00      -51.467      -57.521        3.907       44.393       44.498       23.554     1970.767     1980.054      554.804        0.524        0.225       77.185       27.196        0.124      343.512       19.674      863.438
08/02/2014  03:53:00      -64.652      -60.406        2.650       39.464       29.623       19.183     1557.442      877.507      367.971        0.532        0.140       88.481       17.910        0.041      343.529       19.706      863.458
08/02/2014  03:54:00      -93.147      -44.524        7.529       45.289       32.140       22.719     2051.110     1032.961      516.174        0.716        0.180      103.242       16.105        0.024      343.491       19.640      863.455
08/02/2014  03:55:00      -58.199      -40.360        3.634       48.113       43.995       24.147     2314.829     1935.540      583.082        0.493        0.242       70.824       20.161        0.081      343.434       19.542      863.453
08/02/2014  03:56:00      -81.545      -70.157        7.185       54.061       42.034       23.238     2922.542     1766.856      540.005        0.843        0.261      107.571       26.513        0.061      343.399       19.483      863.466
08/02/2014  03:57:00      -91.201      -84.573       10.210       51.576       46.177       30.170     2660.074     2132.359      910.228        1.064        0.285      124.379       32.343        0.068      343.372       19.438      863.457
08/02/2014  03:58:00     -110.019      -80.768        0.836       44.795       33.401       26.469     2006.569     1115.594      700.626        1.122        0.191      136.483       29.174        0.046      343.355       19.408      863.453
08/02/2014  03:59:00     -119.213      -81.301        3.065       43.895       40.837       25.870     1926.778     1667.673      669.281        1.255        0.213      144.297       24.002        0.028      343.354       19.407      863.467
08/02/2014  04:00:00     -126.434      -68.313       -1.932       42.019       36.436       22.274     1765.573     1327.606      496.146        1.212        0.179      143.709       23.392        0.026      343.326       19.359      863.463
08/02/2014  04:01:00      -59.600      -55.766       -2.268       35.683       34.227       20.623     1273.272     1171.500      425.290        0.477        0.144       81.621       17.952        0.048      343.305       19.322      863.464
08/02/2014  04:02:00      -59.201      -61.535       -3.020       37.912       21.790       18.779     1437.320      474.796      352.657        0.478        0.113       85.389       14.764        0.030      343.239       19.210      863.472
08/02/2014  04:03:00      -56.007      -39.941        5.554       38.584       20.172       18.908     1488.735      406.891      357.529        0.351        0.113       68.790       13.007        0.036      343.185       19.119      863.476
08/02/2014  04:04:00      -64.240      -51.708       -3.473       25.608       27.284       15.211      655.789      744.436      231.361        0.422        0.082       82.465       11.779        0.020      343.198       19.143      863.471
08/02/2014  04:05:00      -63.780      -39.383        0.934       30.290       23.773       14.463      917.455      565.168      209.173        0.366        0.085       74.959       13.978        0.035      343.154       19.066      863.465
08/02/2014  04:06:00      -47.855      -35.704        5.029       27.360       18.108       11.909      748.580      327.909      141.822        0.240        0.061       59.707        9.951        0.028      343.150       19.057      863.480
08/02/2014  04:07:00      -51.869      -37.074        0.561       26.527       17.489       15.792      703.667      305.875      249.380        0.266        0.063       63.756       12.453        0.038      343.100       18.973      863.482
08/02/2014  04:08:00      -77.664      -48.639        1.148       26.841       20.194       17.184      720.431      407.792      295.282        0.491        0.071       91.638       16.852        0.034      343.069       18.920      863.480
08/02/2014  04:09:00      -56.246      -47.231        6.256       37.102       22.004       18.773     1376.542      484.194      352.429        0.382        0.111       73.446       19.008        0.067      343.029       18.852      863.491
08/02/2014  04:10:00      -95.202      -49.499       -7.286       19.806       12.796       12.390      392.294      163.743      153.505        0.614        0.035      107.301        4.363        0.002      343.041       18.874      863.505
08/02/2014  04:11:00      -92.509      -44.839       -0.380       19.980       23.729       14.995      399.202      563.066      224.860        0.588        0.059      102.803       13.616        0.018      343.040       18.873      863.507
08/02/2014  04:12:00      -78.259      -49.056       -4.163       34.150       21.754       14.089     1166.210      473.219      198.507        0.519        0.092       92.363       15.463        0.028      343.056       18.898      863.511
08/02/2014  04:13:00      -66.934      -47.070       -2.284       24.049       17.352       13.574      578.359      301.099      184.244        0.388        0.053       81.828       11.368        0.019      343.017       18.834      863.525
08/02/2014  04:14:00      -62.090      -30.345        2.209       42.243       22.484       10.242     1784.487      505.532      104.893        0.359        0.120       69.109       17.118        0.061      342.967       18.747      863.519
08/02/2014  04:15:00      -48.086      -32.596       -0.831       29.467       19.771       17.971      868.305      390.910      322.958        0.248        0.079       58.092       14.161        0.059      342.953       18.723      863.526
08/02/2014  04:16:00      -30.488      -45.437        5.683       37.571       36.193       19.098     1411.613     1309.909      364.737        0.306        0.154       54.718       21.395        0.153      342.892       18.619      863.526
08/02/2014  04:17:00      -66.200      -73.006       -0.113       48.949       34.750       24.195     2396.032     1207.584      585.413        0.695        0.209       98.551       27.285        0.077      342.910       18.650      863.526
08/02/2014  04:18:00      -97.933      -75.153       -4.843       41.518       34.999       20.956     1723.747     1224.928      439.149        0.932        0.169      123.445       17.115        0.019      342.892       18.619      863.526
08/02/2014  04:19:00      -86.690      -60.703       -1.873       55.554       22.862       19.944     3086.233      522.663      397.777        0.760        0.200      105.830       26.064        0.061      342.940       18.702      863.528
08/02/2014  04:20:00      -88.778      -45.044       -2.248       26.957       26.934       15.211      726.685      725.417      231.389        0.580        0.084       99.551       10.004        0.010      342.881       18.602      863.538
08/02/2014  04:21:00     -110.310       -4.255       -5.911       27.386       20.437       15.471      750.015      417.679      239.347        0.681        0.070      110.392       16.492        0.022      342.750       18.380      863.549
08/02/2014  04:22:00     -115.000      -17.546       -3.278       23.955       23.465       12.620      573.849      550.616      159.265        0.741        0.064      116.331        9.955        0.007      342.654       18.214      863.547
08/02/2014  04:23:00      -94.012      -18.019        4.635       39.080       29.986       19.002     1527.273      899.131      361.080        0.599        0.139       95.723       19.462        0.041      342.586       18.099      863.541
08/02/2014  04:24:00      -98.587      -45.552        4.288       39.710       26.132       18.585     1576.871      682.894      345.413        0.721        0.130      108.602       21.174        0.038      342.735       18.353      863.553
08/02/2014  04:25:00     -105.132      -51.401        4.701       35.015       40.734       21.051     1226.054     1659.239      443.161        0.852        0.166      117.025       18.870        0.026      342.786       18.440      863.552
08/02/2014  04:26:00     -127.963      -63.101       -8.187       37.764       53.241       24.576     1426.150     2834.610      603.973        1.264        0.243      142.675       14.393        0.010      342.907       18.645      863.543
08/02/2014  04:27:00     -146.161      -78.511       -2.419       48.421       43.762       26.571     2344.553     1915.080      706.040        1.625        0.248      165.913       27.420        0.027      342.952       18.721      863.539
08/02/2014  04:28:00     -112.617      -87.599       -6.392       56.880       58.819       31.140     3235.307     3459.698      969.704        1.403        0.383      142.675       33.526        0.055      342.919       18.667      863.545
08/02/2014  04:29:00     -138.980      -89.304      -12.311       39.475       40.219       19.543     1558.255     1617.566      381.922        1.550        0.178      165.199       17.101        0.011      342.943       18.706      863.538
08/02/2014  04:30:00     -117.235      -25.522        1.979       59.085       30.636       23.516     3490.986      938.537      552.982        0.969        0.249      119.981       29.541        0.061      342.901       18.636      863.542
08/02/2014  04:31:00     -124.196      -32.237        0.870       29.666       29.749       23.266      880.078      884.974      541.305        0.939        0.115      128.312       17.092        0.018      342.897       18.629      863.555
08/02/2014  04:32:00     -119.771      -29.472       -4.050       39.487       32.732       19.359     1559.235     1071.416      374.752        0.912        0.150      123.344       18.745        0.023      342.859       18.564      863.564
08/02/2014  04:33:00     -122.637      -34.157       -0.851       37.942       27.456       19.833     1439.631      753.839      393.352        0.940        0.129      127.305       21.583        0.029      342.843       18.537      863.570
08/02/2014  04:34:00      -84.640      -10.748       -0.278       42.292       26.720       19.792     1788.617      713.936      391.713        0.509        0.145       85.320       21.084        0.061      342.771       18.412      863.587
08/02/2014  04:35:00      -89.566      -34.448       -2.468       33.597       23.204       17.600     1128.747      538.403      309.763        0.560        0.099       95.962       15.711        0.027      342.793       18.451      863.599
08/02/2014  04:36:00      -94.700      -41.622       -3.997       32.285       24.812       15.501     1042.301      615.627      240.293        0.631        0.095      103.443       16.628        0.026      342.756       18.389      863.602
08/02/2014  04:37:00     -117.162      -64.307      -14.458       28.635       24.617       19.505      819.938      606.012      380.427        0.994        0.090      133.649       13.197        0.010      342.849       18.546      863.597
08/02/2014  04:38:00      -89.318      -43.760        0.306       31.538       24.319       20.586      994.639      591.417      423.763        0.595        0.100       99.462       20.440        0.042      342.798       18.459      863.601
08/02/2014  04:39:00      -80.133      -38.228       -2.328       25.544       23.449       17.649      652.472      549.872      311.475        0.470        0.076       88.784       14.443        0.026      342.758       18.393      863.598
08/02/2014  04:40:00     -100.340      -48.963       -3.963       21.572       18.554       12.919      465.371      344.236      166.893        0.673        0.049      111.649        8.838        0.006      342.739       18.361      863.601
08/02/2014  04:41:00      -77.255      -53.741        1.771       36.284       24.884       18.311     1316.541      619.229      335.293        0.556        0.114       94.109       15.051        0.026      342.731       18.344      863.615
08/02/2014  04:42:00      -91.764      -76.136        2.985       27.799       31.062       19.875      772.797      964.841      395.010        0.818        0.107      119.237       15.424        0.017      342.718       18.324      863.637
08/02/2014  04:43:00     -123.512      -80.363        2.959       42.161       39.823       30.123     1777.584     1585.849      907.409        1.300        0.214      147.354       24.235        0.027      342.751       18.381      863.642
08/02/2014  04:44:00     -106.461      -89.639        5.522       62.471       51.034       34.150     3902.636     2604.470     1166.241        1.353        0.384      139.173       37.852        0.074      342.721       18.327      863.639
08/02/2014  04:45:00     -128.536      -81.407        3.730       65.605       48.681       34.390     4303.992     2369.870     1182.651        1.551        0.393      152.147       39.019        0.066      342.723       18.331      863.647
08/02/2014  04:46:00     -154.568      -87.318       -0.862       50.689       41.830       24.441     2569.326     1749.781      597.346        1.822        0.246      177.527       25.953        0.021      342.705       18.299      863.652
08/02/2014  04:47:00     -113.606      -74.648       -0.128       64.202       52.495       31.423     4121.943     2755.727      987.386        1.317        0.393      135.936       27.433        0.041      342.646       18.201      863.642
08/02/2014  04:48:00     -153.208      -82.929      -11.700       46.363       50.541       26.792     2149.517     2554.346      717.815        1.795        0.271      174.212       27.115        0.024      342.656       18.217      863.631
08/02/2014  04:49:00     -116.932      -56.988       -4.637       35.319       27.514       20.182     1247.407      757.022      407.308        0.968        0.121      130.080       18.652        0.021      342.638       18.186      863.633
08/02/2014  04:50:00      -40.931      -41.154        5.950       33.299       26.245       19.231     1108.798      688.782      369.849        0.279        0.108       58.043       17.842        0.094      342.576       18.081      863.625
08/02/2014  04:51:00      -26.673      -41.637        1.444       21.598       32.336       16.397      466.479     1045.615      268.874        0.211        0.089       49.448       11.370        0.053      342.611       18.142      863.601
08/02/2014  04:52:00      -73.363      -50.029       -9.114       17.322       16.654       14.917      300.048      277.367      222.509        0.438        0.040       88.798       10.270        0.013      342.603       18.127      863.598
08/02/2014  04:53:00      -80.007      -42.143       -6.838       34.345       31.394       18.207     1179.553      985.572      331.487        0.536        0.125       90.428       17.248        0.036      342.658       18.224      863.588
08/02/2014  04:54:00      -85.247      -55.235       -0.243       39.783       23.979       18.221     1582.698      574.969      331.993        0.640        0.124      101.577       16.756        0.027      342.607       18.134      863.573
08/02/2014  04:55:00      -61.788      -55.376        7.098       39.133       28.196       22.435     1531.398      795.038      503.332        0.488        0.141       82.971       24.620        0.088      342.606       18.133      863.557
08/02/2014  04:56:00      -48.038      -46.239        7.566       38.796       21.697       19.099     1505.114      470.763      364.757        0.342        0.117       66.676       18.770        0.079      342.654       18.215      863.557
08/02/2014  04:57:00      -58.586      -49.513        5.769       33.456       24.341       18.188     1119.335      592.471      330.819        0.398        0.102       76.706       16.575        0.047      342.540       18.021      863.559
08/02/2014  04:58:00      -64.715      -42.972        4.034       34.355       27.672       17.535     1180.262      765.742      307.467        0.415        0.113       77.683       20.662        0.071      342.588       18.102      863.564
08/02/2014  04:59:00      -59.384      -47.103        0.232       41.297       25.062       18.453     1705.418      628.106      340.525        0.421        0.134       75.797       15.904        0.044      342.589       18.105      863.575
08/02/2014  05:00:00     -104.966      -66.022       -0.365       45.071       28.040       19.890     2031.419      786.255      395.603        0.929        0.161      124.003       17.254        0.019      342.532       18.007      863.607
08/02/2014  05:01:00      -93.990      -75.794        4.231       50.256       35.758       25.483     2525.682     1278.660      649.384        0.952        0.223      120.743       25.712        0.045      342.504       17.960      863.636
08/02/2014  05:02:00      -88.148      -60.884        2.907       54.964       31.805       30.903     3021.000     1011.589      954.975        0.824        0.249      107.131       31.301        0.085      342.506       17.962      863.653
08/02/2014  05:03:00     -106.701      -83.400        9.008       49.868       43.523       27.719     2486.852     1894.225      768.342        1.178        0.257      135.428       29.807        0.048      342.498       17.949      863.666
08/02/2014  05:04:00     -126.833     -113.400       -1.533       39.749       44.991       24.933     1580.013     2024.205      621.675        1.659        0.211      170.136       16.761        0.010      342.518       17.983      863.671
08/02/2014  05:05:00     -127.021     -106.441        7.888       63.025       50.525       35.508     3972.187     2552.747     1260.823        1.765        0.389      165.723       35.316        0.045      342.486       17.928      863.664
08/02/2014  05:06:00     -116.551     -103.517        3.903       68.638       53.718       37.001     4711.153     2885.658     1369.045        1.664        0.448      155.884       35.869        0.053      342.465       17.893      863.647
08/02/2014  05:07:00      -61.991      -58.361        1.198       71.049       48.979       38.443     5047.925     2398.916     1477.859        0.809        0.446       85.140       26.732        0.099      342.472       17.905      863.626
08/02/2014  05:08:00     -128.676      -83.467       -4.230       87.324       48.027       45.311     7625.470     2306.624     2053.081        1.776        0.599      153.377       47.198        0.095      342.503       17.956      863.612
08/02/2014  05:09:00     -171.382      -94.016      -18.057       55.086       55.219       30.049     3034.490     3049.129      902.918        2.276        0.349      195.475       32.277        0.027      342.470       17.899      863.593
08/02/2014  05:10:00     -143.538      -65.968       -7.620       39.410       45.384       27.744     1553.135     2059.731      769.708        1.470        0.219      157.972       19.271        0.015      342.500       17.951      863.581
08/02/2014  05:11:00     -118.632      -34.355        4.979       65.372       35.682       29.307     4273.510     1273.207      858.896        1.084        0.320      123.506       26.868        0.047      342.509       17.969      863.579
08/02/2014  05:12:00     -124.541      -60.905       -2.863       58.920       35.149       27.148     3471.524     1235.431      737.022        1.233        0.272      138.636       28.306        0.042      342.581       18.089      863.589
08/02/2014  05:13:00      -89.952      -31.754       -6.383       32.429       26.809       20.543     1051.637      718.724      422.017        0.567        0.110       95.392       17.279        0.033      342.545       18.031      863.583
08/02/2014  05:14:00      -68.388       13.213        3.588       39.452       26.835       21.594     1556.472      720.106      466.302        0.380        0.137       69.653       22.114        0.101      342.313       17.635      863.583
08/02/2014  05:15:00     -108.604        5.654       -0.462       40.172       32.734       17.647     1613.786     1071.544      311.422        0.741        0.150      108.751       13.989        0.017      342.295       17.603      863.581
08/02/2014  05:16:00      -66.682       -1.296        7.901       50.852       37.768       28.916     2585.960     1426.455      836.150        0.468        0.242       66.695       27.993        0.176      342.175       17.399      863.560
08/02/2014  05:17:00     -125.870       -7.798       -3.942       40.015       36.266       21.883     1601.217     1315.235      478.864        0.966        0.170      126.111       19.291        0.023      342.159       17.373      863.539
08/02/2014  05:18:00     -108.582      -15.033        0.634       43.578       31.365       19.868     1899.030      983.733      394.723        0.765        0.164      109.618       20.474        0.035      342.140       17.340      863.536
08/02/2014  05:19:00     -131.578      -12.302       -9.834       29.523       27.559       18.510      871.607      759.493      342.636        0.977        0.099      132.152       14.640        0.012      342.187       17.421      863.528
08/02/2014  05:20:00     -152.709      -41.505       -6.850       30.701       29.296       19.483      942.556      858.240      379.577        1.363        0.109      158.249       14.271        0.008      342.210       17.460      863.528
08/02/2014  05:21:00     -139.447      -52.237       -5.873       41.398       29.220       24.963     1713.773      853.796      623.127        1.270        0.160      148.910       23.366        0.025      342.188       17.423      863.541
08/02/2014  05:22:00     -105.518      -66.188        7.530       54.552       44.863       25.440     2975.906     2012.719      647.206        1.060        0.282      124.558       25.375        0.042      342.166       17.385      863.559
08/02/2014  05:23:00     -115.530      -47.735        1.783       46.204       41.108       26.517     2134.828     1689.834      703.130        1.008        0.226      125.004       22.727        0.033      342.208       17.457      863.572
08/02/2014  05:24:00     -127.112      -54.000        1.274       36.173       33.029       23.710     1308.455     1090.882      562.145        1.102        0.148      138.106       20.516        0.022      342.206       17.453      863.583
08/02/2014  05:25:00     -134.743      -54.591       -3.783       31.464       29.496       19.099      990.002      870.005      364.755        1.169        0.111      145.382       16.409        0.013      342.273       17.567      863.602
08/02/2014  05:26:00     -135.483      -64.325       -1.284       49.065       42.540       21.138     2407.342     1809.619      446.810        1.358        0.233      149.978       23.090        0.024      342.272       17.564      863.623
08/02/2014  05:27:00     -130.625      -90.064      -10.160       46.172       35.689       20.038     2131.824     1273.732      401.530        1.454        0.190      158.665       11.115        0.005      342.290       17.596      863.634
08/02/2014  05:28:00     -101.333     -106.840        1.346       66.441       51.502       36.793     4414.429     2652.437     1353.742        1.505        0.421      147.252       38.184        0.067      342.327       17.658      863.643
08/02/2014  05:29:00     -129.775     -103.259        5.510       79.135       45.774       35.440     6262.274     2095.232     1256.012        1.857        0.481      165.843       34.163        0.042      342.407       17.794      863.651
08/02/2014  05:30:00     -149.126     -109.606      -10.961       62.831       55.832       32.735     3947.676     3117.230     1071.592        2.125        0.407      185.073       33.836        0.033      342.455       17.874      863.658
08/02/2014  05:31:00     -110.488      -81.238       -1.667       45.450       51.211       24.708     2065.677     2622.608      610.471        1.205        0.265      137.140       28.032        0.042      342.443       17.857      863.655
08/02/2014  05:32:00      -95.432      -65.560        1.031       52.768       35.556       22.520     2784.496     1264.206      507.170        0.898        0.228      115.782       22.157        0.037      342.418       17.813      863.662
08/02/2014  05:33:00      -82.829      -79.508       -1.967       37.030       26.816       16.795     1371.248      719.090      282.075        0.778        0.119      114.814       15.777        0.019      342.418       17.814      863.656
08/02/2014  05:34:00      -78.699      -47.827       -8.338       31.019       29.351       16.259      962.206      861.487      264.355        0.532        0.104       92.092       14.759        0.026      342.436       17.844      863.658
08/02/2014  05:35:00     -105.915      -38.170       -2.441       20.080       24.264       15.935      403.209      588.730      253.922        0.696        0.062      112.583       12.685        0.013      342.487       17.930      863.650
08/02/2014  05:36:00      -81.513      -62.195       -7.348       25.376       25.950       16.459      643.929      673.420      270.885        0.608        0.079      102.531       12.405        0.015      342.478       17.918      863.647
08/02/2014  05:37:00      -77.224      -44.563        0.228       35.929       22.717       14.033     1290.860      516.076      196.930        0.498        0.100       89.159       15.969        0.032      342.399       17.782      863.638
08/02/2014  05:38:00      -83.124      -45.362        2.266       28.915       23.091       18.924      836.102      533.199      358.102        0.535        0.086       94.696       17.254        0.033      342.407       17.793      863.633
08/02/2014  05:39:00      -87.084      -48.464       -6.162       23.847       12.410       11.100      568.676      153.999      123.205        0.541        0.042       99.661        5.187        0.003      342.408       17.795      863.622
08/02/2014  05:40:00      -75.304      -53.567        4.423       25.975       15.582       13.884      674.699      242.798      192.770        0.483        0.056       92.413       13.818        0.022      342.407       17.796      863.619
08/02/2014  05:41:00      -52.600      -42.427        1.388       32.613       23.800       16.757     1063.603      566.429      280.800        0.324        0.096       67.579        9.857        0.021      342.311       17.632      863.637
08/02/2014  05:42:00      -77.519      -55.113       -0.130       30.816       21.142       18.807      949.637      447.004      353.685        0.540        0.088       95.114       13.435        0.020      342.280       17.579      863.640
08/02/2014  05:43:00      -45.023      -41.467        7.469       32.422       25.973       20.213     1051.205      674.594      408.561        0.297        0.107       61.209       17.358        0.080      342.188       17.423      863.649
08/02/2014  05:44:00      -38.306      -37.397        8.856       40.587       32.936       19.331     1647.316     1084.789      373.689        0.302        0.155       53.534       18.208        0.116      342.222       17.479      863.660
08/02/2014  05:45:00      -70.011      -53.987        5.549       47.704       32.781       22.851     2275.643     1074.565      522.177        0.586        0.194       88.409       25.374        0.082      342.231       17.496      863.674
08/02/2014  05:46:00      -70.618      -58.545        3.459       45.107       41.356       25.077     2034.617     1710.307      628.866        0.640        0.219       91.730       26.838        0.086      342.219       17.475      863.691
08/02/2014  05:47:00      -78.909      -27.845        3.197       40.862       31.865       21.451     1669.666     1015.403      460.159        0.508        0.157       83.678       26.568        0.101      342.223       17.482      863.718
08/02/2014  05:48:00      -97.828      -49.071       -1.443       21.448       14.635       12.080      460.033      214.192      145.931        0.640        0.041      109.446       11.690        0.011      342.262       17.548      863.722
08/02/2014  05:49:00      -75.602      -46.025        1.567       24.923       18.719       12.585      621.172      350.411      158.382        0.448        0.056       88.510        6.826        0.006      342.323       17.652      863.738
08/02/2014  05:50:00      -58.552      -11.851       -5.649       19.763       12.069        7.810      390.590      145.653       61.003        0.210        0.030       59.739        4.546        0.006      342.239       17.511      863.752
08/02/2014  05:51:00      -49.487        5.011       -1.553       24.725       12.517        9.368      611.345      156.664       87.764        0.167        0.043       49.740        6.903        0.019      342.207       17.456      863.766
08/02/2014  05:52:00      -55.388      -11.955       -1.568       20.975       16.177       11.810      439.961      261.688      139.469        0.203        0.042       56.663       10.993        0.038      342.234       17.501      863.777
08/02/2014  05:53:00      -41.812      -13.288        0.619       28.832       21.300       13.898      831.311      453.694      193.156        0.170        0.074       43.873       14.747        0.113      342.245       17.519      863.774
08/02/2014  05:54:00      -79.299      -13.446       -4.848       21.825       13.303       12.740      476.351      176.980      162.319        0.365        0.041       80.431       13.546        0.028      342.187       17.420      863.775
08/02/2014  05:55:00      -83.923      -15.221       -2.795       17.162       14.395       12.254      294.551      207.206      150.152        0.397        0.033       85.292        9.430        0.012      342.163       17.380      863.774
08/02/2014  05:56:00      -52.730      -13.178        1.070       23.813       15.727       11.732      567.043      247.342      137.648        0.195        0.048       54.352        8.453        0.024      342.135       17.333      863.774
08/02/2014  05:57:00      -58.512       -8.482       -0.206       21.811       14.683       12.857      475.700      215.588      165.304        0.218        0.043       59.123       12.418        0.044      342.101       17.275      863.774
08/02/2014  05:58:00      -45.757       -5.738       -6.040       14.339       11.828        9.201      205.621      139.905       84.651        0.130        0.022       46.116        6.260        0.018      342.136       17.334      863.769
08/02/2014  05:59:00      -34.937      -15.149      -12.111       11.819       10.352        7.457      139.685      107.170       55.604        0.095        0.015       38.080        5.022        0.017      342.114       17.298      863.779
08/02/2014  06:00:00       -8.208      -11.598       -1.604       10.831        7.305        6.851      117.305       53.358       46.932        0.021        0.011       14.209        2.399        0.029      342.127       17.320      863.783
08/02/2014  06:01:00        2.505      -32.398       -8.029       17.562       18.050       10.892      308.435      325.801      118.627        0.094        0.038       32.495        6.825        0.044      342.019       17.137      863.797
08/02/2014  06:02:00       -2.290      -39.692       -3.962       11.555       10.324        6.128      133.510      106.581       37.554        0.094        0.014       39.758        4.284        0.012      342.119       17.304      863.809
08/02/2014  06:03:00      -13.786      -34.786       -2.150       13.111       11.521       11.008      171.896      132.739      121.182        0.092        0.021       37.418        9.172        0.060      342.084       17.248      863.822
08/02/2014  06:04:00      -17.457      -24.669        1.858       18.311       15.072       12.675      335.293      227.156      160.664        0.082        0.036       30.221       10.978        0.132      342.068       17.217      863.829
08/02/2014  06:05:00       -6.927      -11.533       -3.711        9.451       10.308        9.698       89.315      106.260       94.049        0.024        0.014       13.454        7.701        0.328      342.057       17.200      863.828
08/02/2014  06:06:00      -58.283      -14.147       -3.106       15.197       10.358        6.781      230.939      107.284       45.976        0.200        0.019       59.975        4.592        0.006      342.128       17.320      863.818
08/02/2014  06:07:00      -78.282      -19.927       -8.435        8.089        9.484        6.725       65.436       89.954       45.225        0.340        0.010       80.779        4.504        0.003      342.231       17.496      863.807
08/02/2014  06:08:00      -80.029       -8.691       -8.337       14.248       11.625        9.286      203.008      135.141       86.223        0.349        0.021       80.499        6.429        0.006      342.149       17.357      863.800
08/02/2014  06:09:00      -89.521       -3.385      -10.236       16.335       12.081        9.851      266.822      145.942       97.047        0.432        0.025       89.585        7.723        0.007      342.147       17.354      863.795
08/02/2014  06:10:00      -58.251       -7.632       -3.983       19.826       14.045       10.894      393.053      197.256      118.687        0.209        0.035       58.749       10.178        0.030      342.123       17.313      863.800
08/02/2014  06:11:00      -49.483        5.971        2.143       23.224       16.243       11.198      539.348      263.831      125.406        0.171        0.046       49.842       10.048        0.041      341.960       17.036      863.807
08/02/2014  06:12:00      -36.933      -13.988        0.379       14.107       11.830        6.599      198.999      139.959       43.553        0.097        0.019       39.493        6.701        0.029      341.982       17.072      863.827
08/02/2014  06:13:00      -15.138      -27.342       -5.348        9.013        7.223        7.252       81.235       52.174       52.588        0.060        0.009       31.253        2.259        0.005      342.141       17.342      863.849
08/02/2014  06:14:00      -14.170       -3.332      -11.196        5.154        9.441        4.818       26.568       89.141       23.209        0.024        0.007       14.557        3.507        0.058      342.291       17.600      863.865
08/02/2014  06:15:00      -10.615      -47.429       -1.265       11.379       29.157       12.982      129.483      850.109      168.536        0.176        0.057       48.603        3.455        0.005      342.402       17.786      863.880
08/02/2014  06:16:00       10.490        7.499       15.368       13.192       15.235       10.998      174.042      232.106      120.967        0.046        0.026       12.894        8.222        0.407      342.279       17.577      863.889
08/02/2014  06:17:00        1.170       -3.148        8.709        8.634       19.643       11.129       74.553      385.832      123.853        0.034        0.029        3.358        8.263        6.054      342.368       17.729      863.900
08/02/2014  06:18:00       -6.586        2.187        5.733       14.869       18.517        8.592      221.082      342.864       73.819        0.036        0.032        6.939       10.325        2.214      342.274       17.568      863.909
08/02/2014  06:19:00      -28.669       -5.911       -5.337       10.841        7.392        8.418      117.535       54.640       70.866        0.056        0.012       29.272        7.236        0.061      342.298       17.610      863.920
08/02/2014  06:20:00      -33.183        0.778       -7.539        7.312        4.707        8.788       53.466       22.155       77.231        0.066        0.008       33.192        4.592        0.019      342.290       17.596      863.926
08/02/2014  06:21:00      -40.318        1.108        0.385        7.795        6.978        4.098       60.759       48.694       16.794        0.088        0.006       40.333        3.185        0.006      342.299       17.612      863.933
08/02/2014  06:22:00      -50.110       12.006       -3.740       10.921        7.664        7.487      119.265       58.729       56.053        0.145        0.012       51.528        6.854        0.018      342.344       17.688      863.941
08/02/2014  06:23:00      -60.079        9.977       -8.887       12.766       12.122        8.698      162.960      146.944       75.656        0.209        0.019       60.902        6.539        0.012      342.529       18.003      863.944
08/02/2014  06:24:00      -41.718       26.374       -4.232       11.547       14.898        7.286      133.325      221.950       53.080        0.143        0.020       49.356        3.844        0.006      342.532       18.006      863.942
08/02/2014  06:25:00      -63.054       23.930       -5.799       23.725       15.473        7.205      562.866      239.417       51.910        0.272        0.043       67.443        5.402        0.006      342.523       17.991      863.945
08/02/2014  06:26:00      -87.881       11.141       -5.870       12.168       15.905        8.526      148.065      252.978       72.692        0.418        0.024       88.584        7.550        0.007      342.559       18.051      863.949
08/02/2014  06:27:00      -75.336       -6.750       -9.289       23.122       11.786       11.117      534.632      138.909      123.593        0.330        0.040       75.638       10.416        0.019      342.504       17.959      863.954
08/02/2014  06:28:00      -32.119        8.025        2.860       11.865       12.568        6.453      140.790      157.958       41.640        0.072        0.017       33.106        4.522        0.019      342.427       17.829      863.953
08/02/2014  06:29:00      -48.625      -16.177       -1.393        9.219       13.790        8.569       84.987      190.161       73.420        0.149        0.017       51.246        5.791        0.013      342.423       17.821      863.945
08/02/2014  06:30:00      -52.725      -17.349       -5.614       18.893       14.322        7.800      356.941      205.113       60.839        0.187        0.031       55.506        5.222        0.009      342.166       17.386      863.952
08/02/2014  06:31:00      -77.861      -36.528       -1.341       20.721       12.439       11.219      429.365      154.738      125.874        0.405        0.035       86.004       10.217        0.014      342.137       17.337      863.952
08/02/2014  06:32:00      -54.760      -29.755        2.303       18.336       17.023       12.370      336.220      289.787      153.024        0.233        0.039       62.322        3.187        0.003      342.270       17.563      863.954
08/02/2014  06:33:00      -57.450      -25.731       -2.242       14.241       14.666        9.576      202.819      215.099       91.691        0.224        0.025       62.949        6.440        0.010      342.402       17.788      863.941
08/02/2014  06:34:00      -64.269      -47.245       -0.820       35.135       25.033       19.715     1234.457      626.629      388.664        0.431        0.112       79.766       14.160        0.032      342.317       17.641      863.935
08/02/2014  06:35:00      -87.016      -81.879       -5.784       31.287       28.047       16.911      978.880      786.624      285.997        0.818        0.103      119.482        9.772        0.007      342.330       17.663      863.933
08/02/2014  06:36:00      -42.290      -42.998       10.630       37.901       33.380       23.809     1436.511     1114.244      566.862        0.343        0.156       60.309       21.708        0.130      342.293       17.602      863.912
08/02/2014  06:37:00      -75.790      -76.256        9.748       46.662       43.843       24.528     2177.375     1922.176      601.633        0.818        0.235      107.513       24.306        0.051      342.226       17.487      863.905
08/02/2014  06:38:00      -46.009      -95.797        4.315       35.189       42.898       24.184     1238.281     1840.200      584.884        0.749        0.183      106.273       19.827        0.035      342.287       17.591      863.916
08/02/2014  06:39:00      -44.735      -66.388       -2.456       33.068       40.353       17.241     1093.503     1628.326      297.237        0.472        0.151       80.054       14.579        0.033      342.303       17.618      863.916
08/02/2014  06:40:00      -55.344      -86.027        0.546       34.409       25.861       18.692     1183.986      668.787      349.404        0.633        0.110      102.292       14.705        0.021      342.317       17.641      863.907
08/02/2014  06:41:00      -69.333      -79.703       -1.576       40.461       33.163       22.235     1637.071     1099.770      494.399        0.720        0.162      105.639       13.065        0.015      342.337       17.676      863.914
08/02/2014  06:42:00      -27.391      -36.625        3.586       28.990       20.035       18.833      840.409      401.389      354.671        0.185        0.080       45.735        6.588        0.021      342.396       17.775      863.918
08/02/2014  06:43:00      -58.897      -52.960       -0.439       40.407       26.773       21.354     1632.750      716.787      456.014        0.454        0.140       79.206       22.109        0.078      342.330       17.665      863.913
08/02/2014  06:44:00      -62.924      -42.893       -1.066       23.232       22.738       15.318      539.737      517.023      234.651        0.355        0.065       76.153       11.593        0.023      342.348       17.696      863.921
08/02/2014  06:45:00      -76.114      -32.168       -7.799       32.300       22.115       15.181     1043.262      489.051      230.470        0.433        0.088       82.632       14.934        0.033      342.374       17.738      863.926
08/02/2014  06:46:00      -51.640      -26.320        4.484       27.910       18.003       20.329      778.948      324.115      413.274        0.245        0.076       57.961       17.964        0.096      342.366       17.724      863.943
08/02/2014  06:47:00      -53.730      -22.638        5.650       28.242       22.898       16.981      797.610      524.341      288.355        0.252        0.081       58.304       14.467        0.062      342.347       17.693      863.955
08/02/2014  06:48:00       -6.083        6.853        8.116       20.120       12.983       17.370      404.825      168.555      301.700        0.051        0.044        9.163        6.679        0.531      342.564       18.063      863.956
08/02/2014  06:49:00      -12.930        0.951        6.153       13.711       12.737       12.298      187.988      162.228      151.243        0.035        0.025       12.965        9.420        0.528      342.588       18.102      863.960
08/02/2014  06:50:00      -32.499      -12.882        6.017       20.286       23.575       14.692      411.504      555.796      215.842        0.122        0.059       34.959       17.341        0.246      342.487       17.929      863.967
08/02/2014  06:51:00      -28.672        2.616        2.735       18.846       14.198       11.512      355.159      201.572      132.516        0.076        0.034       28.791        9.481        0.108      342.456       17.879      863.970
08/02/2014  06:52:00      -40.024       -8.822        2.579       17.978       21.364        8.889      323.197      456.415       79.014        0.127        0.043       40.985        5.195        0.016      342.419       17.817      863.989
08/02/2014  06:53:00      -66.515      -30.175      -10.044        7.473        7.324        8.836       55.847       53.645       78.080        0.281        0.009       73.040        4.256        0.003      342.423       17.823      863.992
08/02/2014  06:54:00      -53.270      -21.984       -2.200       21.825       13.162       10.617      476.315      173.249      112.712        0.204        0.038       57.628        9.172        0.025      342.425       17.825      863.987
08/02/2014  06:55:00      -49.288      -17.300       -2.824        7.767       11.077        7.243       60.330      122.689       52.462        0.149        0.012       52.236        4.161        0.006      342.478       17.916      863.985
08/02/2014  06:56:00      -46.658       -2.896       -3.753        8.045        5.471        4.612       64.715       29.928       21.268        0.116        0.006       46.748        3.415        0.005      342.460       17.884      863.978
08/02/2014  06:57:00      -32.911        4.339        0.012        7.831        6.219        6.451       61.317       38.677       41.619        0.062        0.007       33.196        4.418        0.018      342.555       18.046      863.980
08/02/2014  06:58:00      -35.274        3.694       -3.482        6.801        4.357        3.989       46.247       18.984       15.914        0.068        0.004       35.467        2.695        0.006      342.510       17.972      863.980
08/02/2014  06:59:00      -31.889        8.327       -1.438        7.879        6.093        6.564       62.080       37.129       43.080        0.062        0.007       32.958        6.053        0.034      342.574       18.080      863.976
08/02/2014  07:00:00      -28.269        4.428       -0.695        5.746        3.727        3.449       33.021       13.890       11.893        0.044        0.003       28.614        2.778        0.009      342.588       18.105      863.973
08/02/2014  07:01:00      -38.950        2.061       -3.989        6.150        6.981        4.837       37.822       48.729       23.399        0.082        0.005       39.005        2.506        0.004      342.569       18.068      863.962
08/02/2014  07:02:00      -40.590       -6.521       -2.829       14.218        6.718        6.107      202.157       45.125       37.299        0.099        0.014       41.111        6.770        0.027      342.580       18.089      863.965
08/02/2014  07:03:00      -62.830      -14.426       -5.093        7.702        6.141        6.084       59.320       37.706       37.017        0.216        0.007       64.465        2.763        0.002      342.599       18.122      863.962
08/02/2014  07:04:00      -71.693      -24.409       -5.105        9.962        8.513        7.810       99.247       72.468       61.000        0.300        0.012       75.734        5.709        0.006      342.611       18.143      863.967
08/02/2014  07:05:00      -63.609      -15.523       -2.909        9.476        8.398        5.328       89.798       70.519       28.385        0.224        0.009       65.476        2.791        0.002      342.583       18.095      863.958
08/02/2014  07:06:00      -33.291      -14.378       -4.253       11.854        5.874        6.343      140.506       34.509       40.231        0.077        0.011       36.263        3.498        0.009      342.654       18.214      863.962
08/02/2014  07:07:00      -19.597       -1.452       -3.154       12.414        9.292        5.886      154.109       86.336       34.642        0.034        0.014       19.651        5.431        0.076      342.733       18.348      863.963
08/02/2014  07:08:00      -31.195       -1.888        6.943       21.983       11.921       10.148      483.250      142.106      102.987        0.088        0.036       31.252       12.671        0.164      342.793       18.450      863.965
08/02/2014  07:09:00      -52.237       -7.051       -5.548       14.018       12.531        8.179      196.497      157.022       66.894        0.161        0.021       52.711        3.813        0.005      342.735       18.352      863.976
08/02/2014  07:10:00      -60.285       -9.499       -8.228       19.669       12.120       10.757      386.861      146.900      115.717        0.222        0.032       61.028       11.053        0.033      342.760       18.397      863.994
08/02/2014  07:11:00      -46.055      -15.672        3.736       12.600       17.084        8.662      158.764      291.851       75.035        0.145        0.026       48.648        6.894        0.020      342.778       18.425      864.000
08/02/2014  07:12:00      -64.179      -26.884       -8.752       21.749       11.963       10.788      473.007      143.103      116.382        0.283        0.037       69.582        4.574        0.004      342.855       18.557      864.020
08/02/2014  07:13:00      -66.418      -35.629        4.491       30.019       26.385       11.327      901.115      696.179      128.298        0.371        0.086       75.371       13.840        0.034      342.812       18.483      864.031
08/02/2014  07:14:00      -86.388      -26.650        0.530       22.939       19.306       13.564      526.192      372.737      183.986        0.463        0.054       90.405       12.387        0.019      342.780       18.428      864.044
08/02/2014  07:15:00      -68.686      -20.133       -0.530       31.776       27.469       15.648     1009.683      754.547      244.857        0.357        0.100       71.575       17.263        0.058      342.857       18.561      864.049
08/02/2014  07:16:00      -31.106       -8.237        0.549       12.807       18.268        8.986      164.013      333.724       80.741        0.081        0.029       32.178        8.090        0.063      342.927       18.679      864.053
08/02/2014  07:17:00      -16.377       -2.109        3.023       13.302        9.334       15.352      176.932       87.132      235.671        0.039        0.025       16.512        5.308        0.103      343.076       18.932      864.051
08/02/2014  07:18:00      -41.363        3.860       -1.855       16.028       14.051       17.304      256.896      197.441      299.435        0.124        0.038       41.543       11.837        0.081      342.939       18.701      864.054
08/02/2014  07:19:00      -21.696        7.043        1.747       18.164       19.330       14.214      329.942      373.653      202.026        0.071        0.045       22.810        9.842        0.186      342.939       18.700      864.056
08/02/2014  07:20:00      -32.576       10.896       -8.525       13.755       12.792        9.196      189.196      163.631       84.572        0.084        0.022       34.350        2.822        0.007      342.962       18.740      864.049
08/02/2014  07:21:00      -32.164       16.708       -1.803        8.228        8.124        6.425       67.701       65.998       41.277        0.075        0.009       36.244        4.227        0.014      343.087       18.953      864.056
08/02/2014  07:22:00      -21.643        0.796       -5.083        6.309        8.926        6.344       39.805       79.670       40.242        0.033        0.008       21.658        5.017        0.054      343.195       19.136      864.063
08/02/2014  07:23:00       -9.103       -5.065        6.044        8.045        6.181        6.769       64.728       38.206       45.821        0.015        0.007       10.417        3.935        0.143      343.476       19.615      864.080
08/02/2014  07:24:00      -22.980       -2.065       -0.523        8.128        4.148        4.276       66.070       17.206       18.283        0.032        0.005       23.073        2.872        0.015      343.229       19.193      864.091
08/02/2014  07:25:00      -28.807        1.022       -1.341        5.942        6.257        5.218       35.306       39.150       27.233        0.047        0.005       28.825        4.287        0.022      343.163       19.082      864.098
08/02/2014  07:26:00      -30.075        4.937       -3.935        5.793        6.947        4.355       33.555       48.258       18.968        0.052        0.005       30.477        3.238        0.011      343.169       19.091      864.116
08/02/2014  07:27:00      -32.704       -2.774        0.174       11.857       10.070        6.572      140.595      101.404       43.197        0.068        0.014       32.822        4.452        0.018      343.180       19.111      864.114
08/02/2014  07:28:00      -69.602        5.192       -2.990       18.989       10.728       10.004      360.586      115.086      100.089        0.273        0.029       69.796       10.927        0.025      343.158       19.073      864.118
08/02/2014  07:29:00      -72.547      -11.972       -8.194        7.263        6.919        6.396       52.752       47.874       40.903        0.281        0.007       73.528        4.718        0.004      343.168       19.091      864.117
08/02/2014  07:30:00      -49.545      -26.490       -4.102       11.856        9.553        8.906      140.569       91.266       79.316        0.174        0.016       56.182        6.504        0.013      343.244       19.221      864.121
08/02/2014  07:31:00      -20.013      -21.267        1.276       20.231       14.501       12.697      409.277      210.269      161.221        0.082        0.039       29.203       10.974        0.141      343.462       19.592      864.134
08/02/2014  07:32:00      -20.823      -52.754        6.758       25.522       25.847       17.075      651.380      668.060      291.554        0.244        0.081       56.715       16.090        0.080      343.333       19.372      864.139
08/02/2014  07:33:00      -53.083      -66.699        0.383       20.814       19.989       12.043      433.243      399.541      145.040        0.412        0.049       85.244       10.182        0.014      343.265       19.255      864.144
08/02/2014  07:34:00      -32.233      -45.891       -3.051       11.698       17.478        9.943      136.845      305.484       98.867        0.185        0.027       56.080        8.045        0.021      343.345       19.391      864.150
08/02/2014  07:35:00      -32.028      -52.610       -4.947       11.550       10.320        6.503      133.411      106.509       42.291        0.205        0.014       61.592        4.043        0.004      343.348       19.399      864.157
08/02/2014  07:36:00      -14.612      -32.648        2.369       15.740       13.398       10.605      247.753      179.519      112.464        0.091        0.027       35.769        9.273        0.067      343.510       19.673      864.153
08/02/2014  07:37:00      -11.867      -39.777       -0.042        5.923        4.795        6.538       35.077       22.992       42.740        0.091        0.005       41.510        3.301        0.006      343.423       19.522      864.147
08/02/2014  07:38:00      -15.349      -33.273        1.158        5.119        9.612        7.976       26.203       92.387       63.609        0.076        0.009       36.642        2.971        0.007      343.529       19.703      864.143
08/02/2014  07:39:00      -33.287       -4.471       -4.690        9.718        7.034        6.247       94.441       49.478       39.022        0.067        0.009       33.586        4.589        0.019      343.596       19.817      864.138
08/02/2014  07:40:00      -32.084        9.422       -2.860        9.013        6.877        6.072       81.243       47.293       36.868        0.065        0.008       33.439        5.563        0.028      343.595       19.813      864.143
08/02/2014  07:41:00      -14.794        2.119        1.037        5.830        7.106        7.990       33.991       50.495       63.838        0.019        0.007       14.945        3.785        0.064      343.842       20.239      864.145
08/02/2014  07:42:00      -23.917        4.890       10.314       11.471        6.885        9.045      131.584       47.400       81.818        0.048        0.013       24.412        4.405        0.033      343.915       20.365      864.142
08/02/2014  07:43:00      -33.698        8.578       -4.179       10.998        8.759       10.386      120.952       76.717      107.872        0.077        0.015       34.773        3.842        0.012      343.801       20.170      864.153
08/02/2014  07:44:00      -22.817        5.747       -5.460        3.979        6.230        5.126       15.835       38.808       26.276        0.033        0.004       23.529        2.162        0.008      343.769       20.117      864.155
08/02/2014  07:45:00      -26.308        3.971       -0.620        9.342        9.462        7.947       87.264       89.538       63.156        0.047        0.012       26.606        6.030        0.051      343.836       20.228      864.163
08/02/2014  07:46:00      -23.828       20.224        7.235        9.107       16.114       18.200       82.929      259.649      331.229        0.085        0.034       31.254       13.104        0.176      344.208       20.865      864.178
08/02/2014  07:47:00      -29.605       10.702       -3.957        8.835       10.565        7.198       78.065      111.611       51.805        0.062        0.012       31.480        5.257        0.028      343.909       20.355      864.181
08/02/2014  07:48:00      -23.380        2.402       -5.203       10.498        7.855        6.549      110.207       61.706       42.890        0.040        0.011       23.503        4.437        0.036      343.905       20.347      864.196
08/02/2014  07:49:00      -29.314        6.198        1.418       10.907        8.726        9.255      118.960       76.148       85.647        0.059        0.014       29.962        4.986        0.028      344.030       20.557      864.206
08/02/2014  07:50:00      -33.413        5.708       -2.904        7.216        6.368        5.542       52.078       40.553       30.711        0.064        0.006       33.897        3.779        0.012      343.934       20.395      864.208
08/02/2014  07:51:00      -11.997       -8.096        1.998        7.632        8.426        5.882       58.242       71.000       34.598        0.019        0.008       14.473        3.535        0.060      344.057       20.606      864.224
08/02/2014  07:52:00       -7.289      -13.379        8.243        5.347        5.487        5.894       28.589       30.102       34.735        0.020        0.005       15.236        2.685        0.031      344.138       20.744      864.234
08/02/2014  07:53:00      -12.401       -2.488        4.421        6.569        9.177        9.783       43.148       84.224       95.713        0.020        0.011       12.648        5.043        0.159      344.294       21.011      864.244
08/02/2014  07:54:00      -27.635        4.697       -4.309        9.639       12.175       15.490       92.916      148.227      239.952        0.064        0.024       28.032       11.004        0.154      344.272       20.974      864.254
08/02/2014  07:55:00      -19.146       13.306       21.744       14.656       13.092       20.436      214.794      171.391      417.615        0.091        0.040       23.316       15.096        0.419      344.991       22.206      864.252
08/02/2014  07:56:00      -10.923       10.583       42.904       13.819       24.724       14.754      190.961      611.254      217.678        0.155        0.051       15.209       15.737        1.071      345.105       22.398      864.254
08/02/2014  07:57:00       -2.394        0.943       37.769       11.595       10.082        8.435      134.454      101.643       71.156        0.087        0.015        2.573        3.961        2.369      345.636       23.308      864.252
08/02/2014  07:58:00       -0.137       -2.435       32.991       11.608       20.358       12.517      134.753      414.431      156.666        0.090        0.035        2.439        9.974       16.724      345.448       22.986      864.242
08/02/2014  07:59:00      -23.947      -22.330        8.619       13.087       18.014       19.036      171.262      324.501      362.379        0.100        0.043       32.742       15.769        0.232      344.551       21.451      864.244
08/02/2014  08:00:00      -14.855      -18.112        8.552       15.753       20.831       18.437      248.149      433.950      339.937        0.082        0.051       23.425       17.960        0.588      344.737       21.769      864.238
08/02/2014  08:01:00       -8.182      -11.509        9.463       19.420       19.161       15.443      377.142      367.129      238.488        0.064        0.049       14.121       11.691        0.685      344.764       21.815      864.238
08/02/2014  08:02:00      -10.549      -22.654       13.599       26.351       26.245       18.306      694.350      688.790      335.114        0.126        0.086       24.989       19.906        0.635      344.707       21.717      864.237
08/02/2014  08:03:00      -46.613      -47.104       -1.854       17.345       18.261       12.727      300.854      333.446      161.985        0.260        0.040       66.269        7.147        0.012      344.177       20.811      864.241
08/02/2014  08:04:00      -21.775      -48.818        7.155       20.063       17.893       11.961      402.524      320.173      143.057        0.189        0.043       53.454       12.603        0.056      344.282       20.990      864.250
08/02/2014  08:05:00        2.719      -29.502        2.703       12.351       23.044       15.481      152.541      531.009      239.646        0.090        0.046       29.627        6.169        0.043      344.523       21.402      864.268
08/02/2014  08:06:00      -20.536       -8.428       13.612       32.232       18.649       19.269     1038.895      347.772      371.307        0.122        0.088       22.198       20.363        0.842      344.883       22.017      864.287
08/02/2014  08:07:00      -28.476      -24.964        2.018       13.177       19.936        9.417      173.638      397.441       88.675        0.105        0.033       37.869        6.357        0.028      344.305       21.028      864.290
08/02/2014  08:08:00      -54.995      -29.689        2.688       20.049       20.396       14.357      401.954      416.001      206.113        0.247        0.051       62.497        7.972        0.016      344.347       21.101      864.290
08/02/2014  08:09:00      -32.469      -18.371        9.873       33.814       17.434       14.030     1143.396      303.959      196.842        0.157        0.082       37.306       17.390        0.217      344.655       21.628      864.282
08/02/2014  08:10:00        5.183       -6.097       20.119       11.905       13.861       14.786      141.737      192.130      218.628        0.051        0.028        8.003        9.623        1.446      345.127       22.436      864.269
08/02/2014  08:11:00      -55.780      -73.833       -0.217       28.774       40.767       18.879      827.953     1661.935      356.433        0.570        0.142       92.535       16.790        0.033      344.417       21.221      864.258
08/02/2014  08:12:00      -76.971      -50.406        0.021       21.328       33.609       18.816      454.870     1129.596      354.049        0.520        0.097       92.007       18.198        0.039      344.365       21.132      864.243
08/02/2014  08:13:00      -44.460      -44.693        5.409       23.098       18.950       12.173      533.503      359.119      148.188        0.252        0.052       63.040        7.043        0.012      344.441       21.260      864.231
08/02/2014  08:14:00      -35.552      -42.912       -0.152       27.884       32.512       23.404      777.535     1057.032      547.732        0.274        0.119       55.726       24.211        0.189      344.701       21.706      864.222
08/02/2014  08:15:00      -16.503      -20.153       10.383       18.541       16.048       16.352      343.780      257.527      267.381        0.083        0.043       26.048       11.823        0.206      344.958       22.149      864.222
08/02/2014  08:16:00      -45.350        0.477        4.853       21.417       19.228       19.149      458.676      369.721      366.680        0.164        0.060       45.352       11.761        0.067      344.660       21.638      864.218
08/02/2014  08:17:00      -22.245       -6.781       13.486       23.451       19.247       21.729      549.966      370.443      472.137        0.106        0.070       23.256       16.236        0.487      345.334       22.793      864.216
08/02/2014  08:18:00      -39.686       -4.912        9.173       36.134       25.724       20.608     1305.636      661.703      424.679        0.204        0.120       39.989       22.205        0.308      345.088       22.371      864.214
08/02/2014  08:19:00      -30.273      -30.289        7.272       36.581       25.202       28.135     1338.137      635.159      791.553        0.233        0.138       42.824       28.090        0.430      345.150       22.478      864.210
08/02/2014  08:20:00      -25.209        2.864       11.000       25.968       17.118       20.135      674.349      293.036      405.409        0.107        0.069       25.371       17.195        0.459      345.466       23.019      864.220
08/02/2014  08:21:00      -83.784      -34.191       -5.201       39.720       19.138       17.133     1577.693      366.250      293.529        0.523        0.112       90.492       11.606        0.016      344.625       21.578      864.225
08/02/2014  08:22:00      -44.209      -14.888        5.976       30.389       20.471       18.530      923.467      419.045      343.369        0.195        0.084       46.649       19.458        0.174      344.826       21.922      864.231
08/02/2014  08:23:00      -43.366      -25.008        5.523       27.299       30.955       17.458      745.213      958.221      304.789        0.227        0.100       50.060       17.953        0.129      344.784       21.849      864.246
08/02/2014  08:24:00      -54.744      -66.631       -0.826       18.600       37.791       18.681      345.964     1428.134      348.971        0.478        0.106       86.236       17.642        0.042      344.557       21.460      864.254
08/02/2014  08:25:00      -80.114      -30.372       -6.183       27.183       27.160       17.921      738.892      737.666      321.169        0.459        0.090       85.678       16.782        0.038      344.585       21.509      864.256
08/02/2014  08:26:00      -40.067       -4.817       10.733       33.877       34.365       24.566     1147.658     1180.969      603.505        0.234        0.147       40.356       23.551        0.341      345.106       22.401      864.259
08/02/2014  08:27:00      -14.766        3.282       20.546       39.803       22.694       23.478     1584.266      514.997      551.217        0.165        0.133       15.126       26.396        3.045      345.532       23.130      864.258
08/02/2014  08:28:00      -44.100       -7.747        1.568       22.212       28.890       13.995      493.354      834.613      195.861        0.177        0.076       44.775        9.647        0.046      344.853       21.967      864.261
08/02/2014  08:29:00       -7.733       -2.348       18.466       18.600       13.717       15.749      345.945      188.163      248.041        0.059        0.039        8.081       13.449        2.770      345.640       23.315      864.277
08/02/2014  08:30:00      -34.842        8.531        1.338       25.418        9.694       19.923      646.067       93.967      396.936        0.121        0.057       35.871       18.688        0.271      345.391       22.891      864.280
08/02/2014  08:31:00      -23.358       -0.009       -7.128       12.244       11.786       18.254      149.907      138.920      333.200        0.061        0.031       23.358        8.344        0.128      345.096       22.383      864.285
08/02/2014  08:32:00      -14.951        5.202       19.587       14.092       19.086       19.273      198.592      364.264      371.442        0.078        0.047       15.830       13.422        0.719      345.600       23.247      864.292
08/02/2014  08:33:00       -8.525      -12.288       36.821       13.207       26.550       14.579      174.417      704.899      212.534        0.134        0.055       14.955       11.818        0.624      345.976       23.894      864.292
08/02/2014  08:34:00      -10.104       11.214       43.293       19.138       33.409       22.633      366.281     1116.153      512.251        0.205        0.100       15.094       21.243        1.981      346.020       23.968      864.292
08/02/2014  08:35:00      -28.851       -4.667       11.065       22.507       20.828       21.744      506.587      433.793      472.821        0.119        0.071       29.226       16.613        0.323      345.521       23.113      864.301
08/02/2014  08:36:00      -19.077        5.213       22.834       17.439       20.223       20.799      304.114      408.968      432.608        0.103        0.057       19.777       14.995        0.575      345.944       23.838      864.303
08/02/2014  08:37:00      -32.513       -3.725       15.430       31.293       33.113       19.770      979.238     1096.484      390.855        0.189        0.123       32.725       21.183        0.419      345.311       22.751      864.298
08/02/2014  08:38:00      -61.359      -37.483       -3.242       19.669       31.075       16.077      386.879      965.654      258.476        0.340        0.081       71.902       10.014        0.019      345.008       22.232      864.307
08/02/2014  08:39:00      -54.916      -14.694       13.842       41.250       38.287       23.251     1701.588     1465.888      540.626        0.356        0.185       56.848       28.270        0.247      345.608       23.262      864.314
08/02/2014  08:40:00      -57.314      -36.332        6.424       33.559       29.741       19.217     1126.227      884.551      369.275        0.351        0.119       67.860       15.597        0.053      345.296       22.727      864.319
08/02/2014  08:41:00      -34.089      -31.145       11.864       29.176       37.077       23.031      851.225     1374.718      530.443        0.251        0.138       46.174       21.063        0.208      345.281       22.699      864.314
08/02/2014  08:42:00      -66.108      -28.798        0.884       29.135       30.064       14.689      848.833      903.821      215.753        0.358        0.098       72.108       14.776        0.042      345.101       22.391      864.315
08/02/2014  08:43:00      -16.139       -8.083       15.654       34.528       19.343       22.688     1192.199      374.168      514.730        0.133        0.104       18.050       24.511        1.844      345.790       23.573      864.307
08/02/2014  08:44:00      -25.508      -27.425       13.228       43.272       26.425       21.812     1872.460      698.256      475.751        0.231        0.152       37.454       26.158        0.488      345.762       23.526      864.316
08/02/2014  08:45:00      -26.195        4.196       15.869       27.646       20.184       25.841      764.324      407.405      667.739        0.140        0.092       26.529       21.290        0.644      346.155       24.201      864.316
08/02/2014  08:46:00       -9.600        9.481       36.447       25.497       30.480       22.246      650.090      929.048      494.906        0.179        0.104       13.492       18.576        1.896      346.120       24.139      864.315
08/02/2014  08:47:00        7.525       51.954       81.611       22.728       51.766       23.058      516.575     2679.733      531.655        0.657        0.186       52.496       29.180        0.309      346.050       24.020      864.318
08/02/2014  08:48:00       63.408       64.589       49.266       35.973       41.607       39.479     1294.070     1731.104     1558.588        0.760        0.229       90.511       39.112        0.187      345.295       22.723      864.323
08/02/2014  08:49:00       41.501       29.879       32.380       32.881       23.715       25.269     1081.190      562.380      638.517        0.297        0.114       51.138       20.900        0.167      345.573       23.201      864.320
08/02/2014  08:50:00       -1.012       32.423       40.483       25.596       35.727       28.121      655.161     1276.447      790.793        0.271        0.136       32.439       17.189        0.281      346.120       24.140      864.314
08/02/2014  08:51:00       -5.758        1.334       45.917       11.472       17.322       13.599      131.615      300.060      184.942        0.138        0.031        5.910        9.146        2.395      346.857       25.406      864.314
08/02/2014  08:52:00      -50.073      -17.142       17.251       36.617       25.073       30.100     1340.808      628.667      906.019        0.299        0.144       52.926       30.953        0.342      345.956       23.858      864.305
08/02/2014  08:53:00      -43.699      -21.078       -6.924       13.421       24.826       13.904      180.113      616.306      193.320        0.170        0.049       48.517        6.023        0.015      345.529       23.125      864.315
08/02/2014  08:54:00      -43.197      -81.063        0.211       18.004       26.249       15.046      324.141      689.034      226.372        0.484        0.062       91.854        8.585        0.009      345.352       22.821      864.316
08/02/2014  08:55:00      -24.558      -28.463        4.598       19.643       22.306       17.145      385.856      497.541      293.963        0.131        0.059       37.593        8.200        0.048      345.666       23.360      864.310
08/02/2014  08:56:00      -58.561      -66.813       -2.623       31.981       32.148       22.680     1022.806     1033.489      514.392        0.524        0.129       88.845       16.954        0.036      345.534       23.132      864.319
08/02/2014  08:57:00      -76.100      -34.426       17.950       77.077       46.941       31.685     5940.925     2203.450     1003.924        0.822        0.457       83.524       39.305        0.221      345.843       23.664      864.324
08/02/2014  08:58:00      -84.151      -56.353        1.999       61.882       40.641       28.169     3829.361     1651.664      793.480        0.827        0.314      101.277       34.015        0.113      345.754       23.511      864.323
08/02/2014  08:59:00     -122.385      -47.051        0.048       42.502       32.874       24.127     1806.443     1080.732      582.123        1.033        0.173      131.118       23.764        0.033      345.444       22.979      864.331
08/02/2014  09:00:00      -46.000      -58.087        2.148       39.657       27.099       18.850     1572.645      734.341      355.320        0.408        0.133       74.095        8.309        0.013      345.495       23.066      864.330
08/02/2014  09:01:00      -91.950      -75.234       -3.931       37.252       46.748       19.281     1387.747     2185.418      371.768        0.904        0.197      118.806       18.045        0.023      345.492       23.059      864.324
08/02/2014  09:02:00     -110.782     -104.319        0.064       47.572       42.646       29.468     2263.050     1818.690      868.349        1.405        0.248      152.168       30.539        0.040      345.534       23.133      864.317
08/02/2014  09:03:00     -127.033      -40.064       -1.102       33.843       36.535       22.828     1145.343     1334.782      521.124        1.037        0.150      133.201       18.498        0.019      345.574       23.203      864.302
08/02/2014  09:04:00     -109.855      -23.945       -2.884       24.862       29.947       19.765      618.113      896.801      390.658        0.728        0.095      112.434       16.556        0.022      345.664       23.354      864.287
08/02/2014  09:05:00      -36.145       -5.961        8.116       34.178       21.777       18.516     1168.162      474.246      342.853        0.170        0.099       36.633       15.668        0.183      346.160       24.208      864.268
08/02/2014  09:06:00      -51.235      -36.374        5.126       41.371       31.074       17.914     1711.567      965.580      320.925        0.349        0.150       62.834       16.246        0.067      345.913       23.785      864.257
08/02/2014  09:07:00     -137.892      -46.498       -0.435       43.815       44.307       31.464     1919.716     1963.117      989.987        1.302        0.244      145.521       31.174        0.046      345.810       23.604      864.242
08/02/2014  09:08:00      -72.553      -43.612        1.062       47.580       50.322       23.517     2263.851     2532.297      553.039        0.626        0.267       84.652       19.948        0.056      346.007       23.946      864.233
08/02/2014  09:09:00      -48.834      -98.567        6.579       37.042       42.015       31.121     1372.099     1765.248      968.505        0.812        0.205      110.001       22.096        0.040      345.853       23.682      864.237
08/02/2014  09:10:00      -47.283     -135.196       -2.035       54.914       62.706       26.474     3015.568     3932.073      700.866        1.408        0.382      143.226       27.920        0.038      345.883       23.732      864.230
08/02/2014  09:11:00     -127.194     -110.372      -12.122       40.589       56.188       27.532     1647.462     3157.084      757.987        1.703        0.278      168.405       20.789        0.015      345.879       23.725      864.244
08/02/2014  09:12:00     -107.380       10.912       -0.499       54.167       43.493       32.862     2934.070     1891.649     1079.892        0.878        0.295      107.933       23.505        0.047      346.001       23.933      864.240
08/02/2014  09:13:00      -98.986      -32.718       -5.454       36.901       51.667       23.489     1361.718     2669.430      551.717        0.774        0.229      104.253       13.802        0.018      345.871       23.710      864.237
08/02/2014  09:14:00      -59.772     -132.915        2.312       26.528       42.149       19.127      703.713     1776.577      365.828        1.204        0.142      145.736       11.590        0.006      345.880       23.728      864.237
08/02/2014  09:15:00      -49.270     -109.855       -6.251       28.629       31.853       19.997      819.627     1014.628      399.891        0.838        0.112      120.397       18.745        0.024      345.952       23.850      864.243
08/02/2014  09:16:00      -98.064      -83.040       -4.126       46.751       38.785       26.526     2185.659     1504.270      703.650        1.046        0.220      128.500       24.798        0.037      346.030       23.985      864.258
08/02/2014  09:17:00      -59.626      -78.157        4.527       36.959       38.465       25.443     1366.003     1479.557      647.347        0.659        0.175       98.304       22.656        0.053      346.040       24.001      864.263
08/02/2014  09:18:00     -121.614      -83.922       -0.770       44.011       34.983       26.535     1936.941     1223.822      704.087        1.285        0.193      147.760       23.393        0.025      346.041       24.003      864.259
08/02/2014  09:19:00      -22.589      -13.843       20.803       38.085       29.096       28.509     1450.479      846.558      812.777        0.212        0.155       26.493       26.556        1.005      346.888       25.462      864.239
08/02/2014  09:20:00      -16.629       -1.598        9.033       25.063       25.775       20.719      628.169      664.344      429.280        0.104        0.086       16.706       17.059        1.043      346.938       25.546      864.232
08/02/2014  09:21:00       -0.227       23.132        9.931       34.260       26.194       26.836     1173.731      686.110      720.163        0.161        0.129       23.133       19.365        0.701      346.569       24.911      864.217
08/02/2014  09:22:00       -5.937       32.648       26.212       34.915       26.888       25.984     1219.078      722.962      675.165        0.220        0.131       33.183       24.174        0.531      346.819       25.340      864.208
08/02/2014  09:23:00       -4.141       45.478       19.609       23.934       29.373       24.966      572.859      862.747      623.303        0.226        0.103       45.666       19.878        0.189      346.930       25.533      864.198
08/02/2014  09:24:00      -23.072      -18.820        4.785       22.996       35.866       23.084      528.828     1286.383      532.886        0.163        0.117       29.775        7.758        0.068      346.878       25.443      864.192
08/02/2014  09:25:00        5.978       30.983       51.079       29.492       41.465       35.900      869.764     1719.374     1288.784        0.374        0.194       31.554       24.047        0.581      347.285       26.144      864.185
08/02/2014  09:26:00       -1.498       33.579       72.701       21.972       39.098       19.540      482.750     1528.646      381.819        0.440        0.120       33.612       17.150        0.260      347.010       25.671      864.180
08/02/2014  09:27:00        1.395      -44.578       36.058       29.484       65.530       41.699      869.331     4294.141     1738.804        0.509        0.345       44.600       34.191        0.588      347.002       25.656      864.181
08/02/2014  09:28:00       -1.231       10.566       41.808       29.151       43.720       33.383      849.784     1911.419     1114.428        0.287        0.194       10.637       26.804        6.349      346.999       25.653      864.175
08/02/2014  09:29:00        3.630        5.427       40.638       16.776       47.443       23.412      281.447     2250.861      548.143        0.239        0.154        6.529       28.077       18.495      346.971       25.603      864.167
08/02/2014  09:30:00       34.261       31.968       18.077       30.626       69.936       40.698      937.934     4891.023     1656.294        0.500        0.374       46.859       30.743        0.430      346.613       24.986      864.153
08/02/2014  09:31:00       30.263       58.357       12.328       23.475       22.656       22.785      551.089      513.308      519.149        0.303        0.079       65.737       14.499        0.049      346.548       24.875      864.145
08/02/2014  09:32:00       -0.221       38.958       20.542       31.701       27.508       19.082     1004.929      756.699      364.137        0.203        0.106       38.958       15.219        0.153      346.936       25.542      864.131
08/02/2014  09:33:00       -7.389       18.812       35.127       23.663       28.436       20.675      559.936      808.625      427.438        0.172        0.090       20.211       12.197        0.364      347.428       26.389      864.136
08/02/2014  09:34:00        5.097       16.251       29.644       22.459       21.363       18.618      504.400      456.390      346.631        0.124        0.065       17.032       11.760        0.477      347.489       26.496      864.128
08/02/2014  09:35:00      -47.219      -10.578        8.027       21.320       20.942       15.634      454.528      438.555      244.415        0.177        0.057       48.389       14.917        0.095      346.857       25.408      864.122
08/02/2014  09:36:00      -44.160      -65.470        2.166       25.347       33.336       20.555      642.488     1111.303      422.511        0.421        0.109       78.971       17.954        0.052      346.483       24.763      864.119
08/02/2014  09:37:00      -80.793      -50.603       -2.060       61.926       28.769       26.807     3834.848      827.683      718.596        0.724        0.269       95.331       26.625        0.078      346.577       24.924      864.119
08/02/2014  09:38:00     -129.272       -8.376       -2.795       60.690       29.506       21.704     3683.316      870.580      471.080        1.091        0.251      129.543       28.153        0.047      346.496       24.785      864.107
08/02/2014  09:39:00      -56.391      -29.372        6.247       25.680       26.460       17.113      659.446      700.108      292.864        0.287        0.083       63.582       10.599        0.028      346.616       24.992      864.115
08/02/2014  09:40:00      -82.347      -17.942        2.254       29.432       26.962       16.016      866.245      726.934      256.507        0.448        0.092       84.279       15.647        0.034      346.522       24.832      864.098
08/02/2014  09:41:00      -13.106      -36.510        2.347       28.563       16.304       20.567      815.821      265.824      423.013        0.151        0.075       38.791       20.439        0.278      346.615       24.989      864.096
08/02/2014  09:42:00       -0.334      -36.339       -8.977       24.345       31.848       17.849      592.679     1014.301      318.602        0.166        0.096       36.341       12.872        0.125      346.820       25.343      864.085
08/02/2014  09:43:00       20.154       16.982       45.803       32.143       62.057       44.526     1033.181     3851.048     1982.553        0.483        0.343       26.354       42.321        2.579      347.614       26.711      864.077
08/02/2014  09:44:00       30.420       37.472       87.488       40.929       31.684       22.424     1675.205     1003.859      502.841        0.658        0.159       48.265       21.168        0.192      347.228       26.045      864.066
08/02/2014  09:45:00       -4.343      -27.949       18.975       48.820       66.946       39.330     2383.399     4481.779     1546.870        0.478        0.421       28.284       38.181        1.822      347.034       25.710      864.066
08/02/2014  09:46:00      -60.559      -47.005      -19.334       21.701       36.471       18.161      470.931     1330.167      329.809        0.419        0.107       76.661       20.314        0.070      346.708       25.150      864.048
08/02/2014  09:47:00      -71.756      -34.026       -9.351       23.455       16.465       14.815      550.116      271.097      219.470        0.372        0.052       79.415       11.927        0.023      346.716       25.163      864.040
08/02/2014  09:48:00      -73.427        1.153      -11.527       12.366       19.133        9.087      152.917      366.053       82.576        0.306        0.030       73.436        8.769        0.014      346.661       25.067      864.027
08/02/2014  09:49:00      -56.405        3.707       -6.054       11.502       10.600       10.111      132.303      112.359      102.239        0.179        0.017       56.527        6.489        0.013      346.689       25.118      864.008
08/02/2014  09:50:00      -76.307      -10.434      -16.087       26.171       16.821       15.607      684.939      282.961      243.572        0.370        0.061       77.017       16.279        0.045      346.735       25.197      864.002
08/02/2014  09:51:00      -90.838      -34.164       -9.755       28.639       21.562       12.268      820.213      464.915      150.511        0.547        0.072       97.050       15.370        0.025      346.701       25.137      863.996
08/02/2014  09:52:00      -84.253      -25.357      -13.822       34.057       15.358       15.931     1159.890      235.873      253.794        0.479        0.082       87.986       15.936        0.033      346.836       25.371      863.977
08/02/2014  09:53:00      -68.241        3.465       -5.229       26.084       20.399       11.186      680.354      416.120      125.122        0.296        0.061       68.329       12.378        0.033      346.815       25.333      863.969
08/02/2014  09:54:00      -54.478      -12.377      -11.442       34.087       27.058       15.917     1161.938      732.137      253.346        0.270        0.107       55.866        6.629        0.014      346.850       25.394      863.949
08/02/2014  09:55:00      -43.377       -3.898       -0.584       18.422       18.245       13.596      339.353      332.883      184.851        0.138        0.043       43.551       10.829        0.062      346.931       25.534      863.947
08/02/2014  09:56:00      -36.827       11.135       -0.175       25.520       15.392       13.371      651.282      236.901      178.771        0.127        0.053       38.474        8.628        0.050      347.041       25.724      863.935
08/02/2014  09:57:00       20.861       20.846       38.024       17.004       25.839       16.734      289.135      667.642      280.018        0.178        0.062       29.491        7.006        0.056      347.856       27.128      863.937
08/02/2014  09:58:00       15.537       51.880       28.697       32.325       18.998       24.182     1044.917      360.917      584.792        0.287        0.100       54.156       18.269        0.114      347.396       26.335      863.926
08/02/2014  09:59:00       36.261       42.423       54.623       32.228       28.725       17.670     1038.628      825.149      312.240        0.414        0.109       55.809       12.562        0.051      347.451       26.429      863.931
08/02/2014  10:00:00       -2.368       -8.687       44.137       17.448       29.536       18.759      304.418      872.360      351.894        0.178        0.076        9.004       12.034        1.786      347.714       26.883      863.925
08/02/2014  10:01:00        2.628       -8.873       23.074       20.162       23.473       20.011      406.503      550.966      400.428        0.099        0.068        9.254       15.529        2.816      347.980       27.343      863.922
08/02/2014  10:02:00       10.933       -1.372       22.862       45.020       47.974       32.430     2026.818     2301.488     1051.681        0.301        0.269       11.019       30.758        7.791      347.755       26.955      863.916
08/02/2014  10:03:00      -22.915      -30.412       46.717       29.032       51.803       29.399      842.879     2683.529      864.322        0.401        0.220       38.079       31.001        0.663      347.991       27.362      863.907
08/02/2014  10:04:00        6.799       32.008       53.858       23.706       23.839       21.454      561.987      568.308      460.256        0.278        0.080       32.722       16.473        0.253      347.739       26.925      863.911
08/02/2014  10:05:00      -16.624       -0.092       13.772       19.987       23.636       23.871      399.472      558.661      569.839        0.100        0.076       16.625       19.090        1.319      348.014       27.402      863.890
08/02/2014  10:06:00      -38.159      -13.128        8.375       21.934       25.592       16.729      481.107      654.941      279.873        0.156        0.071       40.354       13.308        0.109      347.567       26.629      863.894
08/02/2014  10:07:00       -8.503        1.907       32.954       27.188       48.258       29.823      739.198     2328.836      889.389        0.256        0.198        8.714       27.778       10.162      348.020       27.413      863.891
08/02/2014  10:08:00       -8.346       51.866       78.509       19.431       33.801       18.473      377.566     1142.495      341.263        0.539        0.093       52.533       18.081        0.118      348.244       27.800      863.903
08/02/2014  10:09:00       -0.426       46.066       58.409       14.966       28.360       15.343      223.995      804.317      235.418        0.340        0.063       46.068       11.965        0.067      347.818       27.062      863.914
08/02/2014  10:10:00       -4.712       46.259       77.020       19.430       46.343       21.180      377.530     2147.700      448.576        0.553        0.149       46.498       25.038        0.290      348.146       27.631      863.925
08/02/2014  10:11:00        6.590       28.707       62.959       24.895       42.682       25.077      619.751     1821.717      628.852        0.395        0.154       29.453       26.609        0.816      348.076       27.508      863.926
08/02/2014  10:12:00        9.624        3.445       36.981       24.018       51.884       33.051      576.851     2691.957     1092.397        0.292        0.218       10.222       35.291       11.921      348.210       27.741      863.927
08/02/2014  10:13:00       27.290       56.103       50.139       43.058       25.629       33.332     1854.026      656.844     1111.022        0.501        0.181       62.388       32.157        0.266      348.172       27.675      863.934
08/02/2014  10:14:00       29.598       62.211       42.747       29.263       25.662       29.034      856.313      658.518      843.002        0.447        0.118       68.893       22.051        0.102      347.749       26.944      863.928
08/02/2014  10:15:00       59.634       85.405       55.189       43.910       35.673       43.779     1928.128     1272.531     1916.558        0.951        0.256      104.164       39.176        0.141      347.627       26.733      863.919
08/02/2014  10:16:00       93.303       85.454       14.054       25.001       26.905       25.834      625.029      723.882      667.420        0.911        0.101      126.522       16.456        0.017      347.428       26.390      863.902
08/02/2014  10:17:00       65.067       86.712        6.526       32.269       22.292       24.794     1041.269      496.948      614.738        0.697        0.108      108.409        9.220        0.007      347.479       26.478      863.886
08/02/2014  10:18:00       61.590       71.044       54.665       37.296       40.963       28.801     1390.984     1677.973      829.510        0.786        0.195       94.024        7.578        0.006      347.828       27.081      863.869
08/02/2014  10:19:00       88.460       77.700       46.965       29.393       24.833       31.932      863.931      616.673     1019.638        0.928        0.125      117.740       18.592        0.025      347.415       26.368      863.856
08/02/2014  10:20:00       84.845       48.429       11.471       42.164       30.036       37.388     1777.772      902.170     1397.885        0.688        0.204       97.694       27.519        0.079      347.430       26.393      863.844
08/02/2014  10:21:00       26.350       15.568       -9.990       33.046       34.299       23.286     1092.058     1176.392      542.246        0.192        0.141       30.605       22.824        0.556      347.617       26.716      863.834
08/02/2014  10:22:00        1.779       44.789       -3.843       26.450       25.603       20.529      699.578      655.494      421.451        0.190        0.089       44.825       17.038        0.144      348.030       27.430      863.825
08/02/2014  10:23:00       -7.460       23.167        7.781       15.920       29.625       19.848      253.447      877.666      393.961        0.109        0.076       24.339       17.439        0.513      348.442       28.143      863.831
08/02/2014  10:24:00      -11.830       34.214       28.180       15.016       33.948       25.280      225.491     1152.499      639.067        0.206        0.101       36.201       17.768        0.241      348.918       28.967      863.826
08/02/2014  10:25:00       -7.584       45.129       21.871       28.230       28.375       26.900      796.907      805.168      723.610        0.245        0.116       45.762       17.098        0.140      348.728       28.636      863.828
08/02/2014  10:26:00        5.378       23.604       18.591       15.197       20.165       24.008      230.957      406.633      576.379        0.107        0.061       24.209       15.030        0.385      348.678       28.549      863.827
08/02/2014  10:27:00      -13.653       19.566       29.592       17.223       21.793       16.439      296.645      474.928      270.243        0.124        0.052       23.859       10.321        0.187      348.893       28.923      863.832
08/02/2014  10:28:00      -59.741      -42.349        2.378       41.622       56.273       27.725     1732.420     3166.601      768.680        0.552        0.283       73.229       23.335        0.102      347.925       27.248      863.831
08/02/2014  10:29:00     -141.867      -93.000      -12.475       41.224       46.592       32.740     1699.455     2170.852     1071.892        1.694        0.247      169.632       29.688        0.031      347.559       26.615      863.830
08/02/2014  10:30:00     -103.289      -84.934       -2.872       29.718       54.132       22.641      883.187     2930.299      512.623        1.111        0.216      133.725       15.195        0.013      347.533       26.570      863.809
08/02/2014  10:31:00      -71.946     -114.467       -1.607       36.498       41.783       23.634     1332.096     1745.789      558.578        1.096        0.182      135.199       18.282        0.018      347.581       26.653      863.804
08/02/2014  10:32:00      -68.427      -96.210       -6.424       51.261       49.585       33.257     2627.738     2458.670     1106.032        1.008        0.310      118.062       26.261        0.049      347.612       26.708      863.790
08/02/2014  10:33:00      -86.808      -79.523       -2.323       49.574       40.377       24.254     2457.601     1630.279      588.267        0.927        0.234      117.726       23.286        0.039      347.698       26.856      863.785
08/02/2014  10:34:00      -89.916      -32.618        5.458       39.928       53.551       22.009     1594.226     2867.755      484.376        0.706        0.247       95.650       22.972        0.058      347.734       26.919      863.774
08/02/2014  10:35:00       -5.119      -69.364        0.960       28.079       36.128       21.249      788.418     1305.198      451.505        0.369        0.127       69.553       12.605        0.033      347.819       27.065      863.763
08/02/2014  10:36:00      -12.631      -86.619      -10.390       13.956       35.646       12.823      194.760     1270.630      164.438        0.470        0.081       87.536       10.811        0.015      347.537       26.581      863.761
08/02/2014  10:37:00      -15.326        0.440       13.786       16.191       18.352       22.614      262.162      336.811      511.376        0.077        0.056       15.332       11.100        0.524      348.231       27.779      863.739
08/02/2014  10:38:00      -64.619      -17.602      -13.695       19.383       24.491       14.150      375.720      599.814      200.224        0.292        0.059       66.973        6.771        0.010      347.866       27.146      863.732
08/02/2014  10:39:00      -50.315      -13.762       -8.303       40.393       22.251       21.980     1631.599      495.127      483.120        0.270        0.130       52.163       16.723        0.103      348.155       27.645      863.717
08/02/2014  10:40:00      -68.791      -66.492        6.620       56.764       51.895       35.470     3222.162     2693.099     1258.094        0.818        0.359       95.673       25.420        0.071      348.047       27.458      863.712
08/02/2014  10:41:00      -66.691      -48.937        1.135       38.326       29.853       22.755     1468.871      891.206      517.790        0.486        0.144       82.719       20.505        0.061      347.946       27.284      863.709
08/02/2014  10:42:00      -41.305      -42.561        4.597       31.132       32.559       20.311      969.227     1060.088      412.525        0.299        0.122       59.309       15.492        0.068      347.984       27.350      863.695
08/02/2014  10:43:00      -47.435      -17.870        2.394       22.652       19.246       15.104      513.114      370.396      228.138        0.184        0.056       50.690       13.874        0.075      348.054       27.471      863.695
08/02/2014  10:44:00      -30.267      -41.026        6.371       26.295       47.157       26.146      691.424     2223.746      683.602        0.312        0.180       50.982       21.945        0.185      348.280       27.861      863.681
08/02/2014  10:45:00      -83.476      -46.456        7.316       56.184       51.136       24.728     3156.610     2614.863      611.493        0.778        0.319       95.532       28.592        0.090      348.024       27.420      863.676
08/02/2014  10:46:00      -75.682      -24.728        9.329       45.611       28.868       18.222     2080.363      833.333      332.039        0.484        0.162       79.619       15.860        0.040      348.055       27.472      863.669
08/02/2014  10:47:00      -56.575      -80.211        2.771       38.201       29.574       22.339     1459.308      874.606      499.028        0.624        0.142       98.155       13.379        0.019      347.988       27.356      863.665
08/02/2014  10:48:00      -66.324      -70.345        4.420       41.861       45.552       31.248     1752.356     2075.019      976.439        0.708        0.240       96.682       27.997        0.084      347.956       27.301      863.657
08/02/2014  10:49:00      -70.290      -53.223       -2.595       28.502       26.194       19.911      812.351      686.119      396.460        0.484        0.095       88.167       13.743        0.024      347.977       27.338      863.643
08/02/2014  10:50:00      -34.170       -1.448       -5.702       21.914       17.925       17.599      480.234      321.309      309.740        0.116        0.056       34.200       14.132        0.171      348.118       27.579      863.623
08/02/2014  10:51:00      -24.206      -24.656       -2.506       19.142       20.464       12.258      366.423      418.759      150.255        0.107        0.047       34.552        8.869        0.066      348.171       27.673      863.598
08/02/2014  10:52:00      -25.759       13.031       12.939       21.837       13.245       17.130      476.842      175.439      293.429        0.097        0.047       28.868       14.180        0.241      348.487       28.221      863.582
08/02/2014  10:53:00      -11.709       14.428       22.794       18.964       19.076       15.491      359.651      363.910      239.959        0.091        0.048       18.582        8.974        0.233      348.789       28.743      863.559
08/02/2014  10:54:00      -19.771      -18.295       31.319       23.540       22.641       16.861      554.136      512.608      284.294        0.153        0.068       26.937       13.126        0.237      348.513       28.264      863.552
08/02/2014  10:55:00      -19.481      -32.898       40.250       28.136       35.095       21.863      791.633     1231.640      478.011        0.279        0.125       38.233       11.494        0.090      348.444       28.145      863.548
08/02/2014  10:56:00        3.066      -40.000       16.039       30.909       26.629       26.997      955.391      709.107      728.838        0.213        0.120       40.117       21.182        0.279      348.491       28.226      863.542
08/02/2014  10:57:00       29.827      -63.432       -7.612       28.185       27.558       29.904      794.417      759.437      894.230        0.371        0.122       70.094       21.296        0.092      348.207       27.735      863.548
08/02/2014  10:58:00        9.081       20.731       42.038       19.037       24.522       20.496      362.400      601.322      420.089        0.183        0.069       22.632       16.801        0.551      348.795       28.753      863.549
08/02/2014  10:59:00       -9.026       10.792       13.039       29.065       13.656       25.061      844.797      186.477      628.039        0.101        0.083       14.069       16.542        1.382      348.961       29.039      863.541
08/02/2014  11:00:00      -13.721       24.176       60.368       20.866       30.847       22.339      435.391      951.542      499.022        0.315        0.094       27.798       23.268        0.701      349.322       29.667      863.546
08/02/2014  11:01:00       -4.576       32.614       83.010       32.228       41.763       27.108     1038.629     1744.166      734.839        0.575        0.176       32.933       26.140        0.630      349.053       29.199      863.561
08/02/2014  11:02:00        5.298       43.568        5.341       24.854       37.833       42.623      617.705     1431.345     1816.750        0.291        0.193       43.889       29.734        0.459      348.391       28.052      863.574
08/02/2014  11:03:00      -23.788       -5.596       -7.301       11.443       13.818        9.296      130.950      190.943       86.421        0.053        0.020       24.437        6.019        0.061      348.328       27.943      863.572
08/02/2014  11:04:00      -31.546       -2.865        3.671       19.562       18.170       15.280      382.673      330.164      233.477        0.098        0.047       31.676       10.775        0.116      348.764       28.700      863.563
08/02/2014  11:05:00      -54.649       16.364       -2.778       16.510       12.205       16.092      272.596      148.972      258.947        0.197        0.034       57.047        8.508        0.022      348.318       27.926      863.551
08/02/2014  11:06:00      -43.264       19.942      -11.417       35.995       25.521       15.192     1295.644      651.323      230.792        0.229        0.109       47.639       12.409        0.068      348.650       28.501      863.533
08/02/2014  11:07:00      -64.557       15.879       -6.958       21.421       16.165       12.078      458.858      261.308      145.871        0.267        0.043       66.481       10.334        0.024      348.279       27.861      863.522
08/02/2014  11:08:00      -18.483      -22.278       -4.363       15.493       17.295       12.884      240.024      299.110      166.005        0.078        0.035       28.947        4.027        0.019      348.701       28.590      863.503
08/02/2014  11:09:00      -27.734      -90.048       -0.962       19.997       28.749       13.675      399.871      826.502      187.001        0.515        0.071       94.222        9.628        0.010      348.295       27.887      863.476
08/02/2014  11:10:00        1.576      -17.250        3.998       24.417       21.715       18.901      596.198      471.520      357.250        0.087        0.071       17.322       15.282        0.778      349.081       29.247      863.449
08/02/2014  11:11:00        7.855      -14.316       19.157       30.407       31.392       35.285      924.558      985.459     1245.032        0.189        0.158       16.329       26.418        2.617      349.645       30.226      863.436
08/02/2014  11:12:00       -5.667       11.167       43.458       20.069       44.021       36.061      402.759     1937.806     1300.429        0.284        0.182       12.523       30.306        5.857      349.661       30.253      863.411
08/02/2014  11:13:00       -9.061       43.510       44.233       23.023       32.694       40.526      530.059     1068.917     1642.330        0.359        0.162       44.444       23.319        0.275      349.448       29.884      863.406
08/02/2014  11:14:00      -27.588       20.968        8.050       24.261       20.965       19.494      588.616      439.523      380.020        0.134        0.070       34.652        8.619        0.062      349.169       29.400      863.403
08/02/2014  11:15:00      -97.097        2.475       -9.085       42.382       37.155       26.291     1796.256     1380.503      691.223        0.669        0.193       97.128       21.007        0.047      348.689       28.568      863.394
08/02/2014  11:16:00      -99.314      -12.928       -4.927       44.633       28.953       22.631     1992.061      838.293      512.142        0.670        0.167      100.152       12.705        0.016      348.728       28.636      863.385
08/02/2014  11:17:00      -61.472      -44.131       14.524       60.073       49.776       29.335     3608.726     2477.625      860.534        0.644        0.347       75.673       34.861        0.212      349.183       29.425      863.379
08/02/2014  11:18:00      -37.587      -44.807        6.275       40.690       35.640       23.665     1655.652     1270.194      560.049        0.347        0.174       58.485       23.703        0.164      349.029       29.157      863.377
08/02/2014  11:19:00       25.415        8.374       22.815       23.014       22.467       27.989      529.641      504.752      783.360        0.153        0.091       26.759       18.239        0.465      349.883       30.639      863.379
08/02/2014  11:20:00       26.044       30.766       45.939       46.404       40.255       28.066     2153.291     1620.495      787.722        0.415        0.228       40.309       23.640        0.344      349.535       30.034      863.371
08/02/2014  11:21:00        2.146       23.734       32.219       32.263       22.387       22.740     1040.918      501.187      517.120        0.183        0.103       23.831       14.041        0.347      349.913       30.692      863.371
08/02/2014  11:22:00       29.544       34.059       25.319       40.836       29.394       31.024     1667.588      863.980      962.517        0.308        0.175       45.087       26.387        0.343      350.004       30.849      863.358
08/02/2014  11:23:00       24.543       41.839       12.804       25.960       36.371       27.997      673.898     1322.872      783.808        0.265        0.139       48.506       18.317        0.143      349.650       30.234      863.352
08/02/2014  11:24:00        8.371       26.905        9.823       20.643       22.682       23.874      426.135      514.477      569.963        0.120        0.076       28.178       16.224        0.332      349.571       30.097      863.341
08/02/2014  11:25:00       42.127       30.313        1.210       32.431       29.364       35.213     1051.776      862.249     1239.936        0.292        0.158       51.899       16.088        0.096      349.076       29.239      863.323
08/02/2014  11:26:00       39.817       70.497       -3.598       37.275       37.706       33.526     1389.422     1421.753     1123.964        0.525        0.197       80.964       27.379        0.114      349.247       29.536      863.314
08/02/2014  11:27:00       12.664       24.371       21.622       25.751       44.183       34.530      663.113     1952.101     1192.352        0.251        0.190       27.465       16.414        0.357      350.047       30.923      863.303
08/02/2014  11:28:00       53.831      -41.560       27.021       70.983       92.891       59.391     5038.653     8628.731     3527.234        1.127        0.860       68.008       73.616        1.172      349.649       30.231      863.293
08/02/2014  11:29:00       37.560      -19.123       56.746       75.540      109.363       71.309     5706.300    11960.304     5084.945        1.387        1.138       42.148       80.430        3.642      349.398       29.796      863.283
08/02/2014  11:30:00      143.730     -142.075      -51.826       78.964       85.273       54.742     6235.240     7271.563     2996.714        3.001        0.825      202.097       50.534        0.063      349.134       29.335      863.269
08/02/2014  11:31:00       47.585      -21.468       20.426       63.247       78.366       69.961     4000.169     6141.298     4894.551        0.909        0.752       52.203       59.451        1.297      349.728       30.369      863.274
08/02/2014  11:32:00       57.475      -83.720       -0.513       83.461       88.425       47.717     6965.753     7818.950     2276.891        1.368        0.853      101.550       60.391        0.354      349.372       29.752      863.278
08/02/2014  11:33:00      -13.967      -32.595       14.076       24.985       46.355       26.551      624.231     2148.787      704.971        0.247        0.174       35.462       23.802        0.450      349.871       30.617      863.271
08/02/2014  11:34:00      -12.919      -77.276       30.898       48.923       62.175       48.847     2393.462     3865.775     2385.989        0.787        0.432       78.348       30.409        0.151      349.553       30.066      863.262
08/02/2014  11:35:00        7.228      -82.907      -11.805       36.209       56.515       43.550     1311.083     3193.942     1896.626        0.673        0.320       83.222       41.496        0.249      349.341       29.698      863.266
08/02/2014  11:36:00        3.281      -36.041        7.570       37.455       41.076       27.060     1402.883     1687.239      732.233        0.259        0.191       36.190       14.141        0.153      349.685       30.295      863.253
08/02/2014  11:37:00      -37.282      -60.708       12.225       51.115       46.352       33.584     2612.792     2148.547     1127.907        0.556        0.294       71.242       32.657        0.210      349.471       29.925      863.251
08/02/2014  11:38:00      -10.026      -18.152       25.775       40.031       28.202       28.383     1602.487      795.349      805.614        0.215        0.160       20.737       18.618        0.806      349.793       30.482      863.235
08/02/2014  11:39:00      -82.478      -45.600        4.888       45.735       22.483       19.149     2091.681      505.463      366.670        0.593        0.148       94.244       22.278        0.056      349.205       29.463      863.227
08/02/2014  11:40:00     -128.264      -32.992       -4.548       28.272       34.233       27.671      799.299     1171.908      765.674        1.015        0.137      132.439       21.502        0.026      349.046       29.188      863.221
08/02/2014  11:41:00     -170.619       33.812       -6.143       38.863       31.064       21.059     1510.348      964.986      443.472        1.660        0.146      173.937       17.708        0.010      348.706       28.599      863.204
08/02/2014  11:42:00     -158.072      -62.955       -0.482       60.051       54.510       32.036     3606.147     2971.338     1026.330        1.828        0.380      170.147       19.980        0.014      348.956       29.029      863.186
08/02/2014  11:43:00     -153.945      -61.386      -19.419       34.749       30.119       20.587     1207.475      907.161      423.844        1.519        0.127      165.733       20.247        0.015      348.769       28.706      863.177
08/02/2014  11:44:00      -54.369      -47.707       14.696       43.673       49.967       27.625     1907.298     2496.749      763.148        0.531        0.258       72.332       22.973        0.101      349.126       29.326      863.164
08/02/2014  11:45:00      -57.097       -9.552       -3.744       42.688       37.865       25.094     1822.223     1433.795      629.700        0.362        0.194       57.890       12.748        0.048      349.037       29.171      863.163
08/02/2014  11:46:00        2.340      -42.802       28.004       26.075       25.610       22.686      679.910      655.893      514.652        0.224        0.093       42.866       16.166        0.142      349.368       29.746      863.167
08/02/2014  11:47:00        7.137       -1.423       29.810       39.103       51.174       23.527     1529.080     2618.759      553.512        0.282        0.235        7.277       16.749        5.297      349.603       30.154      863.151
08/02/2014  11:48:00       72.442      112.495       94.940       93.849       92.254       83.037     8807.640     8510.793     6895.169        2.556        1.211      133.801       74.093        0.307      349.352       29.714      863.135
08/02/2014  11:49:00      123.479      100.833      104.418       89.852       78.494       70.930     8073.355     6161.360     5031.117        2.779        0.963      159.419       67.822        0.181      349.101       29.280      863.109
08/02/2014  11:50:00       85.128       40.853       15.257       82.815       53.316       37.319     6858.303     2842.635     1392.673        1.012        0.555       94.423       27.489        0.085      349.368       29.743      863.107
08/02/2014  11:51:00       26.841       43.588       32.085       45.908       40.562       31.176     2107.580     1645.286      971.927        0.419        0.236       51.189       19.997        0.153      350.025       30.886      863.085
08/02/2014  11:52:00      182.427      145.345       64.431       73.036       65.429       67.119     5334.287     4280.938     4504.932        3.634        0.706      233.248       37.735        0.026      349.254       29.543      863.062
08/02/2014  11:53:00       55.850       59.119       63.169       76.348       42.289       34.439     5829.003     1788.396     1186.027        0.970        0.440       81.328       33.805        0.173      349.707       30.332      863.062
08/02/2014  11:54:00      107.624      -61.579       49.058      102.212      178.430       90.994    10447.283    31837.096     8279.976        3.416        2.528      123.996      124.773        1.013      349.572       30.097      863.059
08/02/2014  11:55:00       92.289      -42.008       39.579       86.714       99.833       56.953     7519.337     9966.598     3243.683        1.628        1.036      101.400       79.440        0.614      349.469       29.919      863.064
08/02/2014  11:56:00       40.446       16.033       74.808       38.724       42.932       31.287     1499.546     1843.157      978.895        0.590        0.216       43.508       16.481        0.143      349.999       30.841      863.057
08/02/2014  11:57:00      103.249       69.077       71.910       67.545       50.749       51.593     4562.322     2575.509     2661.859        1.520        0.490      124.226       36.265        0.085      349.367       29.744      863.042
08/02/2014  11:58:00      130.904       90.480       41.132       58.742       46.217       54.671     3450.641     2136.044     2988.955        1.779        0.429      159.130       40.188        0.064      349.251       29.541      863.022
08/02/2014  11:59:00       38.967       95.654       12.566       43.336       44.164       37.012     1877.982     1950.448     1369.877        0.801        0.260      103.287       24.049        0.054      349.467       29.917      863.010
08/02/2014  12:00:00     -107.219       -3.779      -25.892       29.826       25.725       21.571      889.607      661.760      465.320        0.710        0.101      107.285       16.197        0.023      349.034       29.166      862.994
08/02/2014  12:01:00      -53.035      -16.571       -1.813       38.612       27.343       26.067     1490.862      747.662      679.503        0.300        0.146       55.564       27.439        0.244      349.475       29.930      862.970
08/02/2014  12:02:00      100.963       72.472       26.576       64.775       69.104       37.947     4195.863     4775.384     1439.990        1.328        0.521      124.281       31.341        0.064      349.756       30.417      862.968
08/02/2014  12:03:00       49.445       88.122       -3.361       46.336       39.752       33.708     2147.005     1580.257     1136.258        0.754        0.243      101.046       25.006        0.061      349.426       29.845      862.944
08/02/2014  12:04:00      120.559       94.006        7.141       88.352       63.869       50.170     7806.098     4079.212     2516.997        1.891        0.720      152.878       29.204        0.036      349.306       29.636      862.941
08/02/2014  12:05:00       84.916       76.240       24.429       58.950       58.558       46.458     3475.155     3429.059     2158.347        1.134        0.453      114.119       30.755        0.073      349.445       29.878      862.928
08/02/2014  12:06:00       83.344       37.346       60.976       73.919       77.977       60.582     5463.947     6080.342     3670.181        1.363        0.761       91.329       49.191        0.290      349.581       30.112      862.908
08/02/2014  12:07:00      163.090      129.049      157.827      136.735      103.534       79.671    18696.454    10719.389     6347.460        5.196        1.788      207.971       85.775        0.170      349.358       29.725      862.892
08/02/2014  12:08:00      173.800      159.818      125.518      107.428       86.352       77.973    11540.699     7456.587     6079.822        4.829        1.254      236.111       61.058        0.067      349.258       29.550      862.890
08/02/2014  12:09:00      106.880       98.588       91.227      102.265       91.119       63.311    10458.192     8302.736     4008.282        2.611        1.138      145.406       42.493        0.085      349.405       29.806      862.890
08/02/2014  12:10:00       85.641       63.905       93.378      117.624       82.789       70.386    13835.410     6854.023     4954.144        2.289        1.282      106.856       75.209        0.495      349.564       30.083      862.876
08/02/2014  12:11:00      104.183       82.069       96.855       66.628       92.758       69.469     4439.242     8604.071     4825.994        2.242        0.893      132.625       53.629        0.164      349.504       29.979      862.860
08/02/2014  12:12:00       72.022       78.095      105.167       94.352       72.095       53.168     8902.294     5197.699     2826.841        1.963        0.846      106.236       60.601        0.325      349.490       29.956      862.861
08/02/2014  12:13:00       68.880       25.852       65.738       53.220       61.171       46.543     2832.411     3741.904     2166.282        0.924        0.437       73.571       28.342        0.148      349.715       30.346      862.863
08/02/2014  12:14:00       60.560     -159.781       -1.683       52.616       50.335       29.542     2768.496     2533.599      872.754        1.769        0.309      170.873       28.856        0.029      349.367       29.743      862.866
08/02/2014  12:15:00        7.938      -38.064       23.676       30.194       58.104       29.908      911.689     3376.111      894.459        0.363        0.259       38.883       36.084        0.861      349.836       30.558      862.864
08/02/2014  12:16:00       60.440      -18.015       18.833       39.237       59.600       35.242     1539.558     3552.131     1241.983        0.533        0.317       63.068       38.969        0.382      349.520       30.009      862.850
08/02/2014  12:17:00       34.857        1.117       31.656       32.278       42.785       25.923     1041.847     1830.538      672.007        0.288        0.177       34.875       18.659        0.286      349.879       30.632      862.844
08/02/2014  12:18:00       55.592       29.158       33.054       64.948       48.427       34.443     4218.192     2345.218     1186.314        0.639        0.387       62.775       34.635        0.304      349.895       30.659      862.827
08/02/2014  12:19:00       81.148       62.625        0.932       54.508       36.297       34.248     2971.093     1317.487     1172.957        0.798        0.273      102.503       12.956        0.016      349.630       30.199      862.822
08/02/2014  12:20:00       93.328       49.035       -4.546       40.526       43.021       26.441     1642.378     1850.809      699.116        0.766        0.210      105.425       15.412        0.021      349.307       29.639      862.810
08/02/2014  12:21:00       37.467       49.005       -3.340       40.941       26.229       35.629     1676.167      687.970     1269.434        0.372        0.182       61.687       20.019        0.105      349.800       30.493      862.799
08/02/2014  12:22:00      -12.127       31.906       12.204       69.141       50.008       33.684     4780.510     2500.803     1134.588        0.486        0.421       34.133       39.861        1.364      350.123       31.054      862.797
08/02/2014  12:23:00       25.754       70.468       -0.229       33.480       63.267       33.854     1120.934     4002.727     1146.103        0.595        0.313       75.027       33.949        0.205      349.980       30.807      862.799
08/02/2014  12:24:00       10.780       23.796       17.856       27.693       28.809       27.040      766.919      829.958      731.180        0.166        0.116       26.124       20.131        0.594      350.235       31.250      862.789
08/02/2014  12:25:00      -19.712       86.399       -3.594       21.462       41.802       30.860      460.626     1747.417      952.368        0.551        0.158       88.619       27.523        0.096      349.725       30.365      862.777
08/02/2014  12:26:00      -14.213       33.657        7.666       24.873       42.771       27.204      618.664     1829.341      740.035        0.229        0.159       36.535       21.423        0.344      350.356       31.461      862.758
08/02/2014  12:27:00       -1.960       17.656       30.587       19.376       34.011       16.783      375.428     1156.762      281.666        0.153        0.091       17.764       14.551        0.671      350.701       32.062      862.737
08/02/2014  12:28:00        6.368       43.652       37.874       34.957       28.906       28.156     1221.982      835.559      792.734        0.311        0.143       44.114       19.814        0.202      350.144       31.091      862.718
08/02/2014  12:29:00      -11.411        4.740        4.523       17.893       33.392       24.566      320.162     1115.039      603.488        0.111        0.102       12.357       17.150        1.926      350.540       31.781      862.707
08/02/2014  12:30:00      -39.275      112.965       -2.457       34.587       53.578       32.552     1196.252     2870.618     1059.634        0.972        0.256      119.598       31.140        0.068      350.033       30.900      862.697
08/02/2014  12:31:00     -117.861       52.961      -24.406       29.959       83.753       27.469      897.536     7014.509      754.573        1.298        0.433      129.214       27.321        0.045      349.460       29.906      862.684
08/02/2014  12:32:00      -65.247      -60.190       -5.615       52.624       39.282       25.881     2769.278     1543.039      669.843        0.645        0.249       88.769       22.350        0.063      349.516       30.002      862.653
08/02/2014  12:33:00      -22.018      -19.041       16.264       40.006       33.449       29.619     1600.514     1118.864      877.305        0.235        0.180       29.110       24.970        0.736      350.252       31.281      862.642
08/02/2014  12:34:00      -50.712        4.290        7.905       45.410       46.245       24.351     2062.030     2138.627      592.995        0.372        0.240       50.893       24.587        0.233      349.847       30.577      862.649
08/02/2014  12:35:00       66.933      -16.827       24.089       59.423       53.097       35.178     3531.138     2819.269     1237.479        0.646        0.379       69.016       27.722        0.161      350.089       30.997      862.632
08/02/2014  12:36:00       80.072       34.073       49.510       45.640       84.234       44.770     2082.966     7095.317     2004.386        1.060        0.559       87.020       48.480        0.310      349.975       30.799      862.619
08/02/2014  12:37:00       56.092       46.376       74.880       61.730       72.201       52.906     3810.619     5213.052     2799.059        1.136        0.591       72.781       48.632        0.446      350.117       31.044      862.590
08/02/2014  12:38:00       51.813       -7.361       56.601       83.541      111.524       58.590     6979.046    12437.636     3432.742        1.439        1.142       52.334       67.775        1.677      350.142       31.087      862.589
08/02/2014  12:39:00      104.481     -137.795        9.638       92.691      154.670       74.035     8591.714    23922.933     5481.142        3.399        1.900      172.927       96.783        0.313      350.200       31.188      862.563
08/02/2014  12:40:00      180.139     -190.700      -27.831       94.569      123.025       56.437     8943.290    15135.135     3185.162        4.842        1.363      262.329       73.020        0.077      349.740       30.386      862.557
08/02/2014  12:41:00       89.008     -120.663       12.385       44.571       60.196       30.876     1986.537     3623.570      953.353        1.460        0.328      149.940       29.954        0.040      349.639       30.211      862.572
08/02/2014  12:42:00      101.697       -8.334       10.774       86.181       75.188       46.763     7427.226     5653.184     2186.803        1.289        0.763      102.038       42.650        0.175      350.172       31.140      862.578
08/02/2014  12:43:00       70.109       65.592       33.155       79.035       56.037       49.617     6246.528     3140.159     2461.828        1.108        0.592       96.008       25.970        0.073      350.355       31.458      862.571
08/02/2014  12:44:00      243.950      168.488       14.016       75.473       66.066       52.974     5696.102     4364.773     2806.236        5.048        0.643      296.479       29.884        0.010      349.764       30.427      862.566
08/02/2014  12:45:00      161.084      105.536       21.272       81.311       60.270       44.943     6611.489     3632.520     2019.906        2.490        0.613      192.577       39.042        0.041      350.075       30.970      862.569
08/02/2014  12:46:00       54.072       48.979       12.774       66.575       51.132       42.349     4432.196     2614.439     1793.443        0.716        0.442       72.957       34.032        0.218      350.371       31.487      862.568
08/02/2014  12:47:00       90.037       82.215       -1.080       62.006       44.699       42.530     3844.726     1997.965     1808.772        1.126        0.383      121.926       22.460        0.034      350.070       30.963      862.567
08/02/2014  12:48:00      148.828       62.158       35.883       89.145       58.861       49.700     7946.869     3464.603     2470.071        2.059        0.694      161.287       44.539        0.076      350.123       31.055      862.570
08/02/2014  12:49:00       68.730       15.209       66.442       84.064      102.271       79.034     7066.768    10459.395     6246.304        1.657        1.189       70.393       75.515        1.151      350.125       31.058      862.556
08/02/2014  12:50:00      114.278       -0.722       64.341      108.414      105.005       78.010    11753.674    11025.971     6085.512        2.303        1.443      114.280       96.800        0.717      349.888       30.647      862.537
08/02/2014  12:51:00      101.554      -75.081       24.128       66.775      101.880       65.323     4458.953    10379.506     4267.088        1.782        0.955      126.295       67.831        0.288      350.214       31.212      862.540
08/02/2014  12:52:00       29.673       23.484       23.232       57.773       33.882       33.284     3337.668     1148.008     1107.816        0.378        0.280       37.841       23.214        0.376      350.521       31.747      862.542
08/02/2014  12:53:00       -7.916       31.361       37.121       37.102       38.781       25.084     1376.567     1503.957      629.218        0.297        0.175       32.344       22.937        0.503      350.587       31.863      862.528
08/02/2014  12:54:00      -59.514      -82.399        4.613       84.235       46.747       43.096     7095.489     2185.324     1857.235        1.074        0.557      101.644       43.906        0.187      350.380       31.502      862.519
08/02/2014  12:55:00     -168.075      -65.236      -18.768       52.635       52.815       26.673     2770.437     2789.475      711.435        1.956        0.314      180.291       27.544        0.023      349.720       30.355      862.497
08/02/2014  12:56:00     -139.941      -66.446       -5.008       62.421       53.873       32.532     3896.414     2902.254     1058.346        1.594        0.393      154.914       29.369        0.036      349.922       30.705      862.493
08/02/2014  12:57:00      -61.654      -49.012       21.515       85.888       54.194       34.315     7376.813     2937.028     1177.511        0.908        0.575       78.762       37.141        0.222      350.410       31.555      862.490
08/02/2014  12:58:00     -120.683      -42.836       -4.742       45.834       38.701       25.398     2100.740     1497.791      645.036        1.033        0.212      128.059       17.909        0.020      349.771       30.445      862.472
08/02/2014  12:59:00      -24.327      -25.588       14.604       43.735       39.583       30.811     1912.727     1566.817      949.337        0.294        0.221       35.307       30.408        0.742      350.566       31.825      862.470
08/02/2014  13:00:00      -46.374      -71.828        2.779       45.309       59.940       25.280     2052.924     3592.765      639.065        0.680        0.314       85.498       18.244        0.046      350.096       31.009      862.460
08/02/2014  13:01:00       38.614     -127.688       -3.444       83.559       91.751       46.478     6982.144     8418.176     2160.220        1.768        0.878      133.399       60.322        0.204      350.232       31.242      862.439
08/02/2014  13:02:00       37.440     -118.269      -25.043       59.603       49.928       38.540     3552.577     2492.776     1485.298        1.177        0.377      124.054       17.708        0.020      350.175       31.145      862.431
08/02/2014  13:03:00        9.531      -34.339        8.796       64.586       40.499       35.860     4171.386     1640.155     1285.964        0.422        0.355       35.637       20.908        0.344      350.334       31.423      862.410
08/02/2014  13:04:00       25.905     -107.176       -8.605       31.934       21.164       22.627     1019.799      447.900      512.001        0.711        0.099      110.263       14.446        0.017      349.925       30.710      862.399
08/02/2014  13:05:00       34.427      -68.448       -9.772       44.856       48.206       40.686     2012.105     2323.807     1655.318        0.598        0.300       76.618       31.198        0.166      350.558       31.811      862.390
08/02/2014  13:06:00      -95.180      -23.766       -4.955       29.398       57.737       34.781      864.237     3333.610     1209.724        0.753        0.270       98.102       26.657        0.074      350.399       31.534      862.382
08/02/2014  13:07:00      -52.763       10.225      -23.406       63.320       34.794       19.399     4009.414     1210.645      376.319        0.452        0.280       53.745       15.434        0.082      349.954       30.762      862.386
08/02/2014  13:08:00       42.500       25.694      -17.393       15.180       18.650       18.806      230.442      347.832      353.655        0.185        0.047       49.663        9.953        0.040      349.818       30.525      862.368
08/02/2014  13:09:00      -12.591       12.141        3.060       31.156       28.723       26.906      970.719      825.029      723.935        0.142        0.126       17.491       18.861        1.163      350.286       31.339      862.330
08/02/2014  13:10:00      -50.242      -46.934        1.072       59.734       43.972       24.889     3568.137     1933.529      619.438        0.542        0.306       68.753       15.449        0.050      350.109       31.029      862.318
08/02/2014  13:11:00     -147.002        4.373       -9.991       65.935       46.442       36.463     4347.457     2156.891     1329.547        1.478        0.392      147.067       32.115        0.048      350.084       30.987      862.306
08/02/2014  13:12:00     -176.768      -20.124      -16.857       44.610       38.309       22.953     1990.083     1467.561      526.855        1.796        0.199      177.909       17.446        0.010      349.802       30.497      862.289
08/02/2014  13:13:00     -173.017       16.550      -17.046       44.003       33.008       25.790     1936.293     1089.508      665.143        1.709        0.185      173.806       21.361        0.015      350.049       30.926      862.273
08/02/2014  13:14:00      -79.969      -43.887       -3.937       62.600       26.216       31.185     3918.700      687.287      972.496        0.696        0.279       91.220       29.646        0.106      350.198       31.187      862.255
08/02/2014  13:15:00      -70.527      -56.231       -0.819       63.413       49.139       31.583     4021.217     2414.655      997.491        0.778        0.372       90.200       32.263        0.128      350.318       31.395      862.246
08/02/2014  13:16:00      -70.978      -63.713       11.819       78.060       62.214       38.956     6093.426     3870.541     1517.600        1.036        0.574       95.379       36.548        0.147      350.604       31.891      862.231
08/02/2014  13:17:00     -101.830      -87.274       -1.677      108.274       56.474       38.547    11723.154     3189.281     1485.851        1.719        0.820      134.112       52.976        0.156      350.272       31.313      862.240
08/02/2014  13:18:00     -119.516       33.767       -4.674       72.628       49.284       26.743     5274.838     2428.934      715.175        1.193        0.421      124.195       20.487        0.027      350.075       30.970      862.222
08/02/2014  13:19:00     -135.478      -73.298       -4.740       89.626       52.095       44.659     8032.892     2713.917     1994.431        1.824        0.637      154.035       41.940        0.074      350.354       31.456      862.202
08/02/2014  13:20:00     -186.531      -54.581        1.877       65.917       68.579       35.059     4345.093     4703.133     1229.117        2.402        0.514      194.352       35.312        0.033      350.100       31.013      862.199
08/02/2014  13:21:00     -107.159      -83.291        6.193       69.584       69.617       43.334     4841.881     4846.570     1877.864        1.501        0.578      135.722       51.721        0.145      350.179       31.152      862.201
08/02/2014  13:22:00      -13.418      -97.621       -0.172       41.532       29.285       27.773     1724.910      857.583      771.366        0.653        0.168       98.538       12.058        0.015      349.909       30.684      862.205
08/02/2014  13:23:00      -68.805      -59.080       -0.297       54.362       65.496       30.281     2955.248     4289.719      916.945        0.819        0.408       90.689       21.765        0.058      350.100       31.015      862.180
08/02/2014  13:24:00      -75.473      -25.273       -4.692       63.444       62.419       28.080     4025.163     3896.171      788.486        0.753        0.435       79.592       29.746        0.140      350.414       31.562      862.163
08/02/2014  13:25:00     -122.449     -118.177        4.425       92.337       85.862       41.174     8526.080     7372.317     1695.279        2.328        0.880      170.176       51.177        0.090      350.216       31.215      862.144
08/02/2014  13:26:00     -137.313      -73.330       11.116       80.065       52.298       32.302     6410.413     2735.077     1043.401        1.727        0.509      155.667       37.951        0.059      350.414       31.560      862.132
08/02/2014  13:27:00     -163.408     -118.091       -2.672       92.013       56.453       44.391     8466.465     3186.909     1970.534        2.714        0.681      201.613       51.506        0.065      350.228       31.235      862.117
08/02/2014  13:28:00     -116.146      -95.536       16.004      111.690       76.779       45.990    12474.576     5895.033     2115.060        2.167        1.024      150.389       44.856        0.089      350.392       31.522      862.104
08/02/2014  13:29:00       19.478     -171.046       -5.197       94.085       74.983       55.371     8852.012     5622.499     3065.984        2.360        0.877      172.152       47.688        0.077      350.485       31.682      862.116
08/02/2014  13:30:00       57.538     -178.825       -7.293       63.044       89.556       59.721     3974.576     8020.215     3566.651        2.545        0.778      187.854       62.462        0.111      350.371       31.483      862.106
08/02/2014  13:31:00      116.472      -89.963       20.696      102.255      129.156       79.942    10456.015    16681.393     6390.667        2.780        1.676      147.170       47.463        0.104      350.146       31.095      862.146
08/02/2014  13:32:00       79.297       99.113        2.181       70.585       46.064       56.628     4982.266     2121.903     3206.751        1.321        0.516      126.930       41.115        0.105      350.222       31.227      862.146
08/02/2014  13:33:00      -54.051      145.117      -10.834       51.285       59.436       29.975     2630.148     3532.613      898.517        1.558        0.353      154.856       28.100        0.033      350.266       31.302      862.129
08/02/2014  13:34:00     -100.164      139.900      -30.252       47.054       62.317       33.493     2214.060     3883.360     1121.775        1.887        0.361      172.060       32.978        0.037      350.230       31.240      862.121
08/02/2014  13:35:00      -12.361       41.190       17.547       34.711       53.764       29.591     1204.876     2890.580      875.613        0.356        0.249       43.005       31.431        0.534      350.978       32.545      862.119
08/02/2014  13:36:00      -27.144      108.437      -16.991       44.354       52.425       29.163     1967.241     2748.426      850.467        0.917        0.278      111.783       22.078        0.039      350.343       31.439      862.113
08/02/2014  13:37:00      -38.283       76.899       15.404       48.618       68.541       41.501     2363.753     4697.815     1722.318        0.820        0.439       85.901       49.599        0.333      350.930       32.459      862.100
08/02/2014  13:38:00      -32.312       29.082       12.439       37.214       26.436       28.541     1384.855      698.846      814.609        0.247        0.145       43.471       18.800        0.187      351.163       32.866      862.110
08/02/2014  13:39:00      -27.381       32.800        6.077       27.704       40.070       26.228      767.525     1605.582      687.882        0.246        0.153       42.727       25.339        0.352      350.936       32.471      862.091
08/02/2014  13:40:00      -61.014      -67.438       -3.936       96.410       61.831       36.305     9294.968     3823.087     1318.053        1.136        0.722       90.943       20.631        0.051      350.482       31.680      862.090
08/02/2014  13:41:00       67.529       57.817       32.805       46.791       53.537       46.629     2189.406     2866.205     2174.275        0.810        0.361       88.899       24.100        0.073      350.569       31.833      862.075
08/02/2014  13:42:00     -158.773      130.021       -9.967       84.045       71.800       55.060     7063.602     5155.294     3031.600        2.873        0.763      205.218       45.504        0.049      350.702       32.059      862.066
08/02/2014  13:43:00     -132.597      -31.166        2.961       93.648      105.839       56.439     8769.874    11201.967     3185.335        2.085        1.158      136.210       53.411        0.154      350.762       32.165      862.057
08/02/2014  13:44:00     -132.492      139.685      -23.722       70.813       71.123       47.975     5014.514     5058.433     2301.635        2.500        0.619      192.526       45.954        0.057      350.855       32.326      862.041
08/02/2014  13:45:00     -199.986      189.349      -40.701       65.577       85.216       49.745     4300.357     7261.814     2474.583        4.577        0.702      275.404       46.494        0.029      350.497       31.701      862.041
08/02/2014  13:46:00     -205.962      152.052      -33.574       72.119       62.163       45.696     5201.081     3864.199     2088.118        3.891        0.558      256.008       39.172        0.023      350.539       31.774      862.040
08/02/2014  13:47:00     -280.304      -73.961      -22.307       72.351       94.897       38.579     5234.679     9005.356     1488.321        5.013        0.786      289.897       28.400        0.010      350.522       31.745      862.010
08/02/2014  13:48:00     -174.727       35.898      -15.114       45.589       38.205       26.883     2078.316     1459.610      722.706        1.815        0.213      178.376       12.479        0.005      350.436       31.598      862.019
08/02/2014  13:49:00       12.724       11.906        0.585       52.464       26.192       28.109     2752.455      686.020      790.111        0.227        0.211       17.426       21.101        1.466      350.477       31.671      862.013
08/02/2014  13:50:00       35.359       27.034       19.250       26.044       48.221       37.317      678.305     2325.302     1392.582        0.337        0.220       44.509       15.265        0.118      350.698       32.056      862.004
08/02/2014  13:51:00       44.171      246.534      -11.581       74.616      106.602       43.193     5567.508    11363.973     1865.605        4.083        0.940      250.460       47.478        0.036      350.376       31.491      861.996
08/02/2014  13:52:00       11.073      170.152      -11.939       38.006       55.811       36.796     1444.490     3114.853     1353.955        1.756        0.296      170.512       35.206        0.043      350.533       31.768      861.981
08/02/2014  13:53:00      -54.065      145.915      -11.376       46.080       45.131       33.194     2123.402     2036.833     1101.809        1.480        0.263      155.609       26.963        0.030      350.721       32.096      861.952
08/02/2014  13:54:00      -97.873       78.909       -9.178       47.187       39.164       34.203     2226.592     1533.785     1169.847        1.041        0.247      125.721       23.613        0.035      350.877       32.366      861.923
08/02/2014  13:55:00      -38.958       84.015       15.414       48.476       73.168       39.870     2349.923     5353.612     1589.628        0.905        0.465       92.608       46.216        0.249      351.278       33.066      861.893
08/02/2014  13:56:00      -40.671       94.196        4.156       36.809       58.589       38.582     1354.928     3432.678     1488.594        0.841        0.314      102.601       38.957        0.144      351.035       32.642      861.862
08/02/2014  13:57:00      -96.177      148.212      -14.975       53.244       64.951       45.832     2834.893     4218.571     2100.571        2.030        0.458      176.683       45.468        0.066      351.042       32.651      861.848
08/02/2014  13:58:00      -31.057      114.100        9.840       51.585       67.912       44.345     2661.030     4611.997     1966.500        1.166        0.462      118.251       37.763        0.102      351.302       33.107      861.840
08/02/2014  13:59:00      -85.535      234.073      -15.312       51.896       67.141       41.729     2693.155     4507.852     1741.322        3.564        0.447      249.212       36.676        0.022      350.767       32.172      861.819
08/02/2014  14:00:00      -31.559      280.720      -31.359       40.760       69.469       32.091     1661.399     4825.997     1029.840        4.415        0.376      282.488       32.375        0.013      350.574       31.835      861.810
08/02/2014  14:01:00      -89.541      225.744      -13.265       50.044       64.795       40.505     2504.443     4198.392     1640.620        3.375        0.417      242.854       37.538        0.024      350.789       32.210      861.799
08/02/2014  14:02:00     -140.882      246.258      -29.847       76.996       78.593       43.538     5928.314     6176.791     1895.598        4.769        0.700      283.709       35.208        0.015      350.637       31.945      861.787
08/02/2014  14:03:00      -78.992       96.159      -11.942       72.361       55.253       38.381     5236.073     3052.924     1473.077        1.269        0.488      124.444       47.700        0.147      351.047       32.662      861.778
08/02/2014  14:04:00     -118.897      122.395      -11.882       65.213       55.437       46.440     4252.800     3073.260     2156.699        1.937        0.474      170.637       47.614        0.078      351.080       32.718      861.755
08/02/2014  14:05:00      -68.894      134.863      -27.040       60.827       76.783       41.556     3699.953     5895.613     1726.876        1.749        0.566      151.442       35.795        0.056      350.825       32.275      861.736
08/02/2014  14:06:00      -49.960       76.661       -6.655       40.564       52.659       40.602     1645.471     2772.972     1648.506        0.724        0.303       91.504       41.039        0.201      351.015       32.608      861.715
08/02/2014  14:07:00      -88.030       53.313       -2.149      123.342       71.064       49.186    15213.273     5050.137     2419.281        1.663        1.134      102.915       51.589        0.251      351.243       33.003      861.693
08/02/2014  14:08:00     -320.752      -33.276       -9.404      123.237      145.044       67.853    15187.338    21037.883     4604.046        7.245        2.041      322.474       56.432        0.031      351.206       32.936      861.661
08/02/2014  14:09:00     -390.035      -30.301      -35.715      141.558      114.376       67.706    20038.674    13081.764     4584.156        9.601        1.885      391.211       71.785        0.034      351.138       32.818      861.652
08/02/2014  14:10:00     -299.691      -33.536      -19.832      141.040      129.366       59.159    19892.380    16735.451     3499.777        6.572        2.006      301.561       46.333        0.024      351.000       32.578      861.657
08/02/2014  14:11:00     -404.221      -57.865      -33.713       94.245      105.068       55.576     8882.143    11039.374     3088.672        9.544        1.151      408.342       52.208        0.016      350.902       32.407      861.660
08/02/2014  14:12:00     -374.199       59.187      -51.894      106.960       89.840       47.246    11440.438     8071.143     2232.207        8.398        1.087      378.851       43.055        0.013      350.772       32.181      861.661
08/02/2014  14:13:00     -187.130      -67.226       -4.977      101.113       98.860       63.347    10223.897     9773.372     4012.876        3.178        1.201      198.839       67.542        0.115      350.939       32.470      861.685
08/02/2014  14:14:00     -118.279      -42.496        1.479       69.383       49.989       43.470     4814.027     2498.926     1889.599        1.250        0.460      125.681       42.772        0.116      351.057       32.680      861.693
08/02/2014  14:15:00      -50.327      -56.765       -4.420       60.716       42.413       33.666     3686.423     1798.859     1133.428        0.620        0.331       75.862       23.313        0.094      351.044       32.659      861.672
08/02/2014  14:16:00        7.406       29.907       12.323       79.400       53.129       40.875     6304.289     2822.666     1670.738        0.595        0.540       30.810       20.922        0.461      351.341       33.176      861.662
08/02/2014  14:17:00     -118.310       35.154       -3.648       79.012       60.346       44.813     6242.966     3641.603     2008.193        1.357        0.595      123.422       41.796        0.115      351.256       33.027      861.647
08/02/2014  14:18:00     -115.357       60.127      -20.455       69.302       54.732       31.118     4802.774     2995.570      968.322        1.305        0.438      130.087       29.891        0.053      350.773       32.185      861.650
08/02/2014  14:19:00     -108.121      -24.397       -0.001       82.455       74.116       43.257     6798.747     5493.125     1871.125        1.322        0.708      110.840       31.324        0.080      351.106       32.765      861.627
08/02/2014  14:20:00     -139.951        8.267        2.630       89.492       55.602       35.655     8008.841     3091.606     1271.263        1.601        0.619      140.195       41.688        0.088      351.349       33.188      861.600
08/02/2014  14:21:00     -134.352       -0.346       -0.219       82.115       80.703       39.308     6742.798     6512.912     1545.157        1.642        0.740      134.353       40.669        0.092      351.307       33.115      861.575
08/02/2014  14:22:00     -112.534       -1.875       -5.742       74.831       56.527       35.891     5599.607     3195.274     1288.178        1.139        0.504      112.550       34.735        0.095      351.476       33.411      861.576
08/02/2014  14:23:00     -155.587        0.800      -14.269       55.268       54.021       34.849     3054.525     2918.278     1214.422        1.580        0.359      155.589       31.784        0.042      351.124       32.796      861.581
08/02/2014  14:24:00     -228.086      -72.352      -15.896      102.687       76.092       44.714    10544.717     5790.030     1999.383        3.792        0.917      239.287       36.835        0.024      351.189       32.907      861.570
08/02/2014  14:25:00     -291.057      -26.121      -21.011       99.738      105.159       50.198     9947.609    11058.449     2519.854        5.468        1.176      292.226       53.857        0.034      351.133       32.809      861.554
08/02/2014  14:26:00     -222.367      -11.466      -18.224      157.506       80.878       46.066    24808.065     6541.273     2122.091        4.168        1.674      222.662       58.290        0.069      351.044       32.655      861.534
08/02/2014  14:27:00     -233.580     -107.893      -11.799      113.858       66.727       43.621    12963.579     4452.539     1902.781        4.283        0.966      257.294       47.550        0.034      350.812       32.250      861.525
08/02/2014  14:28:00     -265.870      -39.199       -6.346       86.029       98.246       44.981     7400.936     9652.213     2023.296        4.567        0.954      268.744       42.122        0.025      350.982       32.545      861.526
08/02/2014  14:29:00      -93.558       -8.175      -10.196       86.577       43.327       34.605     7495.526     1877.198     1197.491        0.974        0.529       93.914       47.756        0.259      350.770       32.181      861.524
08/02/2014  14:30:00      -24.597       -1.994        3.404       26.441       28.864       28.784      699.100      833.102      828.506        0.149        0.118       24.678       21.516        0.760      351.493       33.441      861.511
08/02/2014  14:31:00       -8.679       15.784       16.055       32.637       17.969       16.143     1065.191      322.874      260.583        0.112        0.082       18.013       12.930        0.515      351.721       33.839      861.496
08/02/2014  14:32:00       50.330       74.612        6.521       41.897       51.804       29.409     1755.325     2683.700      864.878        0.672        0.265       90.000       26.452        0.086      351.075       32.712      861.488
08/02/2014  14:33:00      -18.374      126.607       -6.614       78.509       55.742       35.243     6163.707     3107.206     1242.098        1.346        0.526      127.934       34.369        0.072      351.135       32.817      861.468
08/02/2014  14:34:00      -45.693      226.117      -22.835       60.022       56.847       33.685     3602.609     3231.606     1134.705        3.085        0.398      230.688       19.851        0.007      350.978       32.537      861.457
08/02/2014  14:35:00       40.709      219.922      -30.949       43.257       65.912       30.425     1871.169     4344.402      925.693        2.906        0.357      223.658       23.167        0.011      350.896       32.396      861.466
08/02/2014  14:36:00       43.163        1.964       -6.184       27.367       48.927       23.745      748.962     2393.828      563.835        0.281        0.185       43.208       19.185        0.197      350.894       32.396      861.483
08/02/2014  14:37:00       -1.649      -32.131       -1.466       36.243       49.722       33.929     1313.533     2472.242     1151.154        0.299        0.247       32.173       28.881        0.806      351.023       32.622      861.479
08/02/2014  14:38:00      -54.022       35.269       -3.727       51.840       59.228       48.607     2687.361     3507.992     2362.600        0.637        0.428       64.515       18.626        0.083      351.251       33.017      861.488
08/02/2014  14:39:00      -34.558      -93.349        6.373       92.333       56.742       38.163     8525.452     3219.702     1456.414        1.157        0.660       99.540       46.429        0.218      350.863       32.341      861.495
08/02/2014  14:40:00      -35.175       -8.980        0.315       30.956       32.578       34.692      958.276     1061.342     1203.541        0.227        0.161       36.303       13.772        0.144      351.175       32.887      861.463
08/02/2014  14:41:00       11.366       43.558       48.759       45.451       49.725       52.126     2065.835     2472.578     2717.132        0.583        0.363       45.016       38.570        0.734      351.270       33.051      861.433
08/02/2014  14:42:00       39.685       67.457      -25.911       35.606       85.276       27.724     1267.820     7272.072      768.626        0.805        0.465       78.265       37.867        0.234      351.016       32.608      861.418
08/02/2014  14:43:00      -47.952      146.353      -32.075       95.130      108.329       36.494     9049.622    11735.273     1331.825        2.343        1.106      154.009       51.106        0.110      351.203       32.934      861.422
08/02/2014  14:44:00     -127.956      164.714      -27.594       58.285       93.510       40.712     3397.107     8744.092     1657.457        2.903        0.690      208.575       34.569        0.027      351.292       33.086      861.408
08/02/2014  14:45:00     -193.046      -20.985      -16.858      139.879       98.926       35.637    19566.247     9786.439     1270.006        3.430        1.531      194.183       42.667        0.048      351.445       33.356      861.370
08/02/2014  14:46:00     -135.341      132.170      -31.428      106.806       90.460       47.074    11407.472     8183.010     2215.957        2.929        1.090      189.172       46.357        0.060      351.507       33.462      861.358
08/02/2014  14:47:00       -8.031      283.203      -38.913       58.972       77.493       40.255     3477.670     6005.092     1620.460        4.644        0.555      283.316       40.641        0.021      351.099       32.750      861.387
08/02/2014  14:48:00       12.570       96.559        1.948       60.222       80.904       53.796     3626.643     6545.414     2894.039        1.127        0.653       97.373       50.668        0.271      351.444       33.354      861.376
08/02/2014  14:49:00       48.546      101.847       -8.081       59.073      104.689       44.639     3489.588    10959.867     1992.657        1.462        0.822      112.825       53.021        0.221      351.328       33.151      861.359
08/02/2014  14:50:00       34.089       49.822        7.140       75.435       52.465       43.092     5690.435     2752.579     1856.955        0.700        0.515       60.368       29.000        0.231      351.267       33.048      861.371
08/02/2014  14:51:00       84.037       87.883       15.060      100.130       57.341       64.250    10026.006     3287.997     4128.008        1.622        0.872      121.596       52.176        0.184      351.224       32.970      861.378
08/02/2014  14:52:00       86.978       85.205       19.714       61.776       39.691       35.028     3816.225     1575.398     1226.986        1.091        0.331      121.758       28.210        0.054      351.059       32.683      861.354
08/02/2014  14:53:00       91.019       53.684       18.438       32.928       31.152       28.321     1084.253      970.430      802.101        0.718        0.143      105.671       14.322        0.018      350.819       32.264      861.332
08/02/2014  14:54:00       26.704       22.474        9.833       24.340       14.640       16.767      592.454      214.319      281.131        0.120        0.054       34.902        8.230        0.056      351.037       32.645      861.324
08/02/2014  14:55:00      -88.970       -2.388        8.561       89.924       46.996       38.687     8086.253     2208.598     1496.692        0.989        0.590       89.002       44.490        0.250      351.544       33.529      861.290
08/02/2014  14:56:00     -153.979       -9.547      -14.618       48.729       48.692       28.729     2374.541     2370.881      825.382        1.479        0.279      154.274       27.872        0.033      351.443       33.352      861.262
08/02/2014  14:57:00     -101.216      -34.510      -10.863       38.616       26.842       21.536     1491.221      720.515      463.786        0.711        0.134      106.937       14.453        0.018      351.111       32.773      861.244
08/02/2014  14:58:00      -53.256       -6.063        8.803       46.045       29.753       21.775     2120.139      885.248      474.145        0.321        0.174       53.600       16.975        0.100      351.459       33.382      861.208
08/02/2014  14:59:00        5.520       -9.808       13.894       31.299       35.894       28.645      979.602     1288.412      820.514        0.170        0.154       11.254       27.382        5.920      351.216       32.958      861.179
08/02/2014  15:00:00       31.520      -30.758        4.427       30.337       42.282       35.056      920.335     1787.745     1228.927        0.295        0.197       44.041       13.570        0.095      351.432       33.335      861.189
08/02/2014  15:01:00       -1.731       52.362       18.730       29.068       52.665       38.036      844.923     2773.590     1446.759        0.408        0.253       52.391       34.759        0.440      351.665       33.742      861.198
08/02/2014  15:02:00      -34.434       48.945       -0.760       50.533       47.863       28.517     2553.630     2290.901      813.222        0.462        0.283       59.844       25.381        0.180      351.535       33.512      861.199
08/02/2014  15:03:00       -4.204       85.794        8.793       39.159      114.215       34.911     1533.455    13045.172     1218.785        1.162        0.790       85.897       37.612        0.192      351.577       33.586      861.163
08/02/2014  15:04:00     -122.464      149.896      -27.228       53.736       84.191       42.915     2887.583     7088.071     1841.666        2.501        0.591      193.562       42.018        0.047      351.492       33.436      861.148
08/02/2014  15:05:00     -105.917       24.418        8.763       71.060      108.738       33.500     5049.548    11824.044     1122.260        1.494        0.900      108.695       23.413        0.046      351.600       33.626      861.133
08/02/2014  15:06:00     -128.224      140.158      -19.190       64.323       88.390       47.077     4137.494     7812.830     2216.265        2.531        0.708      189.963       42.283        0.050      351.596       33.618      861.119
08/02/2014  15:07:00     -168.336       87.597      -19.739       99.125       53.901       44.758     9825.685     2905.308     2003.270        2.556        0.737      189.763       50.290        0.070      351.525       33.494      861.126
08/02/2014  15:08:00     -122.640       16.172      -19.422       61.798       80.944       45.522     3819.022     6551.971     2072.261        1.406        0.622      123.702       35.812        0.084      351.561       33.559      861.110
08/02/2014  15:09:00       15.344       46.095       42.633       74.767       83.387       42.136     5590.062     6953.460     1775.448        0.925        0.716       48.581       13.650        0.079      351.881       34.118      861.082
08/02/2014  15:10:00     -191.352      -83.866      -14.521       89.771       48.060       39.545     8058.860     2309.802     1563.779        2.789        0.597      208.924       23.445        0.013      351.424       33.316      861.075
08/02/2014  15:11:00     -189.878      -57.290       -7.030      106.568       80.690       46.815    11356.675     6510.796     2191.690        2.972        1.003      198.333       39.970        0.041      351.634       33.684      861.102
08/02/2014  15:12:00     -154.389      -77.158       33.649      185.714      145.733       72.445    34489.732    21238.189     5248.318        4.594        3.049      172.595      100.765        0.341      351.767       33.917      861.095
08/02/2014  15:13:00     -233.678     -184.940       -5.912      134.242      110.984       66.099    18020.950    12317.489     4369.109        6.177        1.735      298.007       63.529        0.045      351.685       33.771      861.080
08/02/2014  15:14:00     -128.764     -142.001       -6.436      135.504      102.190       64.840    18361.439    10442.703     4204.167        3.489        1.650      191.689       47.251        0.061      351.690       33.781      861.072
08/02/2014  15:15:00     -167.925     -116.546        9.629      133.713       86.529       56.741    17879.148     7487.307     3219.538        3.522        1.429      204.405       68.694        0.113      351.768       33.917      861.042
08/02/2014  15:16:00     -248.504     -141.090      -10.394      138.434       99.354       71.992    19163.917     9871.193     5182.794        5.799        1.711      285.763       67.337        0.056      351.689       33.778      861.036
08/02/2014  15:17:00     -280.763      -72.443      -12.983      106.101      111.889       63.960    11257.517    12519.211     4090.825        5.605        1.393      289.958       61.525        0.045      351.661       33.730      861.036
08/02/2014  15:18:00     -158.920      -12.153      -14.623       69.463       60.482       30.513     4825.083     3658.064      931.023        1.751        0.471      159.384       29.778        0.035      351.635       33.687      861.039
08/02/2014  15:19:00     -161.822     -118.841       -6.226      101.880       93.723       47.547    10379.549     8783.949     2260.679        3.088        1.071      200.772       48.943        0.059      351.810       33.990      861.038
08/02/2014  15:20:00     -249.039     -207.277      -10.911      165.031      150.886       63.939    27235.164    22766.612     4088.182        7.959        2.704      324.013       71.170        0.048      351.447       33.356      860.994
08/02/2014  15:21:00     -171.555     -100.755       17.872      127.825      123.431       58.876    16339.188    15235.151     3466.430        3.746        1.752      198.954       68.084        0.117      351.752       33.891      860.964
08/02/2014  15:22:00     -489.359     -267.220      -24.175      179.423      160.876       84.375    32192.628    25881.205     7119.152       18.832        3.260      557.565       79.598        0.020      351.589       33.603      860.981
08/02/2014  15:23:00     -361.487     -256.392       -0.383      290.711      201.801      112.794    84513.005    40723.459    12722.429       16.716        6.898      443.182      151.069        0.116      351.478       33.411      860.986
08/02/2014  15:24:00     -410.153     -196.388       12.331      231.305      213.149      115.780    53502.113    45432.315    13405.052       15.962        5.617      454.746      130.755        0.083      351.292       33.086      860.990
08/02/2014  15:25:00     -332.744      -63.213        3.327      166.750      118.604       81.702    27805.461    14066.927     6675.243        8.163        2.427      338.695       81.080        0.057      351.375       33.231      861.024
08/02/2014  15:26:00     -124.666     -173.927       16.580      109.859      127.188       55.364    12068.913    16176.914     3065.216        3.868        1.566      213.991       48.092        0.051      351.556       33.548      861.036
08/02/2014  15:27:00      -35.329     -321.934      -14.188       91.132       90.427       46.905     8305.022     8177.119     2200.051        6.188        0.934      323.867       36.401        0.013      351.154       32.845      861.023
08/02/2014  15:28:00      -67.642     -109.459        5.552       84.709      108.419       60.915     7175.598    11754.740     3710.590        1.961        1.132      128.673       54.939        0.182      351.612       33.647      860.935
08/02/2014  15:29:00      -15.343       14.382        9.585       28.322       29.005       27.209      802.159      841.285      740.334        0.146        0.119       21.030       13.806        0.431      352.283       34.821      860.918
08/02/2014  15:30:00     -129.606        4.365      -11.706       78.908       58.510       28.126     6226.545     3423.382      791.063        1.370        0.522      129.680       22.052        0.029      351.654       33.721      860.913
08/02/2014  15:31:00      -96.348      -63.441       19.477      150.390      108.172       61.273    22617.013    11701.201     3754.400        2.587        1.904      115.359       68.928        0.357      351.722       33.838      860.919
08/02/2014  15:32:00     -231.425     -117.342       10.552      247.239      163.702       95.748    61127.277    26798.410     9167.643        8.225        4.855      259.474      120.662        0.216      351.719       33.833      860.893
08/02/2014  15:33:00     -272.784     -241.225      -17.068      193.994      170.753       84.055    37633.684    29156.693     7065.174       10.336        3.693      364.144       82.060        0.051      351.517       33.479      860.882
08/02/2014  15:34:00      -22.822     -144.276       -0.386      118.171       88.506       61.442    13964.428     7833.390     3775.083        2.345        1.279      146.070       36.603        0.063      351.624       33.667      860.864
08/02/2014  15:35:00     -116.180     -139.825       -4.424      152.489       88.231       53.762    23253.047     7784.770     2890.371        3.349        1.696      181.794       51.245        0.079      351.786       33.949      860.862
08/02/2014  15:36:00     -201.370     -114.195        9.051      142.133       96.433       66.071    20201.886     9299.242     4365.414        4.376        1.693      231.496       55.592        0.058      351.953       34.240      860.871
08/02/2014  15:37:00     -389.669     -147.259      -21.436      143.404      135.824       70.378    20564.795    18448.055     4953.010       10.897        2.198      416.566       55.476        0.018      351.561       33.554      860.880
08/02/2014  15:38:00     -417.568     -256.641       -6.166      132.173      119.123       73.381    17469.819    14190.291     5384.761       13.865        1.852      490.130       69.377        0.020      351.288       33.079      860.858
08/02/2014  15:39:00     -302.634     -142.248        7.680      184.835      134.807       82.148    34163.978    18172.954     6748.248        8.547        2.954      334.398       95.478        0.082      351.666       33.739      860.835
08/02/2014  15:40:00     -499.981      -59.076      -35.565      224.966      123.545       84.722    50609.919    15263.479     7177.769       16.388        3.653      503.459      110.237        0.048      351.424       33.318      860.868
08/02/2014  15:41:00     -154.054     -103.670       11.780      123.310      136.018       76.309    15205.404    18500.946     5823.044        3.707        1.976      185.688       75.522        0.165      351.720       33.833      860.824
08/02/2014  15:42:00     -314.893      -59.192       -1.719      107.756       84.165       50.373    11611.425     7083.748     2537.437        6.194        1.062      320.408       52.319        0.027      351.412       33.296      860.805
08/02/2014  15:43:00     -330.731     -106.671       -4.484      175.526      159.964       87.436    30809.545    25588.523     7645.027        9.240        3.202      347.507      100.541        0.084      351.483       33.420      860.792
08/02/2014  15:44:00     -361.655      -84.670      -16.369      156.693      162.332       79.008    24552.761    26351.600     6242.316        9.768        2.857      371.434       71.171        0.037      351.542       33.522      860.817
08/02/2014  15:45:00     -339.350        1.884      -14.203      146.553      159.536       61.870    21477.875    25451.747     3827.951        8.305        2.538      339.356       68.782        0.041      351.465       33.389      860.814
08/02/2014  15:46:00     -102.477      -94.011       11.132      134.081      135.650       83.843    17977.732    18400.802     7029.602        3.143        2.170      139.067       78.000        0.315      351.712       33.821      860.803
08/02/2014  15:47:00     -185.762      -20.646        9.199      131.691      107.394       70.251    17342.518    11533.531     4935.218        3.441        1.691      186.906       61.592        0.109      351.764       33.911      860.804
08/02/2014  15:48:00     -318.047     -158.717      -17.899      169.607      126.509       76.147    28766.543    16004.628     5798.355        8.861        2.528      355.450       84.781        0.057      351.607       33.638      860.784
08/02/2014  15:49:00     -325.203      -70.403      -11.318      190.834       89.010       71.825    36417.741     7922.717     5158.876        8.016        2.475      332.736       88.243        0.070      351.572       33.574      860.765
08/02/2014  15:50:00     -341.356     -129.763      -15.179      154.719       95.204       60.652    23937.944     9063.786     3678.688        8.513        1.834      365.189       41.565        0.013      351.323       33.142      860.741
08/02/2014  15:51:00     -136.444     -124.846        9.861      118.118      103.133       50.035    13951.976    10636.471     2503.463        3.069        1.355      184.942       55.614        0.090      351.720       33.834      860.743
08/02/2014  15:52:00     -170.587     -193.257       13.603      138.489       97.371       69.472    19179.326     9481.198     4826.403        5.005        1.674      257.775       76.187        0.087      351.697       33.793      860.757
08/02/2014  15:53:00     -117.150     -245.600       -4.112       87.707      127.778       59.370     7692.562    16327.271     3524.837        5.080        1.377      272.109       42.102        0.024      351.471       33.398      860.748
08/02/2014  15:54:00      -91.888     -128.684       -0.285      106.202       82.526       52.814    11278.945     6810.538     2789.337        2.294        1.044      158.123       55.309        0.122      351.640       33.695      860.706
08/02/2014  15:55:00     -113.620     -326.369      -23.415      148.742      131.502       78.683    22124.244    17292.735     6191.006        8.278        2.280      345.581       68.317        0.039      351.484       33.422      860.682
08/02/2014  15:56:00     -146.829     -231.800       19.698      142.531      169.685       81.239    20315.007    28792.903     6599.710        6.568        2.785      274.390       71.543        0.068      351.753       33.892      860.659
08/02/2014  15:57:00     -303.867     -244.268      -14.095      178.566      172.388       81.226    31885.785    29717.530     6597.652       11.019        3.410      389.875       82.321        0.045      351.663       33.734      860.677
08/02/2014  15:58:00     -355.470     -265.412      -10.580      142.619      167.678       89.600    20340.199    28115.760     8028.090       12.669        2.824      443.624       86.804        0.038      351.580       33.587      860.692
08/02/2014  15:59:00     -211.842     -136.967        0.605      128.999       91.859       53.784    16640.674     8438.161     2892.751        4.580        1.399      252.264       32.963        0.017      351.467       33.391      860.694
08/02/2014  16:00:00     -112.886     -107.661        3.079      104.219       86.369       44.355    10861.505     7459.536     1967.408        2.231        1.014      155.994       51.444        0.109      351.687       33.778      860.688
08/02/2014  16:01:00     -283.628      -83.801       10.630      196.533      102.243       63.412    38625.155    10453.535     4021.049        7.033        2.655      295.749       71.097        0.058      351.905       34.157      860.709
08/02/2014  16:02:00     -231.299     -189.171       17.282      191.540      146.870       86.584    36687.604    21570.729     7496.709        7.766        3.288      298.806       99.379        0.111      351.581       33.590      860.708
08/02/2014  16:03:00     -186.607     -127.159        9.197      155.954      134.514       83.759    24321.765    18093.922     7015.593        5.024        2.472      225.813       89.705        0.158      351.343       33.176      860.685
08/02/2014  16:04:00     -309.335      -17.813      -16.557      132.527       78.325       61.092    17563.394     6134.863     3732.252        6.185        1.372      309.847       69.658        0.051      351.513       33.472      860.644
08/02/2014  16:05:00     -434.334     -104.103      -20.128      163.994      148.921       78.551    26893.964    22177.489     6170.237       12.755        2.762      446.636       79.605        0.032      351.602       33.626      860.622
08/02/2014  16:06:00     -404.727     -169.504      -18.202      178.491      154.848       75.245    31859.169    23977.829     5661.841       12.717        3.075      438.789       81.443        0.034      351.510       33.468      860.611
08/02/2014  16:07:00     -354.413     -118.816      -24.921      232.495      127.890       69.522    54053.854    16355.728     4833.286       10.778        3.762      373.799       78.111        0.044      351.512       33.470      860.584
08/02/2014  16:08:00     -389.922      -82.492      -24.616      188.582      129.179       81.165    35563.243    16687.266     6587.712       10.913        2.942      398.553       89.621        0.051      351.636       33.686      860.561
08/02/2014  16:09:00     -634.941     -169.059      -30.742      169.773      132.638       88.390    28822.789    17592.818     7812.790       24.344        2.711      657.063       86.970        0.018      351.434       33.334      860.545
08/02/2014  16:10:00     -539.093     -131.940       -6.700      176.336      112.515       72.523    31094.504    12659.628     5259.641       17.853        2.451      555.004       75.768        0.019      351.422       33.314      860.565
08/02/2014  16:11:00     -462.929      -40.323      -26.154      120.683      122.683       62.527    14564.274    15051.010     3909.661       12.506        1.676      464.682       44.358        0.009      351.239       32.992      860.597
08/02/2014  16:12:00     -206.862      -37.287      -14.626      117.285      117.662       57.578    13755.672    13844.434     3315.230        3.765        1.546      210.196       64.175        0.093      351.208       32.941      860.588
08/02/2014  16:13:00     -162.811      142.074      -23.673       93.481      103.943       55.321     8738.731    10804.130     3060.427        3.492        1.130      216.085       59.233        0.075      351.356       33.200      860.514
08/02/2014  16:14:00     -216.800       91.443       -4.297      237.818      130.497       69.225    56557.362    17029.469     4792.125        6.687        3.919      235.296       84.201        0.128      351.487       33.428      860.432
08/02/2014  16:15:00     -367.436       67.419        3.230      247.996      213.131      101.639    61502.025    45424.793    10330.560       12.839        5.863      373.570      104.110        0.078      351.707       33.811      860.379
08/02/2014  16:16:00     -247.704     -151.889       15.254      253.633      185.513      107.548    64329.937    34415.195    11566.484        9.746        5.516      290.564      132.382        0.208      351.672       33.750      860.467
08/02/2014  16:17:00     -419.281     -253.283       -7.719      221.296      166.629      101.075    48972.111    27765.348    10216.250       16.346        4.348      489.845      103.866        0.045      351.242       32.999      860.544
08/02/2014  16:18:00     -310.748     -226.069       -7.548      157.084      191.585       71.788    24675.394    36704.968     5153.565       10.712        3.327      384.280       65.118        0.029      351.331       33.154      860.537
08/02/2014  16:19:00     -532.704     -328.645      -16.418      228.701      162.547      103.551    52304.123    26421.583    10722.724       24.073        4.472      625.924      121.394        0.038      351.182       32.895      860.524
08/02/2014  16:20:00     -405.598     -292.649       -5.672      210.002      194.831       96.222    44100.872    37959.163     9258.741       17.073        4.566      500.153      114.042        0.052      351.136       32.814      860.528
08/02/2014  16:21:00     -384.918     -255.206        1.780      142.313      134.709       80.588    20253.008    18146.423     6494.447       12.909        2.245      461.835       71.483        0.024      351.215       32.952      860.555
08/02/2014  16:22:00     -437.966     -235.964      -13.062      163.078      172.031       70.587    26594.356    29594.517     4982.520       15.441        3.059      497.486       85.253        0.029      351.052       32.668      860.565
08/02/2014  16:23:00     -317.645     -136.945        8.253      176.892      138.687       76.769    31290.758    19234.113     5893.429        8.806        2.821      345.908       90.097        0.068      351.229       32.977      860.563
08/02/2014  16:24:00     -186.145     -203.193        1.349      123.692      105.475       48.039    15299.692    11125.015     2307.739        5.233        1.437      275.567       56.093        0.041      351.240       32.996      860.565
08/02/2014  16:25:00     -152.570      -54.524        6.671      142.233       78.975       45.728    20230.228     6237.081     2091.037        2.742        1.428      162.020       69.168        0.182      351.391       33.260      860.555
08/02/2014  16:26:00     -207.770      -51.350       -2.154      132.092       58.024       42.795    17448.389     3366.802     1831.447        3.422        1.132      214.021       55.686        0.068      351.361       33.206      860.546
08/02/2014  16:27:00     -249.607       -3.086       -5.962      140.807      117.871       70.950    19826.702    13893.623     5033.870        5.054        1.938      249.626       76.735        0.094      351.368       33.218      860.562
08/02/2014  16:28:00     -237.357      -58.149      -17.940      119.300      116.876       54.144    14232.519    13659.926     2931.596        4.543        1.541      244.376       57.244        0.055      351.299       33.098      860.517
08/02/2014  16:29:00     -445.128     -201.543      -41.284      225.073      127.537       82.757    50657.646    16265.712     6848.706       15.710        3.689      488.629       84.635        0.030      351.304       33.106      860.506
08/02/2014  16:30:00     -148.870      -85.092       22.692      149.807      156.605       78.548    22442.203    24525.142     6169.749        4.152        2.657      171.472       83.431        0.237      351.416       33.304      860.523
08/02/2014  16:31:00     -258.696     -181.870        0.713      181.997      135.816       69.504    33123.078    18446.032     4830.744        7.819        2.820      316.229       72.539        0.053      351.265       33.039      860.535
08/02/2014  16:32:00     -387.120     -113.031      -22.846      186.826      155.749       78.469    34904.043    24257.905     6157.396       11.423        3.266      403.284       74.065        0.034      351.284       33.073      860.528
08/02/2014  16:33:00     -391.239      -54.496      -16.857      174.633      147.882       73.579    30496.669    21869.163     5413.837       10.704        2.889      395.016       78.232        0.039      351.230       32.976      860.504
08/02/2014  16:34:00     -216.936      -53.524        3.395      188.153       85.728       76.422    35401.392     7349.267     5840.370        4.925        2.430      223.441      100.908        0.204      351.299       33.098      860.501
08/02/2014  16:35:00     -229.445      -65.425        0.888      198.460      131.062       63.715    39386.302    17177.230     4059.632        5.876        3.031      238.590       83.961        0.124      351.402       33.280      860.506
08/02/2014  16:36:00     -402.518      -48.226      -27.582      247.018      173.708       71.193    61017.728    30174.501     5068.442       13.067        4.813      405.397      105.167        0.067      351.298       33.096      860.500
08/02/2014  16:37:00     -208.441       -5.579      -11.590      117.007      101.927       59.322    13690.686    10389.166     3519.041        3.560        1.380      208.516       56.368        0.073      351.217       32.956      860.500
08/02/2014  16:38:00     -155.454      -80.783        0.240       85.771       68.746       64.188     7356.696     4726.007     4120.102        2.344        0.810      175.190       47.379        0.073      351.324       33.143      860.472
08/02/2014  16:39:00      -78.086      -60.658       18.940      118.698       86.888       58.963    14089.328     7549.573     3476.577        1.762        1.256       98.878       55.042        0.310      351.347       33.183      860.470
08/02/2014  16:40:00     -151.918     -134.030        8.411      121.887       83.535       53.543    14856.451     6978.174     2866.835        3.290        1.235      202.591       61.387        0.092      351.425       33.318      860.453
08/02/2014  16:41:00     -102.175      -51.364        5.624       79.530       66.914       39.691     6325.069     4477.527     1575.339        1.274        0.619      114.359       32.725        0.082      351.472       33.403      860.425
08/02/2014  16:42:00     -156.911     -164.650        3.337      118.430      104.589       67.143    14025.750    10938.908     4508.166        4.060        1.474      227.444       72.848        0.103      351.366       33.215      860.432
08/02/2014  16:43:00     -138.355     -107.829        4.387       99.305       77.473       51.409     9861.562     6002.093     2642.916        2.464        0.925      175.412       34.005        0.038      351.365       33.215      860.435
08/02/2014  16:44:00     -216.295     -107.470      -14.478      108.159       74.697       46.896    11698.366     5579.662     2199.208        3.901        0.974      241.522       36.898        0.023      351.403       33.281      860.439
08/02/2014  16:45:00     -156.478      -80.175        9.751      114.737       88.548       62.536    13164.562     7840.834     3910.811        2.796        1.246      175.822       61.064        0.121      351.380       33.241      860.418
08/02/2014  16:46:00     -488.817     -122.722      -20.865      200.513      135.686       70.001    40205.309    18410.659     4900.070       15.896        3.176      503.987       75.734        0.023      351.243       33.001      860.413
08/02/2014  16:47:00     -394.699     -106.034       -9.727      156.848      169.818       82.040    24601.339    28838.276     6730.553       11.364        3.009      408.694       81.493        0.040      351.180       32.889      860.379
08/02/2014  16:48:00     -357.590      -19.337      -24.639      177.789      122.432       74.519    31608.831    14989.557     5553.148        9.049        2.608      358.113       82.745        0.053      351.304       33.106      860.361
08/02/2014  16:49:00     -329.453     -216.557      -10.795      158.190      159.763       92.466    25024.103    25524.064     8549.972       10.731        2.955      394.254       82.597        0.044      351.275       33.057      860.368
08/02/2014  16:50:00     -385.749     -132.609      -14.447      198.379      207.335       91.261    39354.049    42987.960     8328.551       12.862        4.534      407.906       99.481        0.059      351.279       33.064      860.346
08/02/2014  16:51:00     -259.630      -22.624       -9.931      188.089      127.186       96.941    35377.510    16176.310     9397.642        6.447        3.048      260.613       85.780        0.108      351.414       33.300      860.332
08/02/2014  16:52:00     -281.641     -111.321        8.181      144.821      134.937       70.669    20973.037    18208.068     4994.121        6.797        2.209      302.843       81.194        0.072      351.452       33.364      860.359
08/02/2014  16:53:00     -447.052     -252.346      -19.848      191.092      160.092       84.930    36516.027    25629.535     7213.190       16.663        3.468      513.355      106.665        0.043      351.229       32.977      860.335
08/02/2014  16:54:00     -329.691      -78.617       -2.462      164.160      131.167       63.500    26948.413    17204.855     4032.296        8.152        2.409      338.934       73.823        0.047      351.372       33.226      860.350
08/02/2014  16:55:00     -132.316     -100.033       11.722      113.738       64.869       53.572    12936.267     4207.953     2869.935        2.383        1.001      165.874       60.126        0.131      351.535       33.512      860.346
08/02/2014  16:56:00     -326.537     -177.799      -11.636      165.069      153.648       70.802    27247.857    23607.572     5012.915        9.711        2.793      371.805       85.691        0.053      351.417       33.305      860.332
08/02/2014  16:57:00     -359.134     -186.092      -15.759      267.757      167.063       98.346    71693.630    27909.960     9671.866       13.654        5.464      404.484      110.909        0.075      351.379       33.237      860.311
08/02/2014  16:58:00     -477.231     -219.302       -8.002      213.483      168.844       90.251    45574.977    28508.253     8145.305       17.905        4.111      525.208       96.206        0.034      351.203       32.930      860.328
08/02/2014  16:59:00     -263.626     -152.500        8.590      173.887      123.516       76.927    30236.779    15256.137     5917.726        7.211        2.571      304.557       86.833        0.081      351.218       32.956      860.340
08/02/2014  17:00:00     -398.577     -232.897       -2.570      176.581      182.780       83.808    31180.709    33408.602     7023.703       14.235        3.581      461.633       88.588        0.037      351.131       32.804      860.320
08/02/2014  17:01:00     -257.591     -125.607      -16.524      187.814      120.885       88.364    35274.071    14613.212     7808.124        7.004        2.885      286.584       99.240        0.120      351.153       32.843      860.344
08/02/2014  17:02:00     -306.026     -164.240       14.258      194.663      136.295       96.585    37893.496    18576.269     9328.725        9.330        3.290      347.313      111.162        0.102      351.175       32.882      860.310
08/02/2014  17:03:00     -337.589     -225.014      -17.358      165.246      143.255       76.223    27306.146    20522.025     5809.983       10.926        2.682      405.706       89.596        0.049      351.123       32.790      860.318
08/02/2014  17:04:00     -326.121     -224.245        6.556      193.633      126.756       78.734    37493.713    16066.965     6199.120       10.821        2.988      395.779       94.287        0.057      351.082       32.721      860.306
08/02/2014  17:05:00     -424.368     -241.883      -12.400      229.907      134.170       87.033    52857.436    18001.683     7574.785       15.858        3.922      488.462       99.600        0.042      351.050       32.665      860.288
08/02/2014  17:06:00     -261.985     -222.743       -6.355      147.054      134.262       67.332    21624.762    18026.265     4533.619        8.123        2.209      343.876       64.614        0.035      351.067       32.693      860.290
08/02/2014  17:07:00     -307.264     -183.634        2.123      152.861      125.050       75.957    23366.475    15637.460     5769.412        8.645        2.239      357.956       80.612        0.051      351.107       32.762      860.273
08/02/2014  17:08:00     -339.336     -158.472      -16.461      198.920      142.691       86.198    39569.173    20360.619     7430.121       10.393        3.368      374.516      100.751        0.072      351.117       32.780      860.267
08/02/2014  17:09:00     -320.797     -185.261      -13.194      157.935      133.187       81.500    24943.443    17738.891     6642.232        9.336        2.466      370.449       75.111        0.041      351.176       32.883      860.254
08/02/2014  17:10:00     -429.230     -259.366      -13.786      225.048      150.070       89.323    50646.408    22520.987     7978.631       16.641        4.057      501.507       93.127        0.034      351.241       32.996      860.261
08/02/2014  17:11:00     -268.578     -170.320       -3.645      135.894      118.525       71.236    18467.130    14048.092     5074.613        6.937        1.879      318.030       67.253        0.045      351.391       33.260      860.259
08/02/2014  17:12:00     -323.654     -110.193        0.556      191.869      150.411       75.776    36813.584    22623.382     5741.986        9.102        3.259      341.898       85.689        0.063      351.388       33.255      860.274
08/02/2014  17:13:00     -408.202     -202.293      -20.658      214.045      171.684       82.463    45815.384    29475.451     6800.212       14.502        4.105      455.578       84.391        0.034      351.195       32.918      860.279
08/02/2014  17:14:00     -499.222     -229.733      -29.887      201.984      161.122       95.323    40797.600    25960.350     9086.474       18.935        3.792      549.545       74.229        0.018      351.047       32.659      860.268
08/02/2014  17:15:00     -278.923      -89.887        3.507      205.087      183.330       84.221    42060.504    33610.070     7093.224        8.431        4.138      293.049       90.542        0.095      351.158       32.852      860.266
08/02/2014  17:16:00     -485.079      -78.511      -14.582      278.462      143.314       96.493    77541.156    20538.778     9310.986       17.451        5.370      491.391      128.542        0.068      351.047       32.658      860.260
08/02/2014  17:17:00     -277.893     -162.694        1.412      146.868      134.344       78.046    21570.141    18048.273     6091.162        7.469        2.285      322.016       71.856        0.050      351.084       32.722      860.285
08/02/2014  17:18:00     -291.365     -100.813        0.887      140.174      129.640       68.292    19648.790    16806.582     4663.762        6.808        2.056      308.313       67.685        0.048      351.156       32.848      860.292
08/02/2014  17:19:00     -383.141     -169.708      -26.274      182.433      128.144       78.582    33281.874    16420.930     6175.126       11.607        2.794      419.044       78.907        0.035      351.042       32.649      860.282
08/02/2014  17:20:00     -365.606     -235.899      -21.570      160.451      112.177       70.826    25744.554    12583.681     5016.337       11.655        2.167      435.105       69.794        0.026      351.075       32.708      860.258
08/02/2014  17:21:00     -334.810     -190.599       -2.324      198.068      117.903       76.856    39230.883    13901.118     5906.799       10.372        2.952      385.261       96.373        0.063      351.206       32.935      860.270
08/02/2014  17:22:00     -314.191     -116.500       -9.519      172.972       92.397       57.421    29919.330     8537.251     3297.145        7.706        2.088      335.094       70.730        0.045      351.264       33.038      860.265
08/02/2014  17:23:00     -297.714     -100.639        0.088      176.452      132.967       76.615    31135.480    17680.091     5869.885        7.671        2.734      314.264       79.795        0.064      351.304       33.107      860.273
08/02/2014  17:24:00     -383.497      -86.774      -11.064      222.739      130.685       82.666    49612.508    17078.527     6833.704       11.411        3.676      393.192      100.418        0.065      351.172       32.875      860.260
08/02/2014  17:25:00     -568.877     -156.293      -22.780      199.459      169.841      103.534    39783.803    28845.925    10719.292       21.394        3.967      589.956       98.802        0.028      351.024       32.618      860.252
08/02/2014  17:26:00     -257.309     -143.021       15.132      155.635      132.162       78.470    24222.311    17466.880     6157.479        6.736        2.392      294.386       73.278        0.062      351.180       32.891      860.297
08/02/2014  17:27:00     -420.955     -182.373       -7.997      202.863      168.897       91.189    41153.535    28526.224     8315.499       14.425        3.900      458.763       99.760        0.047      351.103       32.755      860.271
08/02/2014  17:28:00     -314.116      -93.799      -10.054      124.814      123.362       62.288    15578.436    15218.227     3879.741        7.112        1.734      327.822       59.373        0.033      351.202       32.928      860.280
08/02/2014  17:29:00     -215.517      -81.546       10.454      224.437      150.773       97.032    50372.089    22732.470     9415.205        6.785        4.126      230.429      110.210        0.229      351.330       33.153      860.286
08/02/2014  17:30:00     -431.561     -139.107      -13.375      197.560      154.141       82.924    39029.924    23759.309     6876.409       13.771        3.483      453.426       94.968        0.044      351.098       32.748      860.280
08/02/2014  17:31:00     -378.627     -182.122        1.695      201.443      173.200       82.144    40579.201    29998.404     6747.557       12.691        3.866      420.151      101.610        0.058      351.121       32.787      860.284
08/02/2014  17:32:00     -345.897     -263.364        5.690      201.278      167.855       92.254    40512.794    28175.417     8510.728       13.310        3.860      434.747       88.159        0.041      351.054       32.670      860.287
08/02/2014  17:33:00     -345.818     -239.090      -24.802      146.477      139.228       64.067    21455.378    19384.467     4104.588       11.115        2.247      420.422       71.283        0.029      350.921       32.438      860.277
08/02/2014  17:34:00     -300.324      -71.008       -8.400      118.176      107.908       55.556    13965.608    11644.123     3086.522        6.200        1.435      308.604       51.472        0.028      351.159       32.854      860.282
08/02/2014  17:35:00     -358.240       28.819      -17.745      184.915      147.124       83.907    34193.565    21645.457     7040.421        9.617        3.144      359.397       81.595        0.052      351.238       32.991      860.289
08/02/2014  17:36:00     -213.029      -58.795        0.480      159.621      102.006       59.558    25478.799    10405.133     3547.115        4.413        1.972      220.993       74.943        0.115      351.407       33.289      860.286
08/02/2014  17:37:00     -487.676       18.846      -44.211      161.361      105.439       59.218    26037.391    11117.391     3506.769       14.039        2.033      488.040       69.210        0.020      351.143       32.828      860.270
08/02/2014  17:38:00     -256.142        5.672       -0.416      165.770      113.686       69.410    27479.848    12924.588     4817.706        5.542        2.261      256.205       71.215        0.077      351.277       33.060      860.235
08/02/2014  17:39:00     -272.647      -44.163        5.385      179.472      126.977       86.159    32210.074    16123.193     7423.394        6.603        2.788      276.201       87.188        0.100      351.349       33.188      860.235
08/02/2014  17:40:00     -257.296      -22.262        2.524      229.160      110.956       89.525    52514.505    12311.200     8014.764        6.976        3.642      258.257       93.971        0.132      351.300       33.099      860.231
08/02/2014  17:41:00     -444.539      -45.088      -31.740      139.271      164.489       70.450    19396.431    27056.750     4963.248       12.603        2.571      446.820       67.388        0.023      351.078       32.712      860.216
08/02/2014  17:42:00     -319.111      -39.619      -14.741      150.022      146.308       78.519    22506.717    21405.940     6165.240        7.684        2.504      321.561       72.754        0.051      351.213       32.949      860.195
08/02/2014  17:43:00     -301.769       36.269      -28.631      119.314      105.295       73.401    14235.814    11086.972     5387.755        6.195        1.536      303.941       69.534        0.052      351.254       33.019      860.190
08/02/2014  17:44:00     -359.821     -174.970        8.607      233.356      194.356       93.064    54454.952    37774.282     8660.976       13.050        5.045      400.107      116.651        0.085      351.168       32.870      860.157
08/02/2014  17:45:00     -282.242     -106.648        1.822      204.882      210.115      101.268    41976.707    44148.223    10255.110        9.369        4.819      301.719      103.852        0.118      351.149       32.836      860.160
08/02/2014  17:46:00     -355.778     -140.127       -6.439      271.855      173.919       96.507    73905.239    30247.959     9313.539       12.984        5.673      382.378      127.221        0.111      351.103       32.756      860.178
08/02/2014  17:47:00     -378.072     -137.047       -3.194      238.233      137.140       79.077    56755.069    18807.340     6253.216       12.176        4.091      402.145      101.925        0.064      351.027       32.625      860.188
08/02/2014  17:48:00     -397.314     -280.830       -9.507      186.661      140.319       84.531    34842.497    19689.345     7145.419       14.923        3.084      486.543       95.396        0.038      350.796       32.223      860.161
08/02/2014  17:49:00     -254.956     -161.949      -13.889      206.810      109.072       97.027    42770.554    11896.671     9414.151        7.774        3.204      302.043      109.399        0.131      350.950       32.492      860.154
08/02/2014  17:50:00     -325.254     -215.228        8.201      314.118      194.508       82.948    98670.100    37833.490     6880.309       14.775        7.169      390.017      103.336        0.070      351.031       32.632      860.155
08/02/2014  17:51:00     -359.976     -148.485      -11.089      152.547      156.936       71.234    23270.495    24629.044     5074.241       10.235        2.649      389.397       68.284        0.031      351.124       32.793      860.190
08/02/2014  17:52:00     -341.047     -177.766       -8.776      178.308      115.057       68.573    31793.662    13238.190     4702.202        9.885        2.487      384.595       66.657        0.030      350.992       32.563      860.179
08/02/2014  17:53:00     -166.858     -131.231       18.080      139.349       76.607       72.019    19418.270     5868.665     5186.676        3.793        1.524      212.281       77.262        0.132      351.126       32.796      860.168
08/02/2014  17:54:00     -262.787     -187.715       -1.596      163.270      136.855       71.878    26657.077    18729.312     5166.479        7.741        2.528      322.945       80.739        0.063      351.075       32.707      860.142
08/02/2014  17:55:00     -395.420     -303.938      -14.062      246.522      181.383      108.706    60773.285    32899.954    11816.888       17.719        5.275      498.734      127.482        0.065      351.024       32.618      860.144
08/02/2014  17:56:00     -491.455     -274.327      -23.361      204.893      172.048       86.281    41981.296    29600.616     7444.439       19.816        3.951      562.835       82.247        0.021      350.907       32.417      860.152
08/02/2014  17:57:00     -208.796     -123.462        9.668      140.143      134.627       65.661    19640.174    18124.446     4311.388        5.050        2.104      242.566       69.015        0.081      351.029       32.627      860.142
08/02/2014  17:58:00     -217.177     -140.244       16.585      160.791      110.314       71.513    25853.806    12169.136     5114.074        5.511        2.157      258.523       83.262        0.104      351.044       32.651      860.142
08/02/2014  17:59:00     -214.317     -117.753        3.465      152.200      123.278       56.345    23164.905    15197.500     3174.780        5.067        2.077      244.535       68.581        0.079      351.062       32.685      860.152
08/02/2014  18:00:00     -336.879      -43.375      -12.384      178.997      149.942       69.166    32040.057    22482.564     4783.907        8.740        2.965      339.660       72.815        0.046      351.090       32.733      860.135
08/02/2014  18:01:00     -563.427     -128.408      -27.897      206.417      199.612       99.079    42607.850    39845.016     9816.635       21.348        4.613      577.875      104.067        0.032      350.960       32.507      860.133
08/02/2014  18:02:00     -342.319     -182.158       -8.694      215.636      190.885       91.360    46498.935    36437.173     8346.576       12.084        4.564      387.768      100.886        0.068      350.925       32.449      860.131
08/02/2014  18:03:00     -366.055     -235.836      -24.220      180.325      148.225       91.937    32516.983    21970.680     8452.366       12.656        3.147      435.448      108.452        0.062      350.801       32.232      860.131
08/02/2014  18:04:00     -212.437       15.158       -3.155      173.279      124.510       65.490    30025.752    15502.832     4289.004        4.758        2.491      212.977       63.147        0.088      350.952       32.495      860.117
08/02/2014  18:05:00     -329.285      -52.913        5.165      271.045      138.982       78.114    73465.127    19315.942     6101.806       10.505        4.944      333.509       98.379        0.087      350.969       32.524      860.126
08/02/2014  18:06:00     -396.585     -163.409      -10.610      225.366      192.530       95.045    50789.939    37067.716     9033.458       14.047        4.845      428.932      110.977        0.067      350.731       32.111      860.153
08/02/2014  18:07:00     -236.185     -175.737       -8.891      181.753      156.335       88.512    33034.070    24440.584     7834.411        7.601        3.265      294.393       91.531        0.097      350.822       32.269      860.158
08/02/2014  18:08:00     -226.804     -124.017        6.888      209.188      141.047       90.777    43759.664    19894.281     8240.377        6.937        3.595      258.496      117.230        0.206      350.788       32.209      860.171
08/02/2014  18:09:00     -285.748      -75.233      -24.285      110.620      134.358       62.217    12236.803    18052.006     3870.947        6.102        1.708      295.486       40.571        0.019      350.875       32.361      860.166
08/02/2014  18:10:00     -142.040      -58.742        4.248      116.703       92.297       62.187    13619.620     8518.828     3867.266        2.482        1.300      153.707       62.668        0.166      351.028       32.627      860.136
08/02/2014  18:11:00     -264.352      -51.298        9.681      206.752      160.483       98.363    42746.345    25754.881     9675.374        7.538        3.909      269.283       97.697        0.132      350.923       32.445      860.134
08/02/2014  18:12:00     -364.780      -98.928        5.618      231.301      188.099       99.367    53500.037    35381.311     9873.760       12.080        4.938      377.956      101.304        0.072      350.807       32.242      860.126
08/02/2014  18:13:00     -225.290     -134.044       17.053      216.051      133.668       98.066    46677.838    17867.049     9617.006        7.157        3.708      262.151      108.721        0.172      350.852       32.320      860.143
08/02/2014  18:14:00     -236.067     -110.393       -7.623      153.679      150.294       84.136    23617.088    22588.407     7078.824        6.062        2.664      260.603       91.027        0.122      350.872       32.357      860.171
08/02/2014  18:15:00     -255.457       -6.002        0.777      167.981      125.400       72.740    28217.746    15725.198     5291.135        5.725        2.462      255.528       89.251        0.122      350.911       32.424      860.168
08/02/2014  18:16:00     -357.966       29.489      -36.623      138.888      122.623       62.988    19290.011    15036.462     3967.545        8.431        1.915      359.178       58.503        0.027      350.783       32.199      860.162
08/02/2014  18:17:00     -357.189      -42.330      -25.933      184.012      138.768       67.223    33860.380    19256.456     4518.896        9.383        2.882      359.689       77.274        0.046      350.776       32.187      860.143
08/02/2014  18:18:00     -436.341      -65.511       -3.588      237.004      160.011       93.933    56170.726    25603.462     8823.326       14.263        4.530      441.231      112.293        0.065      350.719       32.089      860.120
08/02/2014  18:19:00     -393.149     -140.542      -23.647      197.785      166.111       87.117    39118.853    27592.961     7589.329       12.457        3.715      417.514       94.310        0.051      350.631       31.935      860.135
08/02/2014  18:20:00     -275.814     -176.585      -10.440      227.867      159.905       90.415    51923.574    25569.705     8174.905        9.650        4.283      327.499      112.416        0.118      350.578       31.844      860.160
08/02/2014  18:21:00     -221.212     -142.612       12.178      166.417      139.008       79.034    27694.560    19323.104     6246.422        6.133        2.663      263.197       90.864        0.119      350.596       31.874      860.189
08/02/2014  18:22:00     -125.866      -75.190        7.629      117.896      113.928       63.641    13899.561    12979.676     4050.155        2.624        1.546      146.615       60.182        0.168      350.589       31.862      860.201
08/02/2014  18:23:00     -278.001      -93.595      -16.924      148.930      118.465       73.973    22180.130    14033.888     5471.953        6.400        2.084      293.333       72.807        0.062      350.493       31.693      860.189
08/02/2014  18:24:00     -208.950     -107.231       -1.143      129.031      132.982       81.687    16649.055    17684.293     6672.734        4.807        2.050      234.859       78.765        0.112      350.518       31.736      860.184
08/02/2014  18:25:00     -178.544     -120.837        1.056      150.343      114.394       67.303    22602.896    13086.029     4529.669        4.334        2.011      215.591       66.437        0.095      350.522       31.744      860.179
08/02/2014  18:26:00     -433.774      -62.561      -36.945      129.311      137.129       70.288    16721.416    18804.322     4940.394       11.694        2.023      438.262       70.804        0.026      350.491       31.690      860.208
08/02/2014  18:27:00     -566.624      -36.885      -38.215      161.127      122.467       77.162    25961.809    14998.091     5954.006       18.539        2.346      567.824       84.488        0.022      350.447       31.613      860.199
08/02/2014  18:28:00     -439.739      -79.688       -8.221      168.607      137.096       79.792    28428.314    18795.408     6366.842       12.668        2.680      446.901       86.361        0.037      350.453       31.625      860.192
08/02/2014  18:29:00     -277.013      -81.712       -3.660      207.613      122.651       77.087    43103.249    15043.286     5942.478        7.374        3.204      288.813       58.794        0.041      350.400       31.533      860.198
08/02/2014  18:30:00     -329.230      -46.199      -14.390      132.001      129.278       67.056    17424.324    16712.803     4496.528        7.468        1.932      332.456       60.233        0.033      350.422       31.571      860.207
08/02/2014  18:31:00     -343.756      -87.434      -27.543      152.416      127.992       65.869    23230.631    16382.053     4338.744        8.525        2.198      354.701       66.034        0.035      350.429       31.583      860.226
08/02/2014  18:32:00     -358.129      -99.492      -12.947      164.338      123.640       69.775    27006.820    15286.832     4868.519        9.273        2.358      371.692       76.286        0.042      350.393       31.523      860.213
08/02/2014  18:33:00     -504.338      -62.762      -48.053      183.915      163.648       82.271    33824.596    26780.631     6768.587       16.398        3.369      508.228       74.281        0.021      350.364       31.471      860.230
08/02/2014  18:34:00     -422.227      -25.383      -18.570      206.195      126.295       87.319    42516.200    15950.539     7624.556       12.266        3.305      422.989      105.344        0.062      350.367       31.477      860.226
08/02/2014  18:35:00     -466.514      -58.826      -34.971      251.553      186.931      107.971    63278.968    34943.125    11657.763       16.608        5.494      470.209      118.376        0.063      350.334       31.418      860.234
08/02/2014  18:36:00     -513.285      -21.925      -28.746      193.207      143.831       90.370    37329.032    20687.470     8166.798       16.546        3.309      513.753       92.793        0.033      350.351       31.449      860.233
08/02/2014  18:37:00     -330.508      -56.273      -23.118      130.433       96.774       64.425    17012.675     9365.201     4150.587        7.173        1.526      335.264       69.317        0.043      350.358       31.461      860.239
08/02/2014  18:38:00     -493.448      -61.958      -25.123      148.358      129.710       70.463    22010.135    16824.689     4965.068       14.587        2.190      497.323       60.008        0.015      350.361       31.466      860.263
08/02/2014  18:39:00     -434.244      -56.721      -28.835      155.296      137.918       82.636    24116.800    19021.332     6828.753       12.128        2.498      437.933       79.748        0.033      350.374       31.492      860.257
08/02/2014  18:40:00     -471.345      -12.210      -32.206      147.724      149.856       75.549    21822.375    22456.760     5707.617       13.666        2.499      471.503       82.725        0.031      350.357       31.460      860.266
08/02/2014  18:41:00     -333.529     -124.246       -4.483      141.187      182.992       76.629    19933.702    33486.171     5871.970        9.298        2.965      355.919       74.436        0.044      350.388       31.512      860.233
08/02/2014  18:42:00     -266.856      -15.970      -11.605      160.669       86.897       62.632    25814.465     7551.029     3922.791        5.444        1.864      267.333       72.305        0.073      350.406       31.545      860.268
08/02/2014  18:43:00     -272.011      -80.976      -20.942      197.508      111.756       75.655    39009.390    12489.346     5723.750        6.909        2.861      283.808       86.586        0.093      350.349       31.446      860.257
08/02/2014  18:44:00     -323.163      -48.704       -2.644      169.796      137.859       70.312    28830.702    19004.981     4943.844        7.979        2.639      326.812       71.173        0.047      350.349       31.444      860.261
08/02/2014  18:45:00     -173.311      -61.892       -1.252      153.039      141.471       77.902    23420.906    20013.983     6068.768        4.168        2.475      184.031       83.806        0.207      350.350       31.448      860.276
08/02/2014  18:46:00     -395.024     -144.663        2.248      261.851      200.843       94.219    68566.162    40338.056     8877.171       14.736        5.889      420.680      112.444        0.071      350.385       31.509      860.279
08/02/2014  18:47:00     -440.196      -75.414      -29.743      191.067      136.679       82.276    36506.430    18681.087     6769.291       13.114        3.098      446.610       91.227        0.042      350.396       31.528      860.295
08/02/2014  18:48:00     -578.656       -0.896      -51.049      165.232      147.435       88.942    27301.743    21736.940     7910.626       19.719        2.847      578.657       89.565        0.024      350.383       31.503      860.307
08/02/2014  18:49:00     -383.593      -94.511      -17.703      217.003      151.964       97.803    47090.497    23092.936     9565.514       11.805        3.987      395.064      112.289        0.081      350.397       31.529      860.306
08/02/2014  18:50:00     -394.815     -133.397      -21.918      209.045      146.702       77.131    43699.657    21521.439     5949.174       12.265        3.559      416.742       94.322        0.051      350.405       31.543      860.321
08/02/2014  18:51:00     -265.310     -178.816       -1.017      159.874      115.626       73.980    25559.617    13369.286     5472.986        7.337        2.220      319.944       77.704        0.059      350.374       31.488      860.320
08/02/2014  18:52:00     -384.828     -230.497      -13.715      139.557      152.847       84.592    19476.292    23362.184     7155.734       12.569        2.500      448.578       74.394        0.028      350.329       31.410      860.309
08/02/2014  18:53:00     -409.289      -29.289      -23.767      215.785      113.827       72.915    46563.133    12956.524     5316.555       11.688        3.242      410.336       82.679        0.041      350.364       31.473      860.336
08/02/2014  18:54:00     -434.476      -82.601      -30.174      139.589      128.712       76.682    19485.175    16566.673     5880.073       11.921        2.097      442.259       63.099        0.020      350.325       31.403      860.349
08/02/2014  18:55:00     -338.422      -59.154      -19.030      199.921      176.437       86.069    39968.221    31130.134     7407.806        9.843        3.925      343.553      100.281        0.085      350.309       31.378      860.347
08/02/2014  18:56:00     -330.127     -205.011       -3.968      211.237      207.224      100.365    44621.157    42941.625    10073.189       12.431        4.882      388.604       95.898        0.061      350.281       31.326      860.323
08/02/2014  18:57:00     -527.775      -68.696      -25.699      200.561      171.664       84.706    40224.658    29468.589     7175.182       18.038        3.843      532.227       85.436        0.026      350.272       31.312      860.348
08/02/2014  18:58:00     -380.902     -189.225       -9.546      198.291      207.013       92.553    39319.129    42854.527     8566.030       13.584        4.537      425.315       99.224        0.054      350.254       31.279      860.347
08/02/2014  18:59:00     -197.202      -32.145        8.749      151.026       78.799       64.787    22808.723     6209.301     4197.334        3.660        1.661      199.805       79.234        0.157      350.316       31.389      860.376
08/02/2014  19:00:00     -385.977      -98.540      -23.747      151.449      133.027       58.003    22936.664    17696.305     3364.334       10.162        2.200      398.357       57.511        0.021      350.256       31.283      860.393
08/02/2014  19:01:00     -331.962     -163.991      -10.703      146.966      119.317       57.910    21599.081    14236.465     3353.538        8.819        1.959      370.259       57.079        0.024      350.224       31.228      860.358
08/02/2014  19:02:00     -392.621     -102.676      -39.651      245.841      158.446       75.236    60438.002    25105.232     5660.530       12.872        4.560      405.824       89.310        0.048      350.256       31.282      860.388
08/02/2014  19:03:00     -388.034     -127.538      -21.675      152.505      127.685       73.260    23257.808    16303.447     5367.055       10.611        2.246      408.456       76.031        0.035      350.207       31.197      860.397
08/02/2014  19:04:00     -427.043     -164.471      -20.711      188.503      211.187       95.391    35533.466    44600.040     9099.369       14.952        4.462      457.620      110.327        0.058      350.200       31.184      860.407
08/02/2014  19:05:00     -526.639     -111.501      -39.013      233.062      180.987       91.752    54317.765    32756.312     8418.354       19.338        4.775      538.313       96.444        0.032      350.189       31.163      860.417
08/02/2014  19:06:00     -531.994     -129.094      -20.485      290.249      146.757       85.742    84244.629    21537.492     7351.651       20.660        5.657      547.433       98.636        0.032      350.130       31.063      860.396
08/02/2014  19:07:00     -415.059     -184.090      -30.172      197.627      178.734       93.259    39056.473    31945.878     8697.294       14.337        3.985      454.052       94.580        0.043      350.151       31.098      860.427
08/02/2014  19:08:00     -338.075     -168.181        0.444      243.075      151.012       92.563    59085.657    22804.700     8567.952       11.650        4.523      377.597       91.512        0.059      350.162       31.118      860.436
08/02/2014  19:09:00     -411.679      -88.826      -27.484      197.609      158.275       88.855    39049.201    25051.031     7895.271       12.505        3.600      421.153       94.094        0.050      350.146       31.091      860.470
08/02/2014  19:10:00     -199.232      -34.121       10.000      153.612      121.418       73.934    23596.673    14742.387     5466.205        4.237        2.190      202.132       82.803        0.168      350.152       31.101      860.470
08/02/2014  19:11:00     -435.064      -78.690      -16.879      220.426      154.529       80.878    48587.601    23879.178     6541.301       13.737        3.950      442.123      105.178        0.057      350.126       31.056      860.490
08/02/2014  19:12:00     -451.575      -24.105      -37.803      177.349      170.565       76.126    31452.715    29092.410     5795.118       13.612        3.317      452.218       79.180        0.031      350.129       31.060      860.492
08/02/2014  19:13:00     -335.418       17.896       -9.975      162.383      128.168       73.969    26368.168    16426.920     5471.464        8.059        2.413      335.895       66.305        0.039      350.119       31.042      860.514
08/02/2014  19:14:00     -397.472       18.729      -27.847      190.546      123.780       63.754    36307.820    15321.578     4064.536       10.739        2.785      397.913       54.031        0.018      350.096       31.004      860.541
08/02/2014  19:15:00     -308.573     -107.311       -1.594      161.858      138.808       79.623    26198.132    19267.562     6339.797        7.926        2.590      326.701       80.386        0.061      350.085       30.985      860.550
08/02/2014  19:16:00     -192.692     -100.231       10.557      186.780      150.852       80.356    34886.914    22756.416     6457.107        5.568        3.205      217.201       95.111        0.192      350.073       30.965      860.546
08/02/2014  19:17:00     -202.543      -62.383       -5.909      138.489      108.104       63.664    19179.302    11686.545     4053.124        3.993        1.746      211.932       61.658        0.085      350.125       31.056      860.567
08/02/2014  19:18:00     -175.273      -45.372       -1.214      113.550      100.862       53.244    12893.600    10173.200     2834.897        2.934        1.295      181.050       47.976        0.070      350.103       31.017      860.580
08/02/2014  19:19:00     -306.513     -248.459       -8.874      135.426      124.941       82.635    18340.096    15610.138     6828.603        9.826        2.039      394.566       79.052        0.040      350.056       30.934      860.588
08/02/2014  19:20:00     -240.951     -104.985      -20.758      121.898      132.405       70.277    14859.190    17531.060     4938.887        5.341        1.866      262.830       68.634        0.068      350.093       30.998      860.588
08/02/2014  19:21:00     -208.810      -46.629       -2.382      136.370       80.535       46.420    18596.794     6485.962     2154.811        3.650        1.362      213.952       44.682        0.044      350.122       31.050      860.606
08/02/2014  19:22:00     -322.810      -65.492      -17.607      191.965      154.975       68.643    36850.560    24017.209     4711.861        8.718        3.279      329.387       84.648        0.066      350.066       30.952      860.611
08/02/2014  19:23:00     -248.089     -140.803        8.182      186.692      114.111       83.132    34853.873    13021.349     6910.935        6.810        2.739      285.261       88.307        0.096      350.077       30.971      860.634
08/02/2014  19:24:00     -348.023     -110.482      -16.713      176.099      132.263       64.291    31010.976    17493.370     4133.380        9.311        2.632      365.139       78.445        0.046      350.068       30.956      860.670
08/02/2014  19:25:00     -138.216      -66.994       14.860      101.184       93.649       53.412    10238.256     8770.186     2852.856        2.283        1.093      153.596       50.641        0.109      350.057       30.938      860.709
08/02/2014  19:26:00     -325.128      -50.709      -19.539      222.388      114.105       70.172    49456.639    13019.896     4924.150        8.802        3.370      329.058       83.175        0.064      350.027       30.885      860.735
08/02/2014  19:27:00     -306.940     -119.563      -16.900      170.461      135.681       71.611    29056.834    18409.279     5128.073        8.068        2.630      329.404       65.150        0.039      349.987       30.816      860.747
08/02/2014  19:28:00     -287.571     -101.582       -2.497      183.601      147.841       88.699    33709.449    21856.925     7867.554        7.822        3.172      304.985       94.013        0.095      349.975       30.795      860.757
08/02/2014  19:29:00     -380.773      -47.482      -11.693      218.309      168.371      102.227    47658.803    28348.704    10450.362       11.690        4.323      383.722      109.760        0.082      349.925       30.709      860.777
08/02/2014  19:30:00     -296.681      -95.675      -20.831      152.031      132.522       70.775    23113.504    17561.961     5009.138        7.164        2.284      311.726       71.880        0.053      349.920       30.699      860.784
08/02/2014  19:31:00     -340.821     -136.782      -17.321      130.083      137.954       70.710    16921.575    19031.221     4999.940        8.805        2.048      367.244       60.655        0.027      349.878       30.626      860.810
08/02/2014  19:32:00     -392.320      -48.208      -11.864      163.160      140.950       77.314    26621.295    19866.814     5977.462       10.441        2.623      395.271       77.133        0.038      349.844       30.566      860.814
08/02/2014  19:33:00     -231.767      -68.534       -2.347      129.369      113.716       65.392    16736.301    12931.409     4276.101        4.617        1.697      241.688       54.913        0.052      349.822       30.530      860.823
08/02/2014  19:34:00     -267.285      -99.059      -11.789      206.819      137.602       73.925    42774.226    18934.218     5464.930        7.427        3.359      285.051       81.107        0.081      349.819       30.524      860.832
08/02/2014  19:35:00     -306.599     -113.207       -7.166      160.423      117.605       55.470    25735.527    13830.927     3076.886        7.475        2.132      326.831       67.831        0.043      349.774       30.445      860.854
08/02/2014  19:36:00     -405.466      -38.067      -11.336      189.981      145.377       85.718    36092.863    21134.439     7347.646       11.526        3.229      407.249      104.370        0.066      349.761       30.422      860.865
08/02/2014  19:37:00     -310.771      -27.203       -5.581      140.784      127.628       54.534    19820.027    16288.966     2973.925        6.821        1.954      311.959       57.364        0.034      349.756       30.415      860.873
08/02/2014  19:38:00     -229.913      -79.021      -12.690      108.002       84.363       52.818    11664.481     7117.120     2789.780        4.041        1.079      243.114       53.497        0.048      349.740       30.387      860.890
08/02/2014  19:39:00     -199.885      -36.472      -12.867      128.966       85.746       60.557    16632.351     7352.396     3667.139        3.455        1.383      203.185       61.827        0.093      349.744       30.393      860.891
08/02/2014  19:40:00     -165.404     -114.243       -8.561      131.005       86.883       58.625    17162.411     7548.740     3436.935        3.431        1.407      201.022       62.447        0.097      349.713       30.339      860.893
08/02/2014  19:41:00     -202.203      -44.781        8.398      130.802      103.345       71.682    17109.054    10680.204     5138.331        3.794        1.646      207.102       72.886        0.124      349.683       30.286      860.868
08/02/2014  19:42:00     -200.651      -15.629       -9.950       93.054       67.287       43.732     8659.044     4527.526     1912.453        2.785        0.755      201.258       46.158        0.053      349.713       30.339      860.880
08/02/2014  19:43:00      -74.428      -76.109       17.585       89.164       70.785       42.915     7950.237     5010.486     1841.662        1.322        0.740      106.452       49.917        0.220      349.639       30.212      860.911
08/02/2014  19:44:00     -148.471      -43.865       -3.660      130.143       77.648       53.923    16937.160     6029.240     2907.655        2.492        1.294      154.816       54.383        0.123      349.659       30.246      860.916
08/02/2014  19:45:00     -178.153     -123.608        1.421      144.487      107.216       64.544    20876.497    11495.297     4165.915        4.177        1.827      216.835       72.433        0.112      349.636       30.206      860.920
08/02/2014  19:46:00     -253.845      -62.602        3.503      136.195      139.031       63.446    18548.960    19329.655     4025.445        5.513        2.095      261.450       69.121        0.070      349.631       30.197      860.934
08/02/2014  19:47:00     -168.663     -107.491       -2.133      126.746       80.781       51.733    16064.500     6525.552     2676.345        3.263        1.263      200.004       67.528        0.114      349.593       30.132      860.966
08/02/2014  19:48:00     -251.432     -137.680       -5.063      175.092      122.506       57.986    30657.141    15007.724     3362.392        6.560        2.451      286.660       70.586        0.061      349.601       30.145      860.974
08/02/2014  19:49:00     -282.241     -169.683       -8.578      215.076       97.911       75.786    46257.873     9586.597     5743.566        8.504        3.079      329.321       87.658        0.071      349.609       30.159      860.982
08/02/2014  19:50:00     -248.535     -132.363       -0.452      211.254      156.338       76.813    44628.352    24441.480     5900.276        7.712        3.749      281.584       96.618        0.118      349.572       30.097      860.997
08/02/2014  19:51:00     -187.890      -44.207       -5.892      141.320      123.913       74.776    19971.356    15354.552     5591.512        3.910        2.046      193.020       73.485        0.145      349.531       30.025      861.023
08/02/2014  19:52:00     -184.402      -81.476        3.636      122.509      110.519       56.537    15008.457    12214.479     3196.444        3.553        1.521      201.600       66.532        0.109      349.525       30.014      861.043
08/02/2014  19:53:00     -409.442      -54.775      -23.982      170.489      133.036       75.379    29066.456    17698.459     5681.998       11.182        2.622      413.089       77.171        0.035      349.534       30.029      861.065
08/02/2014  19:54:00     -405.375      -67.000       -6.526      168.686      147.305       78.276    28454.939    21698.749     6127.070       11.256        2.814      410.875       80.877        0.039      349.512       29.990      861.068
08/02/2014  19:55:00     -378.330      -82.523       -6.781      185.751      145.630       83.587    34503.578    21208.082     6986.803       10.633        3.135      387.226       94.595        0.060      349.498       29.966      861.083
08/02/2014  19:56:00     -376.447      -74.566       -4.984      174.875      130.509       75.291    30581.280    17032.679     5668.797       10.028        2.664      383.761       81.203        0.045      349.504       29.976      861.097
08/02/2014  19:57:00     -333.933     -136.604        2.218      164.980      143.229       71.839    27218.557    20514.504     5160.858        9.152        2.645      360.793       78.183        0.047      349.496       29.964      861.129
08/02/2014  19:58:00     -231.240      -25.426      -12.288      141.817       98.129       51.678    20112.063     9629.397     2670.604        4.333        1.621      232.633       62.262        0.072      349.482       29.940      861.130
08/02/2014  19:59:00     -142.407      -97.395        2.392      122.362       88.803       57.209    14972.381     7885.943     3272.921        2.795        1.307      172.527       63.345        0.135      349.457       29.899      861.114
08/02/2014  20:00:00     -217.492     -109.563       -9.833      104.532       73.174       49.533    10927.039     5354.464     2453.470        3.907        0.937      243.530       47.440        0.038      349.453       29.888      861.133
08/02/2014  20:01:00     -328.819        9.262      -25.539      139.068       97.089       56.650    19339.893     9426.336     3209.224        7.041        1.599      328.949       62.561        0.036      349.423       29.838      861.132
08/02/2014  20:02:00     -332.652      -57.488      -10.052      132.484      121.958       65.602    17552.088    14873.809     4303.608        7.539        1.836      337.583       63.027        0.035      349.431       29.849      861.121
08/02/2014  20:03:00     -197.640      -55.658        5.323      135.337      118.064       56.635    18316.136    13939.220     3207.524        3.882        1.773      205.328       65.322        0.101      349.380       29.762      861.127
08/02/2014  20:04:00     -156.259     -116.661       15.091      160.061      140.992       83.553    25619.375    19878.665     6981.143        4.536        2.624      195.004       92.821        0.227      349.393       29.785      861.125
08/02/2014  20:05:00     -165.097      -85.815       10.945      133.232      140.347       71.516    17750.704    19697.309     5114.577        3.864        2.128      186.068       72.820        0.153      349.384       29.769      861.136
08/02/2014  20:06:00     -192.009      -76.418        4.340      133.935       94.247       65.023    17938.641     8882.583     4227.997        3.688        1.552      206.657       55.520        0.072      349.369       29.742      861.156
08/02/2014  20:07:00     -212.298     -123.096       -3.718      103.475       62.790       45.957    10707.022     3942.557     2112.042        3.850        0.838      245.404       50.385        0.042      349.352       29.712      861.164
08/02/2014  20:08:00     -134.103      -73.789        0.424       93.595       79.916       42.723     8759.974     6386.527     1825.243        2.020        0.849      153.063       45.529        0.088      349.316       29.651      861.177
08/02/2014  20:09:00     -186.657      -83.837       -4.672       91.840       86.511       53.261     8434.507     7484.094     2836.738        3.032        0.938      204.621       44.597        0.048      349.309       29.638      861.185
08/02/2014  20:10:00      -74.693      -38.142        2.568      143.147       92.247       74.357    20490.950     8509.498     5529.024        2.078        1.726       83.868       65.371        0.608      349.214       29.477      861.175
08/02/2014  20:11:00     -182.974      -87.607       -2.191      165.858      107.903       55.286    27508.719    11643.030     3056.502        4.168        2.110      202.865       64.512        0.101      349.265       29.564      861.193
08/02/2014  20:12:00     -212.888     -138.065       -8.484      162.080      118.777       70.754    26269.997    14108.024     5006.066        5.491        2.269      253.738       78.418        0.096      349.261       29.556      861.185
08/02/2014  20:13:00     -189.701      -74.940       -2.516      104.374       86.535       49.133    10893.916     7488.337     2414.014        3.120        1.040      203.967       42.573        0.044      349.267       29.568      861.203
08/02/2014  20:14:00     -212.909      -60.549      -19.219      126.827      108.998       52.014    16085.034    11880.501     2705.494        4.001        1.534      221.352       48.440        0.048      349.258       29.552      861.234
08/02/2014  20:15:00     -363.532     -135.506      -13.430      117.354      109.395       66.682    13771.984    11967.361     4446.462        9.044        1.509      387.966       48.904        0.016      349.243       29.525      861.236
08/02/2014  20:16:00     -246.796      -91.028      -13.904       88.055      102.964       64.376     7753.659    10601.550     4144.260        4.594        1.125      263.048       53.064        0.041      349.236       29.513      861.271
08/02/2014  20:17:00     -188.892      -46.408        9.730      133.559       81.784       52.414    17838.041     6688.680     2747.194        3.260        1.364      194.510       63.324        0.106      349.175       29.409      861.295
08/02/2014  20:18:00     -347.507      -68.330      -28.078      198.549      110.526       66.131    39421.899    12215.995     4373.260        9.110        2.801      354.161       87.247        0.061      349.253       29.543      861.310
08/02/2014  20:19:00     -354.400      -84.317      -11.246      136.758       92.851       56.574    18702.727     8621.323     3200.666        8.167        1.526      364.293       64.577        0.031      349.219       29.484      861.326
08/02/2014  20:20:00     -430.484      -71.879      -20.050      155.007      145.812       75.474    24027.202    21261.172     5696.257       12.092        2.549      436.444       73.496        0.028      349.212       29.470      861.311
08/02/2014  20:21:00     -199.864      -67.158       10.192      112.694      113.875       53.514    12699.830    12967.612     2863.717        3.654        1.427      210.845       66.314        0.099      349.187       29.428      861.333
08/02/2014  20:22:00      -71.936       -3.901       13.272       98.894       64.277       41.809     9779.925     4131.534     1747.951        1.051        0.783       72.042       44.433        0.380      349.092       29.266      861.340
08/02/2014  20:23:00     -152.545      -88.368        5.673      126.132       69.677       52.765    15909.196     4854.893     2784.152        2.733        1.177      176.292       69.536        0.156      349.136       29.339      861.364
08/02/2014  20:24:00     -206.194     -102.967        9.086      186.284       98.466       59.782    34701.675     9695.576     3573.907        5.058        2.399      230.474       68.310        0.088      349.128       29.326      861.378
08/02/2014  20:25:00     -128.455     -100.615        8.057      114.286      105.255       61.823    13061.299    11078.543     3822.057        2.732        1.398      163.169       76.505        0.220      349.071       29.226      861.389
08/02/2014  20:26:00     -310.567     -180.846      -10.989      130.858      147.848       76.001    17123.891    21858.947     5776.213        8.701        2.238      359.384       76.830        0.046      349.116       29.303      861.401
08/02/2014  20:27:00     -316.525      -60.957      -19.340      146.489      137.736       64.682    21458.986    18971.138     4183.824        7.444        2.231      322.341       46.468        0.021      349.092       29.262      861.404
08/02/2014  20:28:00     -223.978     -107.054       -2.924      142.119      119.887       77.509    20197.758    14372.939     6007.706        5.110        2.029      248.247       73.034        0.087      349.083       29.246      861.426
08/02/2014  20:29:00     -229.554     -120.173        7.722      125.445       99.760       57.424    15736.455     9952.076     3297.500        4.809        1.449      259.107       64.877        0.063      349.057       29.202      861.447
08/02/2014  20:30:00     -231.847     -177.926        4.881      134.868      121.528       74.433    18189.402    14768.970     5540.252        6.196        1.925      292.251       78.725        0.073      349.098       29.273      861.462
08/02/2014  20:31:00     -265.168     -102.963       -4.858      230.215      154.890       81.396    52998.773    23991.017     6625.230        8.226        4.181      284.457      108.034        0.144      349.066       29.217      861.454
08/02/2014  20:32:00     -229.968      -38.621       17.729      229.437      101.563       74.924    52641.332    10315.085     5613.648        6.162        3.429      233.188      102.398        0.193      349.018       29.134      861.433
08/02/2014  20:33:00     -123.787      -22.568        7.712      107.878       75.373       52.139    11637.736     5681.135     2718.460        1.796        1.002      125.828       46.709        0.138      349.012       29.126      861.428
08/02/2014  20:34:00     -128.254      -63.277        8.533       76.546       64.275       38.817     5859.350     4131.301     1506.798        1.601        0.575      143.014       31.615        0.049      348.982       29.075      861.422
08/02/2014  20:35:00     -301.017     -117.749      -17.344      232.663      129.009       66.574    54132.243    16643.354     4432.161        8.998        3.760      323.228      101.571        0.099      348.998       29.100      861.414
08/02/2014  20:36:00     -379.202     -116.014       -6.675      184.412      144.393       71.588    34007.911    20849.222     5124.818       10.863        2.999      396.552       85.558        0.047      348.976       29.062      861.410
08/02/2014  20:37:00     -231.247     -157.163       -1.561      108.373       88.590       50.622    11744.695     7848.156     2562.556        5.016        1.108      279.599       48.354        0.030      348.983       29.076      861.431
08/02/2014  20:38:00     -238.242     -160.874       -8.035      144.261       99.639       63.657    20811.346     9928.010     4052.237        5.874        1.740      287.472       64.605        0.051      348.978       29.067      861.447
08/02/2014  20:39:00     -333.313     -206.576      -18.152      140.627      127.757       65.361    19775.813    16321.809     4272.010        9.723        2.018      392.137       61.952        0.025      349.004       29.110      861.442
08/02/2014  20:40:00     -309.566     -105.280      -12.457      183.248      130.762       66.562    33579.853    17098.767     4430.503        8.108        2.755      326.979       76.116        0.054      348.961       29.037      861.465
08/02/2014  20:41:00     -178.209     -103.807        7.168      138.874      128.400       63.116    19285.906    16486.525     3983.675        4.116        1.988      206.238       77.712        0.142      348.946       29.011      861.468
08/02/2014  20:42:00     -144.417      -99.447        6.038      111.177       99.919       57.842    12360.255     9983.868     3345.745        2.823        1.284      175.346       58.005        0.109      348.948       29.013      861.481
08/02/2014  20:43:00     -332.923      -90.178       -6.862      148.347      127.453       56.490    22006.752    16244.244     3191.107        8.022        2.072      344.920       52.081        0.023      348.953       29.024      861.490
08/02/2014  20:44:00     -216.728      -21.021       -4.058      108.637       79.864       62.401    11801.963     6378.291     3893.912        3.475        1.104      217.745       63.261        0.084      348.878       28.893      861.522
08/02/2014  20:45:00     -228.725     -120.472       -8.091      114.949      110.834       61.513    13213.197    12284.216     3783.847        4.808        1.464      258.513       50.421        0.038      348.931       28.984      861.564
08/02/2014  20:46:00     -204.988     -152.359        1.605      156.840      112.604       75.457    24598.660    12679.574     5693.688        5.410        2.149      255.408       77.617        0.092      348.913       28.954      861.584
08/02/2014  20:47:00     -290.930     -223.136      -11.905      194.205      129.127       85.690    37715.714    16673.764     7342.819        9.814        3.087      366.647      103.023        0.079      348.915       28.957      861.605
08/02/2014  20:48:00     -143.858      -92.685       11.871      144.035      100.187       68.406    20746.147    10037.441     4679.448        3.244        1.773      171.131       75.537        0.195      348.900       28.930      861.632
08/02/2014  20:49:00     -184.482       -4.563        2.559      110.268       85.450       59.535    12159.098     7301.787     3544.399        2.853        1.150      184.538       55.445        0.090      348.901       28.934      861.637
08/02/2014  20:50:00     -114.534      -53.901        8.981       97.288       86.141       61.267     9464.998     7420.299     3753.675        1.837        1.032      126.583       49.063        0.150      348.833       28.815      861.647
08/02/2014  20:51:00      -77.322       -0.101       16.136       97.716       93.687       45.665     9548.461     8777.207     2085.275        1.332        1.021       77.322       42.381        0.300      348.796       28.752      861.691
08/02/2014  20:52:00     -181.447      -86.150       -4.180      115.102       88.755       44.922    13248.426     7877.490     2017.983        3.175        1.157      200.860       45.152        0.051      348.854       28.852      861.705
08/02/2014  20:53:00      -59.041      -55.398       17.411       82.280       83.009       46.497     6770.072     6890.440     2161.996        1.134        0.791       80.961       45.910        0.322      348.826       28.805      861.719
08/02/2014  20:54:00     -318.276     -182.293      -13.738      139.939      117.794       58.701    19582.924    13875.355     3445.785        8.580        1.845      366.784       69.511        0.036      348.829       28.807      861.738
08/02/2014  20:55:00     -348.577      -66.964      -28.892      126.561      119.710       63.846    16017.726    14330.472     4076.314        8.062        1.721      354.951       59.708        0.028      348.833       28.811      861.757
08/02/2014  20:56:00     -340.378     -103.618      -36.541      109.756       85.037       55.448    12046.487     7231.328     3074.430        7.514        1.118      355.800       56.014        0.025      348.805       28.764      861.778
08/02/2014  20:57:00     -389.871     -113.473       -7.491      174.150      127.192       69.450    30328.380    16177.832     4823.236       10.812        2.566      406.049       70.395        0.030      348.802       28.761      861.770
08/02/2014  20:58:00     -194.652      -29.472        0.734      128.356      118.348       61.755    16475.277    14006.296     3813.623        3.652        1.715      196.871       57.451        0.085      348.765       28.696      861.778
08/02/2014  20:59:00     -180.558     -120.112       20.241      192.498      126.442       73.193    37055.449    15987.630     5357.217        5.291        2.920      216.860       85.935        0.157      348.738       28.650      861.789
08/02/2014  21:00:00     -333.094     -190.450       -9.245      168.399      130.614       74.251    28358.384    17059.978     5513.272        9.911        2.547      383.696       78.773        0.042      348.748       28.668      861.794
08/02/2014  21:01:00     -354.080     -190.932       -0.213      214.076      117.362       73.909    45828.637    13773.946     5462.533       11.343        3.253      402.278       85.289        0.045      348.750       28.672      861.783
08/02/2014  21:02:00     -311.584      -34.874       -3.327      154.929      116.325       63.703    24002.870    13531.531     4058.083        6.994        2.080      313.529       68.860        0.048      348.737       28.647      861.813
08/02/2014  21:03:00     -268.596        4.487        0.190       97.699      100.971       54.077     9545.027    10195.206     2924.280        4.741        1.133      268.634       48.148        0.032      348.749       28.668      861.823
08/02/2014  21:04:00     -248.612      -47.392      -10.365      113.778       96.169       46.726    12945.459     9248.553     2183.319        4.426        1.219      253.089       47.261        0.035      348.757       28.682      861.849
08/02/2014  21:05:00     -246.311      -29.378        4.166      140.699       71.476       52.146    19796.216     5108.846     2719.169        4.458        1.381      248.057       54.412        0.048      348.725       28.629      861.845
08/02/2014  21:06:00     -326.915      -47.575      -19.031      138.539       77.673       60.050    19193.123     6033.052     3606.060        6.916        1.442      330.359       66.265        0.040      348.725       28.629      861.842
08/02/2014  21:07:00     -255.009      -37.297        0.323      168.263      110.335       62.739    28312.572    12173.787     3936.158        5.541        2.221      257.722       78.538        0.093      348.727       28.633      861.831
08/02/2014  21:08:00     -285.716     -104.576       -7.814      190.023      123.180       78.456    36108.764    15173.203     6155.344        7.502        2.872      304.253       99.159        0.106      348.686       28.561      861.807
08/02/2014  21:09:00     -334.377     -104.989       -2.509      152.474      152.792       64.817    23248.293    23345.339     4201.180        8.681        2.540      350.472       63.147        0.032      348.708       28.597      861.831
08/02/2014  21:10:00     -194.802      -56.683       -0.684      131.929      110.952       63.756    17405.135    12310.305     4064.766        3.746        1.689      202.882       76.932        0.144      348.612       28.432      861.829
08/02/2014  21:11:00     -210.911     -105.487       -8.960      127.471      119.899       56.812    16248.735    14375.888     3227.578        4.476        1.693      235.820       67.390        0.082      348.642       28.483      861.837
08/02/2014  21:12:00     -186.989      -42.435        6.493      153.707      114.686       59.830    23625.834    13152.992     3579.598        3.858        2.018      191.744       73.536        0.147      348.619       28.444      861.824
08/02/2014  21:13:00     -305.815      -45.315      -23.279      117.643      131.958       61.365    13839.928    17412.996     3765.722        6.556        1.751      309.154       53.626        0.030      348.631       28.464      861.825
08/02/2014  21:14:00     -339.402      -29.924      -16.389      106.968      102.493       56.105    11442.206    10504.877     3147.738        7.072        1.255      340.719       52.756        0.024      348.610       28.428      861.843
08/02/2014  21:15:00     -449.785      -41.883      -14.576      189.369      170.533       82.715    35860.767    29081.464     6841.771       13.801        3.589      451.731       69.535        0.024      348.620       28.444      861.829
08/02/2014  21:16:00     -466.148      -94.249      -11.398      222.201      138.234       78.958    49373.398    19108.713     6234.424       15.050        3.736      475.580       96.400        0.041      348.617       28.439      861.844
08/02/2014  21:17:00     -521.810     -128.516      -34.319      189.813      131.831       68.316    36029.068    17379.454     4667.018       17.402        2.904      537.403       74.627        0.019      348.607       28.422      861.865
08/02/2014  21:18:00     -318.719      -84.113      -22.046      158.290      123.720       59.241    25055.700    15306.532     3509.476        7.650        2.194      329.631       68.078        0.043      348.573       28.363      861.872
08/02/2014  21:19:00     -267.151      -50.129        0.121      151.524       91.908       68.516    22959.584     8447.086     4694.483        5.498        1.805      271.813       81.949        0.091      348.518       28.270      861.886
08/02/2014  21:20:00     -266.442      -46.235       -9.441      125.903      125.038       59.664    15851.639    15634.511     3559.818        5.413        1.752      270.424       66.946        0.061      348.519       28.271      861.882
08/02/2014  21:21:00     -264.377        2.411       -9.114      152.901      104.432       57.945    23378.792    10906.058     3357.581        5.381        1.882      264.388       64.717        0.060      348.492       28.225      861.909
08/02/2014  21:22:00     -407.906      -91.610       -1.838      178.088      144.096       84.130    31715.501    20763.775     7077.828       11.716        2.978      418.067       85.183        0.042      348.511       28.256      861.904
08/02/2014  21:23:00     -389.970      -59.125      -24.370      125.443      122.450       48.873    15735.929    14993.881     2388.542        9.464        1.656      394.426       45.065        0.013      348.497       28.233      861.925
08/02/2014  21:24:00     -539.124      -35.839      -31.561      153.278      116.938       79.483    23493.995    13674.395     6317.561       16.820        2.174      540.314       75.811        0.020      348.511       28.255      861.953
08/02/2014  21:25:00     -432.850     -208.072      -29.834      176.702      138.310       84.531    31223.532    19129.775     7145.452       14.451        2.875      480.264       90.481        0.035      348.521       28.274      861.959
08/02/2014  21:26:00     -411.012      -78.516      -10.909      211.015      134.646       76.405    44527.435    18129.482     5837.772       12.184        3.425      418.445       87.381        0.044      348.550       28.324      861.981
08/02/2014  21:27:00     -242.110      -20.090      -16.188      177.169      103.937       74.231    31388.932    10802.898     5510.315        5.348        2.385      242.942       89.810        0.137      348.468       28.182      862.000
08/02/2014  21:28:00     -301.572      -81.713      -14.004      122.373       92.539       54.493    14975.141     8563.541     2969.527        6.216        1.325      312.446       63.792        0.042      348.474       28.193      862.021
08/02/2014  21:29:00     -196.938       10.168       -9.997      123.640       78.412       46.913    15286.754     6148.381     2200.818        3.131        1.182      197.200       58.455        0.088      348.425       28.110      862.019
08/02/2014  21:30:00     -204.620       34.605      -13.306      151.887       92.866       51.892    23069.648     8624.077     2692.811        3.881        1.719      207.525       57.145        0.076      348.410       28.083      862.041
08/02/2014  21:31:00     -365.707      -83.979      -35.439       94.158      108.328       53.427     8865.728    11735.038     2854.397        8.275        1.173      375.225       37.641        0.010      348.416       28.093      862.053
08/02/2014  21:32:00     -273.636      -72.405       -5.192      171.131      118.632       56.469    29285.678    14073.580     3188.791        6.334        2.327      283.054       67.621        0.057      348.358       27.993      862.077
08/02/2014  21:33:00     -248.283      -47.686      -12.139       92.052       89.759       40.682     8473.627     8056.659     1654.993        4.112        0.909      252.821       29.647        0.014      348.343       27.966      862.103
08/02/2014  21:34:00     -151.884      -91.764       22.073      143.246      114.227       69.165    20519.385    13047.862     4783.820        3.516        1.918      177.452       80.092        0.204      348.344       27.970      862.108
08/02/2014  21:35:00     -320.201      -60.595      -11.612      197.243      145.572       75.679    38904.793    21191.205     5727.259        8.607        3.291      325.884       93.522        0.082      348.357       27.990      862.133
08/02/2014  21:36:00     -181.361      -31.325       -4.703      126.384       95.013       58.965    15972.897     9027.462     3476.919        3.118        1.424      184.046       63.695        0.120      348.326       27.938      862.192
08/02/2014  21:37:00     -337.950     -119.794       -5.164      174.931      156.560       68.623    30600.685    24511.015     4709.054        9.419        2.991      358.554       75.169        0.044      348.368       28.009      862.207
08/02/2014  21:38:00     -328.982      -65.176      -24.398      166.801      168.744       56.786    27822.466    28474.388     3224.601        8.629        2.976      335.376       37.164        0.012      348.349       27.976      862.244
08/02/2014  21:39:00     -176.305      -75.543        5.425      105.392       63.401       43.839    11107.429     4019.624     1921.818        2.693        0.852      191.808       49.760        0.067      348.274       27.846      862.276
08/02/2014  21:40:00     -179.806      -34.846        0.576      116.674       80.581       53.480    13612.829     6493.277     2860.082        2.825        1.148      183.152       62.711        0.117      348.278       27.855      862.297
08/02/2014  21:41:00     -211.974      -15.414      -18.213       88.735       72.516       52.902     7873.921     5258.606     2798.580        3.071        0.797      212.533       46.902        0.049      348.302       27.894      862.332
08/02/2014  21:42:00     -222.198       -6.531      -11.899      100.918       83.182       54.111    10184.364     6919.197     2928.048        3.479        1.002      222.294       56.205        0.064      348.247       27.800      862.357
08/02/2014  21:43:00     -258.589      -42.275      -13.389       86.713       88.885       52.442     7519.071     7900.544     2750.139        4.350        0.908      262.022       54.672        0.044      348.308       27.904      862.366
08/02/2014  21:44:00     -352.408       17.310      -27.688      158.482      143.259       66.549    25116.402    20523.096     4428.788        8.765        2.503      352.833       44.258        0.016      348.312       27.912      862.358
08/02/2014  21:45:00     -263.969       22.369      -18.835      137.912       98.264       51.838    19019.802     9655.820     2687.142        5.094        1.568      264.915       48.501        0.034      348.249       27.803      862.382
08/02/2014  21:46:00     -337.188     -120.078       -8.238      148.214      162.020       79.626    21967.383    26250.405     6340.248        9.136        2.728      357.931       79.470        0.049      348.229       27.770      862.418
08/02/2014  21:47:00     -323.677     -136.246      -17.036      113.556      105.410       57.622    12894.920    11111.313     3320.310        7.547        1.366      351.183       47.211        0.018      348.298       27.888      862.434
08/02/2014  21:48:00     -197.022      -63.814       -4.696      103.026       69.393       39.788    10614.298     4815.365     1583.052        2.996        0.851      207.099       31.403        0.023      348.274       27.848      862.455
08/02/2014  21:49:00     -274.704       23.254      -22.485       63.430       74.622       39.838     4023.355     5568.486     1587.031        4.384        0.559      275.686       20.889        0.006      348.278       27.850      862.492
08/02/2014  21:50:00     -132.263      -63.002       -4.105       56.846       46.585       29.247     3231.421     2170.137      855.405        1.387        0.313      146.502       30.739        0.044      348.171       27.673      862.543
08/02/2014  21:51:00      -97.711       18.227       -3.378      127.084       47.040       35.511    16150.378     2212.716     1261.022        1.475        0.981       99.396       48.126        0.234      348.101       27.550      862.570
08/02/2014  21:52:00     -163.864       50.810      -15.387       86.627       60.612       43.270     7504.191     3673.848     1872.273        2.136        0.653      171.561       41.143        0.058      348.144       27.623      862.562
08/02/2014  21:53:00     -214.180       73.229      -17.295      112.203       59.242       37.022    12589.478     3509.589     1370.610        3.450        0.873      226.353       41.653        0.034      348.145       27.625      862.537
08/02/2014  21:54:00     -311.897      -91.815       -5.641      134.313      168.367       61.943    18040.014    28347.376     3836.928        7.797        2.511      325.130       64.336        0.039      348.200       27.719      862.516
08/02/2014  21:55:00     -192.072      -22.388      -24.881       68.780       78.784       46.917     4730.644     6206.853     2201.219        2.557        0.657      193.372        6.740        0.001      348.171       27.670      862.483
08/02/2014  21:56:00     -203.849       -1.425      -30.160       69.580       58.572       36.860     4841.441     3430.630     1358.626        2.605        0.482      203.854       31.102        0.023      348.154       27.638      862.467
08/02/2014  21:57:00     -281.149      -79.111      -16.776       91.418       96.278       52.247     8357.309     9269.430     2729.799        5.297        1.018      292.067       46.462        0.025      348.151       27.636      862.447
08/02/2014  21:58:00     -365.200        5.220      -20.422      112.080       82.246       51.237    12561.873     6764.403     2625.211        7.788        1.098      365.237       44.185        0.015      348.130       27.599      862.446
08/02/2014  21:59:00     -388.194      -52.302      -16.686      149.205      143.582       75.966    22262.124    20615.759     5770.787       10.117        2.432      391.701       75.343        0.037      348.127       27.593      862.466
08/02/2014  22:00:00     -257.649       38.399      -18.942      103.213      114.998       51.000    10652.895    13224.469     2600.953        4.734        1.324      260.494       41.938        0.026      348.123       27.585      862.475
08/02/2014  22:01:00      -85.878      -15.311       -8.925       57.299       41.993       23.655     3283.130     1763.445      559.570        0.665        0.280       87.232       14.750        0.029      348.074       27.505      862.480
08/02/2014  22:02:00      -78.220       10.546       -4.995       61.574       29.445       30.006     3791.321      866.986      900.345        0.591        0.278       78.928       31.394        0.158      348.056       27.473      862.525
08/02/2014  22:03:00      -93.235       18.354       20.633      127.735       74.630       52.332    16316.233     5569.697     2738.630        1.704        1.231       95.024       66.486        0.490      347.986       27.350      862.524
08/02/2014  22:04:00      -13.013       85.149       18.966       37.047       41.984       33.186     1372.510     1762.671     1101.319        0.601        0.212       86.137       25.525        0.088      347.852       27.122      862.531
08/02/2014  22:05:00     -119.523      143.072      -27.430       58.756       47.318       33.798     3452.291     2239.017     1142.312        2.117        0.342      186.429       31.973        0.029      347.903       27.207      862.545
08/02/2014  22:06:00     -122.205       53.103      -20.453       54.180       45.877       36.204     2935.455     2104.677     1310.708        1.226        0.318      133.244       29.976        0.051      347.909       27.219      862.571
08/02/2014  22:07:00      -94.656      -60.866       -4.608       84.290       45.675       31.765     7104.835     2086.248     1009.013        1.144        0.510      112.537       31.097        0.076      347.915       27.230      862.562
08/02/2014  22:08:00     -295.150      -77.726      -13.706      112.624      106.867       50.641    12684.257    11420.463     2564.496        6.000        1.333      305.213       56.931        0.035      348.063       27.483      862.554
08/02/2014  22:09:00     -276.996      -13.743      -26.777       91.573       82.385       45.985     8385.540     6787.297     2114.628        4.746        0.864      277.336       39.055        0.020      348.056       27.470      862.574
08/02/2014  22:10:00     -181.472       -3.172       -3.023       90.816       74.516       52.770     8247.604     5552.672     2784.682        2.476        0.829      181.500       50.917        0.079      347.991       27.359      862.573
08/02/2014  22:11:00     -219.696      -31.737      -15.344       91.812       65.609       36.637     8429.374     4304.548     1342.241        3.179        0.704      221.976       43.104        0.038      347.947       27.280      862.588
08/02/2014  22:12:00     -240.040      -55.334       -6.887      133.761       83.235       55.867    17892.130     6928.130     3121.162        4.433        1.397      246.335       59.476        0.058      347.953       27.292      862.598
08/02/2014  22:13:00     -226.331       11.414      -28.541       68.547       75.019       42.416     4698.745     5627.866     1799.091        3.215        0.606      226.619       37.944        0.028      347.969       27.320      862.590
08/02/2014  22:14:00     -207.571      -68.593      -14.026       65.723       55.161       39.514     4319.523     3042.697     1561.350        2.845        0.446      218.611       34.373        0.025      347.914       27.226      862.596
08/02/2014  22:15:00     -197.126       -6.336       -8.431      103.899       77.825       45.259    10794.961     6056.684     2048.412        2.893        0.945      197.228       43.623        0.049      347.866       27.144      862.598
08/02/2014  22:16:00     -237.568      -38.747      -13.588       76.489      103.194       42.001     5850.581    10649.057     1764.106        3.819        0.913      240.707       35.084        0.021      347.807       27.038      862.584
08/02/2014  22:17:00     -228.780      -78.027      -13.970      107.203       72.824       50.077    11492.562     5303.289     2507.685        3.896        0.965      241.720       53.813        0.050      347.723       26.896      862.589
08/02/2014  22:18:00     -147.569       24.158      -19.308       62.097       88.607       44.480     3856.075     7851.280     1978.432        1.821        0.684      149.534       32.554        0.047      347.705       26.868      862.598
08/02/2014  22:19:00     -171.649      -46.766      -25.900       70.471       78.134       40.654     4966.149     6104.879     1652.717        2.252        0.636      177.906       30.581        0.030      347.643       26.760      862.612
08/02/2014  22:20:00     -150.210      -46.037       -0.705      137.526       71.936       41.287    18913.502     5174.805     1704.648        2.523        1.290      157.106       61.919        0.155      347.597       26.679      862.618
08/02/2014  22:21:00     -309.028      -42.291      -29.189       83.781       72.156       54.216     7019.205     5206.513     2939.368        5.665        0.758      311.908       40.707        0.017      347.699       26.853      862.628
08/02/2014  22:22:00     -240.150      -57.130      -21.819       71.935       78.208       37.397     5174.599     6116.522     1398.569        3.705        0.634      246.852       31.474        0.016      347.677       26.814      862.646
08/02/2014  22:23:00     -153.643      -71.846      -10.827       63.376       56.745       34.063     4016.578     3219.996     1160.262        1.864        0.420      169.612       23.504        0.019      347.665       26.797      862.646
08/02/2014  22:24:00     -114.292        5.896      -14.705       53.510       50.963       36.037     2863.273     2597.277     1298.683        1.004        0.338      114.444       32.214        0.079      347.680       26.824      862.642
08/02/2014  22:25:00     -143.292       44.342      -22.169       79.202       48.079       40.648     6272.926     2311.612     1652.228        1.661        0.512      149.996       40.289        0.072      347.657       26.782      862.653
08/02/2014  22:26:00     -127.298      -53.019        2.577       90.402       98.542       34.612     8172.459     9710.513     1197.984        1.905        0.954      137.897       35.890        0.068      347.571       26.635      862.643
08/02/2014  22:27:00     -133.046      -31.569       -8.291       73.614       46.793       32.811     5418.985     2189.562     1076.573        1.372        0.434      136.740       36.725        0.072      347.651       26.773      862.637
08/02/2014  22:28:00     -142.398      -61.497      -17.502       98.996       57.029       33.027     9800.152     3252.275     1090.752        1.925        0.707      155.110       19.135        0.015      347.567       26.627      862.643
08/02/2014  22:29:00     -144.233      -24.947      -18.017       56.002       47.306       26.490     3136.228     2237.885      701.743        1.391        0.304      146.374       24.037        0.027      347.559       26.614      862.653
08/02/2014  22:30:00     -260.444      -48.572      -13.167      141.354       81.100       49.761    19980.919     6577.214     2476.172        4.969        1.452      264.934       61.642        0.054      347.590       26.666      862.658
08/02/2014  22:31:00     -326.336      -51.044      -43.740      119.714       88.858       61.264    14331.458     7895.694     3753.291        6.849        1.299      330.304       65.831        0.040      347.663       26.791      862.675
08/02/2014  22:32:00     -315.624      -73.165      -26.432      123.416       72.884       53.148    15231.622     5312.044     2824.749        6.451        1.168      323.993       52.965        0.027      347.658       26.781      862.698
08/02/2014  22:33:00     -206.645      -41.418       -0.005      117.102       78.003       48.490    13712.801     6084.438     2351.258        3.328        1.107      210.755       55.548        0.069      347.601       26.686      862.716
08/02/2014  22:34:00     -330.275      -28.784      -27.711      158.177       98.938       57.190    25020.093     9788.764     3270.720        7.437        1.904      331.527       77.728        0.055      347.690       26.838      862.737
08/02/2014  22:35:00     -202.832        0.564      -21.018      152.767       88.227       41.174    23337.796     7783.963     1695.338        3.719        1.641      202.833       55.934        0.076      347.606       26.696      862.739
08/02/2014  22:36:00     -194.172      -27.135      -10.316       99.603       68.440       41.061     9920.787     4684.013     1686.023        2.741        0.815      196.059       46.222        0.056      347.576       26.643      862.734
08/02/2014  22:37:00     -256.683      -62.823      -30.792       70.982       73.611       43.685     5038.510     5418.564     1908.381        4.157        0.618      264.259       37.992        0.021      347.604       26.691      862.730
08/02/2014  22:38:00     -190.897      -66.164        3.205       82.925       74.594       39.803     6876.513     5564.224     1584.265        2.742        0.701      202.038       30.396        0.023      347.521       26.547      862.747
08/02/2014  22:39:00     -255.761      -89.649       -5.494      108.741       74.411       41.371    11824.654     5537.000     1711.551        4.627        0.954      271.018       36.338        0.018      347.530       26.564      862.751
08/02/2014  22:40:00     -304.890      -87.156       -3.208      158.198      121.562       57.696    25026.683    14777.345     3328.874        7.184        2.157      317.103       66.962        0.045      347.585       26.658      862.762
08/02/2014  22:41:00     -162.380      -30.565        5.674      135.173       87.075       46.670    18271.813     7582.142     2178.062        2.768        1.402      165.231       52.773        0.102      347.526       26.559      862.752
08/02/2014  22:42:00     -359.693      -56.178      -18.152      173.823      121.310       62.225    30214.298    14716.082     3871.898        9.082        2.440      364.054       77.514        0.045      347.612       26.704      862.741
08/02/2014  22:43:00     -226.633      -66.574       -4.708      107.019      115.402       61.029    11453.061    13317.736     3724.497        4.215        1.425      236.209       64.571        0.075      347.583       26.653      862.728
08/02/2014  22:44:00     -311.474      -21.172      -32.359       70.642       62.140       45.655     4990.249     3861.396     2084.416        5.472        0.547      312.193       36.826        0.014      347.612       26.705      862.721
08/02/2014  22:45:00     -223.844      -45.082       -8.915       90.811       76.976       51.916     8246.556     5925.275     2695.254        3.454        0.843      228.339       46.587        0.042      347.508       26.522      862.711
08/02/2014  22:46:00     -232.064      -93.908      -17.090      104.349      107.733       47.300    10888.619    11606.310     2237.290        4.384        1.237      250.344       37.360        0.022      347.592       26.669      862.659
08/02/2014  22:47:00     -195.211      -17.169      -13.948      149.446      107.349       40.709    22334.186    11523.912     1657.190        3.705        1.776      195.965       52.954        0.073      347.520       26.547      862.637
08/02/2014  22:48:00     -298.714      -19.167      -14.543      148.692       93.962       56.124    22109.458     8828.821     3149.939        6.194        1.704      299.328       51.356        0.029      347.568       26.630      862.616
08/02/2014  22:49:00     -265.819      -62.985      -13.610      129.866       96.824       51.659    16865.192     9374.835     2668.620        5.185        1.445      273.179       29.458        0.012      347.571       26.633      862.591
08/02/2014  22:50:00     -216.894      -96.371        7.782      119.088       85.811       50.958    14181.896     7363.506     2596.686        4.026        1.207      237.340       48.442        0.042      347.523       26.551      862.586
08/02/2014  22:51:00     -293.316      -89.319        0.887       93.768       98.127       59.018     8792.449     9628.924     3483.102        5.795        1.095      306.614       50.611        0.027      347.504       26.518      862.601
08/02/2014  22:52:00     -322.526      -33.092      -19.444      120.167      100.920       51.200    14440.130    10184.870     2621.479        6.637        1.362      324.220       56.505        0.030      347.562       26.617      862.615
08/02/2014  22:53:00     -260.252      -13.391      -17.062      124.153       84.745       48.694    15414.076     7181.694     2371.079        4.658        1.248      260.596       54.838        0.044      347.531       26.565      862.628
08/02/2014  22:54:00     -225.372      -63.281      -14.578      101.716       73.341       38.662    10346.127     5378.956     1494.788        3.611        0.861      234.088       46.990        0.040      347.553       26.603      862.638
08/02/2014  22:55:00     -197.741      -21.201      -12.316       66.173       88.054       37.866     4378.896     7753.432     1433.847        2.663        0.678      198.875       30.813        0.024      347.527       26.559      862.659
08/02/2014  22:56:00     -168.926       10.036       -5.462       59.511       61.031       31.556     3541.582     3724.769      995.810        1.846        0.413      169.224       24.370        0.021      347.462       26.445      862.665
08/02/2014  22:57:00     -153.282       29.693      -12.552       50.495       76.204       31.852     2549.721     5807.015     1014.556        1.695        0.469      156.131       36.141        0.054      347.555       26.607      862.672
08/02/2014  22:58:00     -106.164        0.090       -6.664       55.702       66.285       32.649     3102.705     4393.740     1065.936        0.994        0.428      106.164       26.065        0.060      347.455       26.435      862.677
08/02/2014  22:59:00     -105.484       71.990      -13.997       54.346       57.321       31.660     2953.521     3285.722     1002.338        1.187        0.362      127.709       32.725        0.066      347.482       26.482      862.669
08/02/2014  23:00:00      -60.365       68.043       -7.801       47.418       65.323       30.970     2248.502     4267.103      959.126        0.790        0.374       90.960       28.113        0.096      347.399       26.339      862.660
08/02/2014  23:01:00     -129.006       26.081       -2.535       87.893       58.332       34.680     7725.154     3402.666     1202.691        1.483        0.617      131.616       41.032        0.097      347.430       26.393      862.656
08/02/2014  23:02:00     -189.617       11.613      -22.008       41.929       32.024       25.533     1758.077     1025.531      651.935        2.000        0.172      189.972       18.974        0.010      347.435       26.402      862.626
08/02/2014  23:03:00     -237.980      -12.131      -23.628      129.889       77.489       44.105    16871.088     6004.593     1945.291        4.108        1.241      238.289       55.367        0.054      347.411       26.359      862.588
08/02/2014  23:04:00     -154.730       37.218      -25.278       73.127      109.507       38.306     5347.522    11991.872     1467.322        2.238        0.940      159.144       35.354        0.049      347.393       26.328      862.566
08/02/2014  23:05:00     -151.233       15.271      -16.233       51.859       81.355       35.886     2689.329     6618.593     1287.789        1.698        0.530      152.002       25.168        0.027      347.421       26.376      862.546
08/02/2014  23:06:00     -232.729      -35.583      -16.449      107.633       74.444       41.313    11584.793     5541.976     1706.795        3.726        0.942      235.434       41.108        0.030      347.420       26.374      862.521
08/02/2014  23:07:00     -183.523      -14.303       -4.187       90.951       53.615       44.472     8272.083     2874.593     1977.771        2.351        0.656      184.079       40.768        0.049      347.438       26.405      862.475
08/02/2014  23:08:00     -210.260      -19.591      -19.082       91.564       74.151       40.351     8384.055     5498.374     1628.163        3.023        0.776      211.170       40.348        0.037      347.417       26.369      862.473
08/02/2014  23:09:00     -269.276      -34.909      -20.768      102.836       73.927       46.443    10575.269     5465.260     2156.917        4.617        0.910      271.529       50.372        0.034      347.413       26.360      862.457
08/02/2014  23:10:00     -166.270      -72.536       -6.567       58.187       63.318       30.553     3385.724     4009.120      933.465        2.064        0.416      181.404       30.010        0.027      347.326       26.212      862.446
08/02/2014  23:11:00     -140.843      -23.992      -18.238       66.176       57.921       38.821     4379.245     3354.793     1507.039        1.499        0.462      142.872       31.248        0.048      347.341       26.241      862.453
08/02/2014  23:12:00     -140.028      -22.436      -13.124       57.592       39.896       28.523     3316.894     1591.655      813.589        1.300        0.286      141.814       14.756        0.011      347.368       26.285      862.448
08/02/2014  23:13:00     -105.057       25.709      -16.559       68.532       48.308       24.520     4696.647     2333.648      601.239        0.980        0.382      108.157       26.477        0.060      347.334       26.230      862.449
08/02/2014  23:14:00      -50.536       56.673       -1.709       34.710       56.257       26.561     1204.751     3164.846      705.485        0.542        0.254       75.933       15.516        0.042      347.287       26.146      862.438
08/02/2014  23:15:00      -93.608       94.618       -8.269       42.302       56.599       29.771     1789.461     3203.467      886.340        1.183        0.294      133.098       19.213        0.021      347.237       26.061      862.445
08/02/2014  23:16:00      -82.011       79.619      -16.974       38.080       45.969       20.726     1450.107     2113.182      429.563        0.867        0.200      114.302        9.441        0.007      347.202       25.999      862.428
08/02/2014  23:17:00      -46.170       41.245        1.365       42.834       52.819       34.372     1834.712     2789.840     1181.414        0.482        0.290       61.910       14.887        0.058      347.262       26.103      862.414
08/02/2014  23:18:00     -104.939       47.975       -9.458       44.940       47.650       21.254     2019.643     2270.477      451.730        0.907        0.237      115.385       18.777        0.026      347.344       26.245      862.383
08/02/2014  23:19:00      -56.432       49.239      -14.307       30.391       35.399       16.517      923.595     1253.057      272.819        0.413        0.122       74.894       15.501        0.043      347.219       26.029      862.366
08/02/2014  23:20:00      -32.052       44.187       -5.549       35.808       35.356       23.661     1282.233     1250.063      559.829        0.305        0.155       54.588       23.364        0.183      347.142       25.897      862.383
08/02/2014  23:21:00        0.772      -25.717        5.545       37.752       35.086       27.561     1425.246     1230.992      759.584        0.205        0.171       25.728       19.385        0.568      347.213       26.018      862.379
08/02/2014  23:22:00      -44.126      -14.147       -0.002       30.426       28.614       18.330      925.742      818.767      335.985        0.211        0.104       46.339       15.989        0.119      347.172       25.948      862.361
08/02/2014  23:23:00     -115.572       20.232      -12.607       49.154       31.568       23.037     2416.128      996.555      530.690        0.893        0.197      117.329       25.039        0.046      347.362       26.277      862.335
08/02/2014  23:24:00        4.287       13.183       -2.080       31.294       13.592       17.022      979.285      184.730      289.742        0.082        0.073       13.863       15.524        1.254      347.196       25.990      862.349
08/02/2014  23:25:00       -7.479       47.925        4.205       30.468       47.102       21.459      928.273     2218.630      460.489        0.299        0.180       48.505       24.636        0.258      347.155       25.920      862.365
08/02/2014  23:26:00      -84.002       11.133      -15.334       54.270       56.268       28.306     2945.185     3166.112      801.255        0.716        0.346       84.736       31.308        0.137      347.311       26.188      862.360
08/02/2014  23:27:00     -162.587       17.472      -15.807       71.414       74.534       42.914     5099.926     5555.325     1841.615        1.974        0.625      163.523       17.328        0.011      347.402       26.344      862.360
08/02/2014  23:28:00      -61.281      -12.978       -6.826       33.180       52.385       35.689     1100.880     2744.138     1273.707        0.454        0.256       62.640       21.640        0.119      347.342       26.242      862.376
08/02/2014  23:29:00      -61.844      -33.206        8.687       77.908       37.729       26.091     6069.677     1423.490      680.735        0.659        0.409       70.195       37.699        0.288      347.346       26.247      862.392
08/02/2014  23:30:00     -175.784      -54.774      -19.503       92.888       60.762       42.571     8628.144     3692.062     1812.270        2.420        0.707      184.120       34.699        0.036      347.580       26.648      862.389
08/02/2014  23:31:00     -177.887      -10.486      -16.062       53.714       62.339       35.892     2885.193     3886.169     1288.225        2.003        0.403      178.196       37.218        0.044      347.491       26.497      862.405
08/02/2014  23:32:00      -85.632      -20.785        1.498       59.868       61.251       34.579     3584.188     3751.708     1195.713        0.815        0.427       88.118       32.144        0.133      347.419       26.375      862.420
08/02/2014  23:33:00      -32.405      -29.597        7.358       40.715       30.515       17.403     1657.751      931.178      302.878        0.244        0.145       43.887       15.368        0.123      347.337       26.233      862.434
08/02/2014  23:34:00     -104.702      -19.647       -7.925       43.483       34.908       27.028     1890.774     1218.555      730.536        0.762        0.192      106.529       26.942        0.064      347.514       26.540      862.442
08/02/2014  23:35:00     -100.694      -11.083      -12.339       39.161       40.593       18.510     1533.546     1647.776      342.629        0.697        0.176      101.303        8.858        0.008      347.388       26.321      862.446
08/02/2014  23:36:00     -134.401      -59.761       -2.542       80.888       61.594       32.186     6542.831     3793.851     1035.935        1.650        0.569      147.089       39.185        0.071      347.392       26.327      862.462
08/02/2014  23:37:00     -205.339       45.004      -15.246       57.937       37.942       27.913     3356.727     1439.585      779.153        2.500        0.279      210.212       23.778        0.013      347.516       26.538      862.481
08/02/2014  23:38:00     -116.532        0.869       -9.645       57.393       43.914       32.752     3293.969     1928.466     1072.720        0.998        0.315      116.535       32.054        0.076      347.504       26.520      862.513
08/02/2014  23:39:00      -80.864      -18.381        0.685       71.947       55.619       38.821     5176.350     3093.476     1507.089        0.833        0.489       82.927       43.126        0.270      347.443       26.415      862.550
08/02/2014  23:40:00      -19.872       44.808       19.967       37.667       26.609       25.579     1418.831      708.031      654.278        0.279        0.139       49.017       23.307        0.226      347.251       26.085      862.570
08/02/2014  23:41:00       14.415        3.689       25.548       41.360       26.775       26.003     1710.672      716.903      676.149        0.199        0.155       14.879       22.624        2.312      347.134       25.882      862.604
08/02/2014  23:42:00       11.381       16.124       28.419       29.468       29.418       27.032      868.358      865.391      730.728        0.183        0.123       19.736       19.613        0.988      346.915       25.507      862.656
08/02/2014  23:43:00       40.590       69.854       69.063       49.429       42.202       43.806     2443.212     1781.005     1918.931        0.872        0.307       80.790       38.596        0.228      346.796       25.301      862.695
08/02/2014  23:44:00      120.002       59.816       39.077       37.940       41.446       38.495     1439.473     1717.786     1481.888        1.207        0.232      134.084       31.658        0.056      346.729       25.186      862.733
08/02/2014  23:45:00       84.494       10.696       24.483       60.011       41.137       34.794     3601.335     1692.253     1210.648        0.718        0.325       85.168       23.162        0.074      346.681       25.105      862.765
08/02/2014  23:46:00       99.838       38.015       37.518       58.783       42.033       37.025     3455.424     1766.760     1370.874        0.971        0.330      106.830       30.495        0.081      346.743       25.210      862.789
08/02/2014  23:47:00      137.692       65.996       55.617       54.209       39.854       48.831     2938.590     1588.309     2384.425        1.666        0.346      152.691       35.170        0.053      346.822       25.346      862.805
08/02/2014  23:48:00       81.147       49.377       40.067       50.132       38.129       31.965     2513.212     1453.820     1021.766        0.781        0.249       94.989       20.201        0.045      346.787       25.287      862.844
08/02/2014  23:49:00       54.185       -8.943       29.405       39.071       38.992       30.488     1526.576     1520.350      929.498        0.393        0.199       54.918       24.192        0.194      346.634       25.023      862.868
08/02/2014  23:50:00       22.922        5.890       18.712       25.352       33.545       21.267      642.738     1125.239      452.271        0.156        0.111       23.666       10.486        0.196      346.655       25.058      862.895
08/02/2014  23:51:00       12.120        2.954        7.476       20.311       19.153       10.990      412.545      366.824      120.787        0.056        0.045       12.475        6.950        0.310      346.651       25.051      862.922
08/02/2014  23:52:00       19.654       14.062       18.135       28.320       40.981       22.756      802.005     1679.424      517.833        0.196        0.150       24.166       11.535        0.228      346.692       25.122      862.933
08/02/2014  23:53:00       61.286       50.542       18.071       22.354       21.416       24.430      499.713      458.647      596.835        0.410        0.078       79.438       11.509        0.021      346.641       25.034      862.960
08/02/2014  23:54:00       14.760       20.383       15.642       29.552       20.185       13.939      873.307      407.453      194.307        0.118        0.074       25.166        4.644        0.034      346.576       24.923      862.974
08/02/2014  23:55:00       71.994       39.766       16.586       49.190       23.676       25.289     2419.670      560.551      639.544        0.533        0.181       82.246       22.149        0.073      346.607       24.978      862.979
08/02/2014  23:56:00       93.449       56.880        7.604       33.177       29.263       21.179     1100.715      856.324      448.567        0.722        0.120      109.399       12.478        0.013      346.631       25.018      862.981
08/02/2014  23:57:00       90.029       47.572       11.416       24.761       23.163       16.809      613.105      536.506      282.540        0.597        0.072      101.825        7.541        0.005      346.635       25.024      862.993
08/02/2014  23:58:00       52.018       33.146       11.502       37.887       24.624       18.056     1435.439      606.327      326.015        0.315        0.118       61.681        4.225        0.005      346.566       24.907      862.995
08/02/2014  23:59:00       85.245       51.455       10.268       55.984       43.466       25.927     3134.215     1889.266      672.227        0.786        0.285       99.571       20.868        0.044      346.637       25.027      863.002
